[[{"header":{"parameterUnit":"m.s-1","parameterCategory":1,"la1":31.0,"la2":29.5877,"lo1":-88.7671,"lo2":-86.6584,"dy":0.0162,"dx":0.0185,"nx":115,"ny":88,"refTime":"2026-03-09T00:00:00:Z","depth":0,"parameterNumber":2,"parameterNumberName":"U-component_of_WINDS"},"data":[0.0,0.0,0.0,0.0,0.0,0.0,0.0,0.0,0.0,0.0,0.0,0.0,0.0,0.0,0.0,0.0,0.0,0.0,0.0,0.0,0.0,0.0,0.0,0.0,0.0,0.0,0.0,0.0,0.0,0.0,0.0,0.0,0.0,0.0,0.0,0.0,0.0,0.0,0.0,0.0,0.0,0.0,0.0,0.0,0.0,0.0,0.0,0.0,0.0,0.0,0.0,0.0,0.0,0.0,0.0,0.0,0.0,0.0,0.0,0.0,0.0,0.0,0.0,0.0,0.0,0.0,0.0,0.0,0.0,0.0,0.0,0.0,0.0,0.0,0.0,0.0,0.0,0.0,0.0,0.0,0.0,0.0,0.0,0.0,0.0,0.0,0.0,0.0,0.0,0.0,0.0,0.0,0.0,0.0,0.0,0.0,0.0,0.0,0.0,0.0,0.0,0.0,0.0,0.0,0.0,0.0,0.0,0.0,0.0,0.0,0.0,0.0,0.0,0.0,0.0,0.0,0.0,0.0,0.0,0.0,0.0,0.0,0.0,0.0,0.0,0.0,0.0,0.0,0.0,0.0,0.0,0.0,0.0,0.0,0.0,0.0,0.0,0.0,0.0,0.0,0.0,0.0,0.0,0.0,0.0,0.0,0.0,0.0,0.0,0.0,0.0,0.0,0.0,0.0,0.0,0.0,0.0,0.0,0.0,0.0,0.0,0.0,0.0,0.0,0.0,0.0,0.0,0.0,0.0,0.0,0.0,0.0,0.0,0.0,0.0,0.0,0.0,0.0,0.0,0.0,0.0,0.0,0.0,0.0,0.0,0.0,0.0,0.0,0.0,0.0,0.0,0.0,0.0,0.0,0.0,0.0,0.0,0.0,0.0,0.0,0.0,0.0,0.0,0.0,0.0,0.0,0.0,0.0,0.0,0.0,0.0,0.0,0.0,0.0,0.0,0.0,0.0,0.0,0.0,0.0,0.0,0.0,0.0,0.0,0.0,0.0,0.0,0.0,0.0,0.0,0.0,0.0,0.0,0.0,0.0,0.0,0.0,0.0,0.0,0.0,0.0,0.0,0.0,0.0,0.0,0.0,0.0,0.0,0.0,0.0,0.0,0.0,0.0,0.0,0.0,0.0,0.0,0.0,0.0,0.0,0.0,0.0,0.0,0.0,0.0,0.0,0.0,0.0,0.0,0.0,0.0,0.0,0.0,0.0,0.0,0.0,0.0,0.0,0.0,0.0,0.0,0.0,0.0,0.0,0.0,0.0,0.0,0.0,0.0,0.0,0.0,0.0,0.0,0.0,0.0,0.0,0.0,0.0,0.0,0.0,0.0,0.0,0.0,0.0,0.0,0.0,0.0,0.0,0.0,0.0,0.0,0.0,0.0,0.0,0.0,0.0,0.0,0.0,0.0,0.0,0.0,0.0,0.0,0.0,0.0,0.0,0.0,0.0,0.0,0.0,0.0,0.0,0.0,0.0,0.0,0.0,0.0,0.0,0.0,0.0,0.0,0.0,0.0,0.0,0.0,0.0,0.0,0.0,0.0,0.0,0.0,0.0,0.0,0.0,0.0,0.0,0.0,0.0,0.0,0.0,0.0,0.0,0.0,0.0,0.0,0.0,0.0,0.0,0.0,0.0,0.0,0.0,0.0,0.0,0.0,0.0,0.0,0.0,0.0,0.0,0.0,0.0,0.0,0.0,0.0,0.0,0.0,0.0,0.0,0.0,0.0,0.0,0.0,0.0,0.0,0.0,0.0,0.0,0.0,0.0,0.0,0.0,0.0,0.0,0.0,0.0,0.0,0.0,0.0,0.0,0.0,0.0,0.0,0.0,0.0,0.0,0.0,0.0,0.0,0.0,0.0,0.0,0.0,0.0,0.0,0.0,0.0,0.0,0.0,0.0,0.0,0.0,0.0,0.0,0.0,0.0,0.0,0.0,0.0,0.0,0.0,0.0,0.0,0.0,0.0,0.0,0.0,0.0,0.0,0.0,0.0,0.0,0.0,0.0,0.0,0.0,0.0,0.0,0.0,0.0,0.0,0.0,0.0,0.0,0.0,0.0,0.0,0.0,0.0,0.0,0.0,0.0,0.0,0.0,0.0,0.0,0.0,0.0,0.0,0.0,0.0,0.0,0.0,0.0,0.0,0.0,0.0,0.0,0.0,0.0,0.0,0.0,0.0,0.0,0.0,0.0,0.0,0.0,0.0,0.0,0.0,0.0,0.0,0.0,0.0,0.0,0.0,0.0,0.0,0.0,0.0,0.0,0.0,0.0,0.0,0.0,0.0,0.0,0.0,0.0,0.0,0.0,0.0,0.0,0.0,0.0,0.0,0.0,0.0,0.0,0.0,0.0,0.0,0.0,0.0,0.0,0.0,0.0,0.0,0.0,0.0,0.0,0.0,0.0,0.0,0.0,0.0,0.0,0.0,0.0,0.0,0.0,0.0,0.0,0.0,0.0,0.0,0.0,0.0,0.0,0.0,0.0,0.0,0.0,0.0,0.0,0.0,0.0,0.0,0.0,0.0,0.0,0.0,0.0,0.0,0.0,0.0,0.0,0.0,0.0,0.0,0.0,0.0,0.0,0.0,0.0,0.0,0.0,0.0,0.0,0.0,0.0,0.0,0.0,0.0,0.0,0.0,0.0,0.0,0.0,0.0,0.0,0.0,0.0,0.0,0.0,0.0,0.0,0.0,0.0,0.0,0.0,0.0,0.0,0.0,0.0,0.0,0.0,0.0,0.0,0.0,0.0,0.0,0.0,0.0,0.0,0.0,0.0,0.0,0.0,0.0,0.0,0.0,0.0,0.0,0.0,0.0,0.0,0.0,0.0,0.0,0.0,0.0,0.0,0.0,0.0,0.0,0.0,0.0,0.0,0.0,0.0,0.0,0.0,0.0,0.0,0.0,0.0,0.0,0.0,0.0,0.0,0.0,0.0,0.0,0.0,0.0,0.0,0.0,0.0,0.0,0.0,0.0,0.0,0.0,0.0,0.0,0.0,0.0,0.0,0.0,0.0,0.0,0.0,0.0,0.0,0.0,0.0,0.0,0.0,0.0,0.0,0.0,0.0,0.0,0.0,0.0,0.0,0.0,0.0,0.0,0.0,0.0,0.0,0.0,0.0,0.0,0.0,0.0,0.0,0.0,0.0,0.0,0.0,0.0,0.0,0.0,0.0,0.0,0.0,0.0,0.0,0.0,0.0,0.0,0.0,0.0,0.0,0.0,0.0,0.0,0.0,0.0,0.0,0.0,0.0,0.0,0.0,0.0,0.0,0.0,0.0,0.0,0.0,0.0,0.0,0.0,0.0,0.0,0.0,0.0,0.0,0.0,0.0,0.0,0.0,0.0,0.0,0.0,0.0,0.0,0.0,0.0,0.0,0.0,0.0,0.0,0.0,0.0,0.0,0.0,0.0,0.0,0.0,0.0,0.0,0.0,0.0,0.0,0.0,0.0,0.0,0.0,0.0,0.0,0.0,0.0,0.0,0.0,0.0,0.0,0.0,0.0,0.0,0.0,0.0,0.0,0.0,0.0,0.0,0.0,0.0,0.0,0.0,0.0,0.0,0.0,0.0,0.0,0.0,0.0,0.0,0.0,0.0,0.0,0.0,0.0,0.0,0.0,0.0,0.0,0.0,0.0,0.0,0.0,0.0,0.0,0.0,0.0,0.0,0.0,0.0,0.0,0.0,0.0,0.0,0.0,0.0,0.0,0.0,0.0,0.0,0.0,0.0,0.0,0.0,0.0,0.0,0.0,0.0,0.0,0.0,0.0,0.0,0.0,0.0,0.0,0.0,0.0,0.0,0.0,0.0,0.0,0.0,0.0,0.0,0.0,0.0,0.0,0.0,0.0,0.0,0.0,0.0,0.0,0.0,0.0,0.0,0.0,0.0,0.0,0.0,0.0,0.0,0.0,0.0,0.0,0.0,0.0,0.0,0.0,0.0,0.0,0.0,0.0,0.0,0.0,0.0,0.0,0.0,0.0,0.0,0.0,0.0,0.0,0.0,0.0,0.0,0.0,0.0,0.0,0.0,0.0,0.0,0.0,0.0,0.0,0.0,0.0,0.0,0.0,0.0,0.0,0.0,0.0,0.0,0.0,0.0,0.0,0.0,0.0,0.0,0.0,0.0,0.0,0.0,0.0,0.0,0.0,0.0,0.0,0.0,0.0,0.0,0.0,0.0,0.0,0.0,0.0,0.0,0.0,0.0,0.0,0.0,0.0,0.0,0.0,0.0,0.0,0.0,0.0,0.0,0.0,0.0,0.0,0.0,0.504,0.0,0.0,0.0,0.0,0.0,0.0,0.0,0.0,0.0,0.0,0.0,0.0,0.0,0.0,0.0,0.0,0.0,0.0,0.0,0.0,0.0,0.0,0.0,0.0,0.0,0.0,0.0,0.0,0.0,0.0,0.0,0.0,0.0,0.0,0.0,0.0,0.0,0.0,0.0,0.0,0.0,0.0,0.0,0.0,0.0,0.0,0.0,0.0,0.0,0.0,0.0,0.0,0.0,0.0,0.0,0.0,0.0,0.0,0.0,0.0,0.0,0.0,0.0,0.0,0.0,0.0,0.0,0.0,0.0,0.0,0.0,0.0,0.0,0.0,0.0,0.0,0.0,0.0,0.0,0.0,0.0,0.0,0.0,0.0,0.0,0.0,0.0,0.0,0.0,0.0,0.0,0.0,0.0,0.0,0.0,0.0,0.0,0.0,0.0,0.0,0.0,0.0,0.0,0.0,0.0,0.0,0.0,0.0,0.0,0.0,0.5708,0.5689,0.5301,0.5098,0.5088,0.0,0.0,0.0,0.0,0.0,0.0,0.0,0.0,0.0,0.0,0.0,0.0,0.0,0.0,0.0,0.0,0.0,0.0,0.0,0.0,0.0,0.0,0.0,0.0,0.0,0.0,0.0,0.0,0.0,0.0,0.0,0.0,0.0,0.0,0.0,0.0,0.0,0.0,0.0,0.0,0.0,0.0,0.0,0.0,0.0,0.0,0.0,0.0,0.0,0.0,0.0,0.0,0.0,0.0,0.0,0.0,0.0,0.0,0.0,0.0,0.0,0.0,0.0,0.0,0.0,0.0,0.0,0.0,0.0,0.0,0.0,0.0,0.0,0.0,0.0,0.0,0.0,0.0,0.0,0.0,0.0,0.0,0.0,0.0,0.0,0.0,0.0,0.0,0.0,0.0,0.0,0.0,0.0,0.0,0.0,0.0,0.0,0.0,0.0,0.0,0.0,0.0,0.0,0.0,0.0,0.0,0.0,0.0,0.0,0.0,0.0,0.0,0.5415,0.5252,0.5195,0.0,0.0,0.0,0.0,0.0,0.0,0.0,0.0,0.0,0.0,0.0,0.0,0.0,0.0,0.0,0.0,0.0,0.0,0.0,0.0,0.0,0.0,0.0,0.0,0.0,0.0,0.0,0.0,0.0,0.0,0.0,0.0,0.0,0.0,0.0,0.0,0.0,0.0,0.0,0.0,0.0,0.0,0.0,0.0,0.0,0.0,0.0,0.0,0.0,0.0,0.0,0.0,0.0,0.0,0.0,0.0,0.0,0.0,0.0,0.0,0.0,0.0,0.0,0.0,0.0,0.0,0.0,0.0,0.0,0.0,0.0,0.0,0.0,0.0,0.0,0.0,0.0,0.0,0.0,0.0,0.0,0.0,0.0,0.0,0.0,0.0,0.0,0.0,0.0,0.0,0.0,0.0,0.0,0.0,0.0,0.0,0.0,0.0,0.0,0.0,0.0,0.0,0.0,0.0,0.0,0.0,0.0,0.0,0.0,0.0,0.6153,0.6127,0.5934,0.0,0.5492,0.0,0.0,0.0,0.0,0.0,0.0,0.0,0.0,0.0,0.0,0.0,0.0,0.0,0.0,0.0,0.0,0.0,0.0,0.0,0.0,0.0,0.0,0.0,0.0,0.0,0.0,0.0,0.0,0.0,0.0,0.0,0.0,0.0,0.0,0.0,0.0,0.0,0.0,0.0,0.0,0.0,0.0,0.0,0.0,0.0,0.0,0.0,0.0,0.0,0.0,0.0,0.0,0.0,0.0,0.0,0.0,0.0,0.0,0.0,0.0,0.0,0.0,0.0,0.0,0.0,0.0,0.0,0.0,0.0,0.0,0.0,0.0,0.0,0.0,0.0,0.0,0.0,0.0,0.0,0.0,0.0,0.0,0.0,0.0,0.0,0.0,0.0,0.0,0.0,0.0,0.0,0.0,0.0,0.0,0.0,0.0,0.0,0.0,0.0,0.0,0.0,0.0,0.0,0.0,0.0,0.0,0.0,0.0,0.0,0.0,0.0,0.6036,0.5936,0.5762,0.0,0.0,0.0,0.0,0.0,0.0,0.0,0.0,0.0,0.0,0.0,0.0,0.0,0.0,0.0,0.0,0.0,0.0,0.0,0.0,0.0,0.0,0.0,0.0,0.0,0.0,0.0,0.0,0.0,0.0,0.0,0.0,0.0,0.0,0.0,0.0,0.0,0.0,0.0,0.0,0.0,0.0,0.0,0.0,0.0,0.0,0.0,0.0,0.0,0.0,0.0,0.0,0.0,0.0,0.0,0.0,0.0,0.0,0.0,0.0,0.0,0.0,0.0,0.0,0.0,0.0,0.0,0.0,0.0,0.0,0.0,0.0,0.0,0.0,0.0,0.0,0.0,0.0,0.0,0.0,0.0,0.0,0.0,0.0,0.0,0.0,0.0,0.0,0.0,0.0,0.0,0.0,0.0,0.0,0.0,0.0,0.0,0.0,0.0,0.0,0.0,0.0,0.0,0.0,0.0,0.0,0.0,0.0,0.0,0.0,0.6271,0.0,0.6099,0.6081,0.5948,0.5633,0.0,0.0,0.0,0.0,0.0,0.0,0.0,0.0,0.0,0.0,0.0,0.0,0.0,0.0,0.0,0.0,0.0,0.0,0.0,0.0,0.0,0.0,0.0,0.0,0.0,0.0,0.0,0.0,0.0,0.0,0.0,0.0,0.0,0.0,0.0,0.0,0.0,0.0,0.0,0.0,0.0,0.0,0.0,0.0,0.0,0.0,0.0,0.0,0.0,0.0,0.0,0.0,0.0,0.0,0.0,0.0,0.0,0.0,0.0,0.0,0.0,0.0,0.0,0.0,0.0,0.0,0.0,0.0,0.0,0.0,0.0,0.0,0.0,0.0,0.0,0.0,0.0,0.0,0.0,0.0,0.0,0.0,0.0,0.0,0.0,0.0,0.0,0.0,0.0,0.0,0.0,0.0,0.0,0.0,0.0,0.0,0.0,0.0,0.0,0.0,0.0,0.0,0.0,0.0,0.0,0.0,0.0,0.0,0.0,0.6432,0.6573,0.6543,0.6564,0.636,0.0,0.0,0.0,0.0,0.0,0.0,0.0,0.0,0.0,0.0,0.0,0.0,0.0,0.0,0.0,0.0,0.0,0.0,0.0,0.0,0.0,0.0,0.0,0.0,0.0,0.0,0.0,0.0,0.0,0.0,0.0,0.0,0.0,0.0,0.0,0.0,0.0,0.0,0.0,0.0,0.0,0.0,0.0,0.0,0.0,0.0,0.0,0.0,0.0,0.0,0.0,0.0,0.0,0.0,0.0,0.0,0.0,0.0,0.0,0.0,0.0,0.0,0.0,0.0,0.0,0.0,0.0,0.0,0.0,0.0,0.0,0.0,0.0,0.0,0.0,0.0,0.0,0.0,0.0,0.0,0.0,0.0,0.0,0.0,0.0,0.0,0.0,0.0,0.0,0.0,0.0,0.0,0.0,0.0,0.0,0.0,0.0,0.0,0.0,0.0,0.0,0.0,0.0,0.0,0.0,0.0,0.0,0.0,0.0,0.6462,0.6556,0.659,0.659,0.6448,0.6058,0.0,0.0,0.0,0.0,0.0,0.0,0.0,0.0,0.0,0.0,0.0,0.0,0.0,0.0,0.0,0.0,0.0,0.0,0.0,0.0,0.0,0.0,0.0,0.0,0.0,0.0,0.0,0.0,0.0,0.0,0.0,0.0,0.0,0.0,0.0,0.0,0.0,0.0,0.0,0.0,0.0,0.0,0.0,0.0,0.0,0.0,0.0,0.0,0.0,0.0,0.0,0.0,0.0,0.0,0.0,0.0,0.0,0.0,0.0,0.0,0.0,0.0,0.0,0.0,0.0,0.0,0.0,0.0,0.0,0.0,0.0,0.0,0.0,0.0,0.0,0.0,0.0,0.0,0.0,0.0,0.0,0.0,0.0,0.0,0.0,0.0,0.0,0.0,0.0,0.0,0.0,0.0,0.0,0.0,0.0,0.0,0.0,0.0,0.0,0.0,0.0,0.0,0.0,0.0,0.0,0.0,0.0,0.0,0.0,0.6474,0.0,0.6395,0.0,0.6221,0.5899,0.0,0.0,0.0,0.0,0.0,0.0,0.0,0.0,0.0,0.0,0.0,0.0,0.0,0.0,0.0,0.0,0.0,0.0,0.0,0.0,0.0,0.0,0.0,0.0,0.0,0.0,0.0,0.0,0.0,0.0,0.0,0.0,0.0,0.0,0.0,0.0,0.0,0.0,0.0,0.0,0.0,0.0,0.0,0.0,0.0,0.0,0.0,0.0,0.0,0.0,0.0,0.0,0.0,0.0,0.0,0.0,0.0,0.0,0.0,0.0,0.0,0.0,0.0,0.0,0.0,0.0,0.0,0.0,0.0,0.0,0.0,0.0,0.0,0.0,0.0,0.0,0.0,0.0,0.0,0.0,0.0,0.0,0.0,0.0,0.0,0.0,0.0,0.0,0.0,0.0,0.0,0.0,0.0,0.0,0.0,0.0,0.0,0.0,0.0,0.0,0.0,0.0,0.0,0.0,0.0,0.0,0.0,0.0,0.6453,0.6218,0.6036,0.6007,0.6192,0.5998,0.587,0.0,0.0,0.0,0.0,0.0,0.0,0.0,0.0,0.0,0.0,0.0,0.0,0.0,0.0,0.0,0.0,0.0,0.0,0.0,0.0,0.0,0.0,0.0,0.0,0.0,0.0,0.0,0.0,0.0,0.0,0.0,0.0,0.0,0.0,0.0,0.0,0.0,0.0,0.0,0.0,0.0,0.0,0.0,0.0,0.0,0.0,0.0,0.0,0.0,0.0,0.0,0.0,0.0,0.0,0.0,0.0,0.0,0.0,0.0,0.0,0.0,0.0,0.0,0.0,0.0,0.0,0.0,0.0,0.0,0.0,0.0,0.0,0.0,0.0,0.0,0.0,0.0,0.0,0.0,0.0,0.0,0.0,0.0,0.0,0.0,0.0,0.0,0.0,0.0,0.0,0.0,0.0,0.0,0.0,0.0,0.0,0.0,0.0,0.0,0.0,0.0,0.0,0.0,0.0,0.0,0.0,0.0,0.0,0.0,0.6462,0.6099,0.6,0.6183,0.5835,0.5481,0.0,0.0,0.0,0.0,0.0,0.0,0.0,0.0,0.0,0.0,0.0,0.0,0.0,0.0,0.0,0.0,0.0,0.0,0.0,0.0,0.0,0.0,0.0,0.0,0.0,0.0,0.0,0.0,0.0,0.0,0.0,0.0,0.0,0.0,0.0,0.0,0.0,0.0,0.0,0.0,0.0,0.0,0.0,0.0,0.0,0.0,0.0,0.0,0.0,0.0,0.0,0.0,0.0,0.0,0.0,0.0,0.0,0.0,0.0,0.0,0.0,0.0,0.0,0.0,0.0,0.0,0.0,0.0,0.0,0.0,0.0,0.0,0.0,0.0,0.0,0.0,0.0,0.0,0.0,0.0,0.0,0.0,0.0,0.0,0.0,0.0,0.0,0.0,0.0,0.0,0.0,0.0,0.0,0.0,0.0,0.0,0.0,0.0,0.0,0.0,0.0,0.0,0.0,0.0,0.0,0.0,0.0,0.0,0.0,0.6409,0.5755,0.5487,0.5709,0.5328,0.5126,0.5133,0.0,0.0,0.0,0.0,0.0,0.0,0.0,0.0,0.0,0.0,0.0,0.0,0.0,0.0,0.0,0.0,0.0,0.0,0.0,0.0,0.0,0.0,0.0,0.0,0.0,0.0,0.0,0.0,0.0,0.0,0.0,0.0,0.0,0.0,0.0,0.0,0.0,0.0,0.0,0.0,0.0,0.0,0.0,0.0,0.0,0.0,0.0,0.0,0.0,0.0,0.0,0.0,0.0,0.0,0.0,0.0,0.0,0.0,0.0,0.0,0.0,0.0,0.0,0.0,0.0,0.0,0.0,0.0,0.0,0.0,0.0,0.0,0.0,0.0,0.0,0.0,0.0,0.0,0.0,0.0,0.0,0.0,0.0,0.0,0.0,0.0,0.0,0.0,0.0,0.0,0.0,0.0,0.0,0.0,0.0,0.0,0.0,0.0,0.0,0.0,0.0,0.0,0.0,0.0,0.0,0.0,0.0,0.0,0.6109,0.5063,0.4646,0.4891,0.4683,0.4823,0.0,0.0,0.0,0.0,0.0,0.0,0.0,0.0,0.0,0.0,0.0,0.0,0.0,0.0,0.0,0.0,0.0,0.0,0.0,0.0,0.0,0.0,0.0,0.0,0.0,0.0,0.0,0.0,0.0,0.0,0.0,0.0,0.0,0.0,0.0,0.0,0.0,0.0,0.0,0.0,0.0,0.0,0.0,0.0,0.0,0.0,0.0,0.0,0.0,0.0,0.0,0.0,0.0,0.0,0.0,0.0,0.0,0.0,0.0,0.0,0.0,0.0,0.0,0.0,0.0,0.0,0.0,0.0,0.0,0.0,0.0,0.0,0.0,0.0,0.0,0.0,0.0,0.0,0.0,0.0,0.0,0.0,0.0,0.0,0.0,0.0,0.0,0.0,0.0,0.0,0.0,0.0,0.0,0.0,0.0,0.0,0.0,0.0,0.0,0.0,0.0,0.0,0.0,0.0,0.0,0.0,0.0,0.0,0.0,0.4963,0.4655,0.4636,0.4901,0.493,0.4882,0.0,0.0,0.0,0.0,0.0,0.0,0.0,0.0,0.0,0.0,0.0,0.0,0.0,0.0,0.0,0.0,0.0,0.0,0.0,0.0,0.0,0.0,0.0,0.0,0.0,0.0,0.0,0.0,0.0,0.0,0.0,0.0,0.0,0.0,0.0,0.0,0.0,0.0,0.0,0.0,0.0,0.0,0.0,0.0,0.0,0.0,0.0,0.0,0.0,0.0,0.0,0.0,0.0,0.0,0.0,0.0,0.0,0.0,0.0,0.0,0.0,0.0,0.0,0.0,0.0,0.0,0.0,0.0,0.0,0.0,0.0,0.0,0.0,0.0,0.0,0.0,0.0,0.0,0.0,0.0,0.0,0.0,0.0,0.0,0.0,0.0,0.0,0.0,0.0,0.0,0.0,0.0,0.0,0.0,0.0,0.0,0.0,0.0,0.0,0.0,0.0,0.0,0.0,0.0,0.0,0.0,0.0,0.0,0.5576,0.4947,0.4802,0.4748,0.4728,0.4976,0.4848,0.0,0.0,0.0,0.0,0.0,0.0,0.0,0.0,0.0,0.0,0.0,0.0,0.0,0.0,0.0,0.0,0.0,0.0,0.0,0.0,0.0,0.0,0.0,0.0,0.0,0.0,0.0,0.0,0.0,0.0,0.0,0.0,0.0,0.0,0.0,0.0,0.0,0.0,0.0,0.0,0.0,0.0,0.0,0.0,0.0,0.0,0.0,0.0,0.0,0.0,0.0,0.0,0.0,0.0,0.0,0.0,0.0,0.0,0.0,0.0,0.0,0.0,0.0,0.0,0.0,0.0,0.0,0.0,0.0,0.0,0.0,0.0,0.0,0.0,0.0,0.0,0.0,0.0,0.0,0.0,0.0,0.0,0.0,0.0,0.0,0.0,0.0,0.0,0.0,0.0,0.0,0.0,0.0,0.0,0.0,0.0,0.0,0.0,0.0,0.0,0.0,0.0,0.0,0.0,0.0,0.0,0.0,0.0,0.574,0.543,0.5223,0.4894,0.4523,0.4884,0.4782,0.0,0.0,0.0,0.0,0.0,0.0,0.0,0.0,0.0,0.0,0.0,0.0,0.0,0.0,0.0,0.0,0.0,0.0,0.0,0.0,0.0,0.0,0.0,0.0,0.0,0.0,0.0,0.0,0.0,0.0,0.0,0.0,0.0,0.0,0.0,0.0,0.0,0.0,0.0,0.0,0.0,0.0,0.0,0.0,0.0,0.0,0.0,0.0,0.0,0.0,0.0,0.0,0.0,0.0,0.0,0.0,0.0,0.0,0.0,0.0,0.0,0.0,0.0,0.0,0.0,0.0,0.0,0.0,0.0,0.0,0.0,0.0,0.0,0.0,0.0,0.0,0.0,0.0,0.0,0.0,0.0,0.0,0.0,0.0,0.0,0.0,0.0,0.0,0.0,0.0,0.0,0.0,0.0,0.0,0.0,0.0,0.0,0.0,0.0,0.0,0.0,0.0,0.0,0.0,0.0,0.0,0.0,0.0,0.5559,0.4904,0.5017,0.4904,0.4521,0.4894,0.4782,0.0,0.0,0.0,0.0,0.0,0.0,0.0,0.0,0.0,0.0,0.0,0.0,0.0,0.0,0.0,0.0,0.0,0.0,0.0,0.0,0.0,0.0,0.0,0.0,0.0,0.0,0.0,0.0,0.0,0.0,0.0,0.0,0.0,0.0,0.0,0.0,0.0,0.0,0.0,0.0,0.0,0.0,0.0,0.0,0.0,0.0,0.0,0.0,0.723,0.0,0.0,0.0,0.0,0.0,0.0,0.0,0.0,0.0,0.0,0.0,0.0,0.0,0.0,0.0,0.0,0.0,0.0,0.0,0.0,0.0,0.0,0.0,0.0,0.0,0.0,0.0,0.0,0.0,0.0,0.0,0.0,0.0,0.0,0.0,0.0,0.0,0.0,0.0,0.0,0.0,0.0,0.0,0.0,0.0,0.0,0.0,0.0,0.0,0.0,0.0,0.0,0.0,0.0,0.0,0.0,0.0,0.0,0.0,0.5623,0.5095,0.5095,0.4934,0.4631,0.48,0.4593,0.0,0.0,0.0,0.0,0.0,0.0,0.0,0.0,0.0,0.0,0.0,0.0,0.0,0.0,0.0,0.0,0.0,0.0,0.0,0.0,0.0,0.0,0.0,0.0,0.0,0.0,0.0,0.0,0.0,0.0,0.0,0.0,0.0,0.0,0.0,0.0,0.0,0.0,0.0,0.0,0.0,0.0,0.0,0.0,0.0,0.0,0.0,0.0,0.0,0.0,0.0,0.0,0.0,0.0,0.0,0.0,0.0,0.0,0.0,0.0,0.0,0.0,0.0,0.0,0.0,0.0,0.0,0.0,0.0,0.0,0.0,0.0,0.0,0.0,0.0,0.0,0.0,0.0,0.0,0.0,0.0,0.0,0.0,0.0,0.0,0.0,0.0,0.0,0.0,0.0,0.0,0.0,0.0,0.0,0.0,0.0,0.0,0.0,0.0,0.0,0.0,0.0,0.0,0.0,0.0,0.0,0.0,0.5918,0.5694,0.5389,0.5155,0.4923,0.4706,0.4626,0.4312,0.3767,0.0,0.0,0.0,0.0,0.0,0.0,0.0,0.0,0.0,0.0,0.0,0.0,0.0,0.0,0.0,0.0,0.0,0.0,0.0,0.0,0.0,0.0,0.0,0.0,0.0,0.0,0.0,0.0,0.0,0.0,0.0,0.0,0.0,0.0,0.0,0.0,0.0,0.0,0.7009,0.8138,0.0,0.0,0.0,0.0,0.0,0.0,0.0,0.0,0.8332,0.0,0.0,0.0,0.0,0.0,0.0,0.0,0.0,0.0,0.0,0.0,0.0,0.0,0.0,0.0,0.0,0.0,0.0,0.0,0.0,0.0,0.0,0.0,0.0,0.0,0.0,0.0,0.0,0.0,0.0,0.0,0.0,0.0,0.0,0.0,0.0,0.0,0.0,0.0,0.0,0.0,0.0,0.0,0.0,0.0,0.0,0.0,0.0,0.0,0.0,0.0,0.0,0.0,0.0,0.0,0.0,0.5548,0.5546,0.5314,0.4856,0.4791,0.4736,0.4686,0.4262,0.3973,0.3867,0.0,0.0,0.0,0.0,0.0,0.0,0.0,0.0,0.0,0.0,0.0,0.0,0.0,0.0,0.0,0.0,0.0,0.0,0.0,0.0,0.0,0.0,0.0,0.0,0.0,0.0,0.0,0.0,0.0,0.0,0.0,0.0,0.0,0.0,0.0,0.0,0.0,0.0,0.0,0.8482,0.9277,0.0,0.0,0.0,0.0,0.0,0.0,0.0,0.0,0.7928,0.0,0.0,0.0,0.0,0.0,0.0,0.0,0.0,0.0,0.0,0.0,0.0,0.0,0.0,0.0,0.0,0.0,0.0,0.0,0.0,0.0,0.0,0.0,0.0,0.0,0.0,0.0,0.0,0.0,0.0,0.0,0.0,0.0,0.0,0.0,0.0,0.0,0.0,0.0,0.0,0.0,0.0,0.0,0.0,0.0,0.0,0.0,0.0,0.0,0.0,0.0,0.0,0.0,0.0,0.0,0.5812,0.5408,0.5174,0.5116,0.4848,0.4626,0.4486,0.4109,0.3848,0.0,0.0,0.0,0.0,0.0,0.0,0.0,0.0,0.0,0.0,0.0,0.0,0.0,0.0,0.0,0.0,0.0,0.0,0.0,0.0,0.0,0.0,0.0,0.0,0.0,0.0,0.0,0.0,0.0,0.0,0.0,0.0,0.0,0.0,0.0,0.0,0.0,0.0,0.0,0.0,0.8683,0.9067,0.8365,0.0,0.0,0.0,0.0,0.0,0.0,0.8366,0.8378,0.0,0.0,0.0,0.0,0.0,0.0,0.0,0.0,0.0,0.0,0.0,0.0,0.0,0.0,0.0,0.0,0.0,0.0,0.0,0.0,0.0,0.0,0.0,0.0,0.0,0.0,0.0,0.0,0.0,0.0,0.0,0.0,0.0,0.0,0.0,0.0,0.0,0.0,0.0,0.0,0.0,0.0,0.0,0.0,0.0,0.0,0.0,0.0,0.0,0.0,0.0,0.0,0.0,0.0,0.0,0.6023,0.5245,0.4987,0.53,0.4854,0.4496,0.4222,0.4069,0.3847,0.0,0.0,0.0,0.0,0.0,0.0,0.0,0.0,0.0,0.0,0.0,0.0,0.0,0.0,0.0,0.0,0.0,0.0,0.0,0.0,0.0,0.0,0.0,0.0,0.0,0.0,0.0,0.0,0.0,0.0,0.0,0.0,0.0,0.0,0.0,0.0,0.0,0.0,0.0,0.0,0.0,0.8798,0.8506,0.8848,0.0,0.0,0.0,0.0,0.9111,0.9128,0.0,0.0,0.0,0.0,0.0,0.0,0.0,0.0,0.0,0.0,0.0,0.0,0.0,0.0,0.0,0.0,0.0,0.0,0.0,0.0,0.0,0.0,0.0,0.0,0.0,0.0,0.0,0.0,0.0,0.0,0.0,0.0,0.0,0.0,0.0,0.0,0.0,0.0,0.0,0.0,0.0,0.0,0.0,0.0,0.0,0.0,0.0,0.0,0.0,0.0,0.0,0.0,0.0,0.0,0.0,0.0,0.5545,0.4894,0.4635,0.4767,0.4507,0.4214,0.3949,0.4214,0.4067,0.0,0.0,0.0,0.0,0.0,0.0,0.0,0.0,0.0,0.0,0.0,0.0,0.0,0.0,0.0,0.0,0.0,0.0,0.0,0.0,0.0,0.0,0.0,0.0,0.0,0.0,0.0,0.0,0.0,0.0,0.0,0.0,0.0,0.0,0.0,0.0,0.0,0.0,0.0,0.0,0.0,0.9182,0.7819,0.9359,1.0428,0.0,0.0,0.9872,0.9866,0.9872,0.0,0.0,0.0,0.0,0.0,0.0,0.0,0.0,0.0,0.0,0.0,0.0,0.0,0.0,0.0,0.0,0.0,0.0,0.0,0.0,0.0,0.0,0.0,0.0,0.0,0.0,0.0,0.0,0.0,0.0,0.0,0.0,0.0,0.0,0.0,0.0,0.0,0.0,0.0,0.0,0.0,0.0,0.0,0.0,0.0,0.0,0.0,0.0,0.0,0.0,0.0,0.0,0.0,0.0,0.0,0.4924,0.543,0.4464,0.4182,0.4659,0.4285,0.4024,0.3911,0.388,0.369,0.0,0.0,0.0,0.0,0.0,0.0,0.0,0.0,0.0,0.0,0.0,0.0,0.0,0.0,0.0,0.0,0.0,0.0,0.0,0.0,0.0,0.0,0.0,0.0,0.0,0.0,0.0,0.0,0.0,0.0,0.0,0.0,0.0,0.0,0.0,0.0,0.0,0.0,0.0,0.0,0.0,0.0,0.9234,0.9763,0.0,0.0,0.0,1.092,1.1797,0.0,0.0,0.0,0.0,0.0,0.0,0.0,0.0,0.0,0.0,0.0,0.0,0.0,0.0,0.0,0.0,0.0,0.0,0.0,0.0,0.0,0.0,0.0,0.0,0.0,0.0,0.0,0.0,0.0,0.0,0.0,0.0,0.0,0.0,0.0,0.0,0.0,0.0,0.0,0.0,0.0,0.0,0.0,0.0,0.0,0.0,0.0,0.0,0.0,0.0,0.0,0.0,0.0,0.0,0.0,0.0,0.0,0.526,0.4109,0.3834,0.4461,0.4119,0.3869,0.3807,0.3605,0.0,0.0,0.0,0.0,0.0,0.0,0.0,0.0,0.0,0.0,0.0,0.0,0.0,0.0,0.0,0.0,0.0,0.0,0.0,0.0,0.0,0.0,0.0,0.0,0.0,0.0,0.0,0.3847,0.0,0.0,0.0,0.0,0.0,0.0,0.0,0.0,0.0,0.0,0.0,0.0,0.0,0.0,0.9083,1.0304,1.0304,1.0312,0.0,0.0,1.2094,1.2882,1.181,1.0835,0.0,0.0,0.0,0.0,0.0,0.0,0.0,0.0,0.0,0.0,0.0,0.0,0.0,0.0,0.0,0.0,0.0,0.0,0.0,0.0,0.0,0.0,0.0,0.0,0.0,0.0,0.0,0.0,0.0,0.0,0.0,0.0,0.0,0.0,0.0,0.0,0.0,0.0,0.0,0.0,0.0,0.0,0.0,0.0,0.0,0.0,0.0,0.0,0.0,0.0,0.0,0.0,0.0,0.0,0.0,0.4711,0.3927,0.3632,0.3925,0.3921,0.3772,0.3538,0.3506,0.3372,0.0,0.0,0.0,0.0,0.0,0.0,0.0,0.0,0.0,0.0,0.0,0.0,0.0,0.0,0.0,0.0,0.0,0.0,0.0,0.0,0.0,0.0,0.0,0.0,0.0,0.0,0.0,0.0,0.0,0.0,0.0,0.0,0.0,0.0,0.0,0.0,0.0,0.0,0.0,0.0,0.0,0.952,1.0063,1.1225,1.1821,0.0,0.0,1.3388,1.2207,1.2673,1.2482,1.0406,0.0,0.0,0.0,0.0,0.0,0.0,0.0,0.0,0.0,0.0,0.0,0.0,0.0,0.0,0.0,0.0,0.0,0.0,0.0,0.0,0.0,0.0,0.0,0.0,0.0,0.0,0.0,0.0,0.0,0.0,0.0,0.0,0.0,0.0,0.0,0.0,0.0,0.0,0.0,0.0,0.0,0.0,0.0,0.0,0.0,0.0,0.0,0.0,0.0,0.0,0.0,0.0,0.0,0.4332,0.4687,0.3819,0.3468,0.3657,0.3661,0.344,0.3014,0.3095,0.3036,0.0,0.0,0.0,0.0,0.0,0.0,0.0,0.0,0.0,0.0,0.0,0.0,0.0,0.0,0.0,0.0,0.0,0.0,0.0,0.0,0.0,0.0,0.0,0.0,0.0,0.0,0.0,0.0,0.4373,0.4758,0.4767,0.0,0.0,0.0,0.0,0.0,0.0,0.0,0.0,0.0,0.0,0.9912,1.0135,1.0989,0.0,0.0,1.2742,1.3512,1.3879,1.3234,1.2575,1.2169,1.1536,0.0,0.0,0.0,0.0,0.0,0.0,0.0,0.0,0.0,0.0,0.0,0.0,0.0,0.0,0.0,0.0,0.0,0.0,0.0,0.0,0.0,0.0,0.0,0.0,0.0,0.0,0.0,0.0,0.0,0.0,0.0,0.0,0.0,0.0,0.0,0.0,0.0,0.0,0.0,0.0,0.0,0.0,0.0,0.0,0.0,0.0,0.0,0.0,0.0,0.0,0.0,0.0,0.421,0.4466,0.3603,0.3213,0.3393,0.3307,0.3079,0.2719,0.2693,0.2649,0.0,0.0,0.0,0.0,0.0,0.0,0.0,0.0,0.0,0.0,0.0,0.0,0.0,0.0,0.0,0.0,0.0,0.0,0.0,0.0,0.0,0.0,0.0,0.0,0.0,0.0,0.0,0.0,0.4856,0.531,0.531,0.0,0.0,0.0,0.0,0.0,0.0,0.0,0.0,0.0,0.0,1.0303,1.0903,1.1544,1.2169,1.2677,1.3345,1.4017,1.4629,1.3823,1.3084,1.2967,0.0,0.0,0.0,0.0,0.0,0.0,0.0,0.0,0.0,0.0,0.0,0.0,0.0,0.0,0.0,0.0,0.0,0.0,0.0,0.0,0.0,0.0,0.0,0.0,0.0,0.0,0.0,0.0,0.0,0.0,0.0,0.0,0.0,0.0,0.0,0.0,0.0,0.0,0.0,0.0,0.0,0.0,0.0,0.0,0.0,0.0,0.0,0.0,0.0,0.0,0.0,0.0,0.0,0.0,0.3903,0.3207,0.2916,0.3096,0.2853,0.2708,0.2661,0.2367,0.2221,0.2207,0.0,0.0,0.0,0.0,0.0,0.0,0.0,0.0,0.0,0.0,0.0,0.0,0.0,0.0,0.0,0.0,0.0,0.0,0.0,0.0,0.0,0.0,0.0,0.0,0.0,0.0,0.5213,0.5289,0.5311,0.0,0.0,0.0,0.0,0.0,0.0,0.0,0.0,0.0,0.0,1.0005,1.0751,1.246,1.3298,1.3688,1.3705,1.4782,1.5137,1.3882,1.4415,1.4328,0.0,0.0,0.0,0.0,0.0,0.0,0.0,0.0,0.0,0.0,0.0,0.0,0.0,0.0,0.0,0.0,0.0,0.0,0.0,0.0,0.0,0.0,0.0,0.0,0.0,0.0,0.0,0.4903,0.5243,0.0,0.0,0.0,0.0,0.0,0.0,0.0,0.0,0.0,0.0,0.0,0.6511,0.6407,0.0,0.0,0.0,0.0,0.0,0.0,0.0,0.0,0.0,0.0,0.0,0.0,0.3684,0.3609,0.3037,0.2646,0.251,0.2627,0.2508,0.2109,0.2073,0.1927,0.1624,0.0,0.0,0.0,0.0,0.0,0.0,0.0,0.0,0.0,0.0,0.0,0.0,0.0,0.0,0.0,0.0,0.0,0.0,0.0,0.0,0.0,0.0,0.0,0.0,0.0,0.5413,0.0,0.0,0.0,0.0,0.0,0.0,0.0,0.0,0.0,0.0,0.0,0.8842,0.9785,1.1052,1.2117,1.2726,1.3373,1.3633,0.0,0.0,0.0,0.0,0.0,0.0,0.0,0.0,0.0,0.0,0.0,0.0,0.0,0.0,1.5196,1.2726,1.166,1.1256,1.1603,0.0,0.0,0.0,0.0,0.0,0.0,0.0,0.0,0.0,0.0,0.0,0.0,0.0,0.0,0.0,0.0,0.5369,0.0,0.0,0.0,0.0,0.0,0.0,0.0,0.0,0.6378,0.6389,0.654,0.6415,0.6347,0.0,0.6656,0.6674,0.0,0.0,0.0,0.0,0.0,0.0,0.0,0.0,0.3447,0.3347,0.2863,0.2435,0.2153,0.2252,0.2057,0.1506,0.1665,0.1673,0.1488,0.1685,0.1894,0.0,0.0,0.0,0.0,0.0,0.0,0.0,0.0,0.0,0.0,0.0,0.0,0.0,0.0,0.0,0.0,0.0,0.0,0.0,0.0,0.0,0.0,0.0,0.5711,0.0,0.0,0.0,0.0,0.0,0.0,0.0,0.0,0.0,0.8333,0.8664,0.9294,1.0424,1.1533,1.2532,1.3376,0.0,0.0,0.0,0.0,0.0,0.0,0.0,1.5228,1.5501,1.5201,1.4584,1.3548,1.4274,1.4887,1.4499,0.0,0.0,1.3688,1.2748,1.2315,1.2406,1.2135,1.2073,1.2658,1.2944,1.3134,0.0,0.0,0.0,0.0,0.0,0.0,0.0,0.0,0.3801,0.4388,0.0,0.5328,0.0,0.0,0.0,0.0,0.0,0.0,0.0,0.0,0.6518,0.6749,0.7132,0.7143,0.7154,0.7233,0.7955,0.7564,0.6097,0.5352,0.0,0.0,0.0,0.0,0.0,0.0,0.3324,0.3034,0.257,0.2204,0.1934,0.167,0.1347,0.0922,0.116,0.1438,0.1753,0.1768,0.1906,0.2167,0.1932,0.0,0.0,0.0,0.0,0.0,0.0,0.0,0.0,0.0,0.0,0.0,0.0,0.0,0.0,0.0,0.0,0.0,0.0,0.0,0.0,0.5481,0.0,0.0,0.0,0.0,0.0,0.0,0.0,0.0,0.0,0.0,0.9198,0.9255,0.9875,1.161,0.0,0.0,0.0,0.0,1.5289,1.6398,1.7453,1.7808,1.707,1.7068,1.6736,1.5445,0.0,0.0,1.3431,1.4656,1.5444,1.4376,1.5081,1.5822,1.6049,1.5136,1.4469,1.4455,1.3929,1.398,1.5206,1.5767,1.6512,0.2673,0.0,0.0,0.0,0.0,0.2672,0.3132,0.3815,0.4025,0.4361,0.4811,0.5125,0.0,0.0,0.0,0.0,0.0,0.0,0.6832,0.6718,0.6718,0.6689,0.6635,0.6623,0.6625,0.6633,0.66,0.6338,0.5864,0.4991,0.4663,0.4796,0.0,0.0,0.0,0.0,0.2341,0.2144,0.1622,0.1125,0.0719,0.0648,0.0528,0.0405,0.0807,0.111,0.1292,0.1306,0.1454,0.174,0.1558,0.0,0.0,0.0,0.0,0.0,0.0,0.0,0.0,0.0,0.0,0.0,0.0,0.0,0.0,0.0,0.0,0.0,0.0,0.0,0.5698,0.5628,0.594,0.0,0.0,0.0,0.0,0.0,0.0,0.0,0.0,0.0,1.0134,1.0149,1.0739,0.0,0.0,1.4385,1.5501,1.5936,1.5995,1.556,0.0,0.0,0.0,1.5637,1.5749,1.5652,1.557,1.5544,1.5648,1.5738,1.5678,1.5343,1.5762,1.6076,1.5854,1.5574,1.5295,1.5266,1.5114,1.508,1.5511,1.5791,1.6011,0.21,0.1884,0.2345,0.2458,0.2366,0.2694,0.3051,0.3441,0.3667,0.3994,0.4399,0.4836,0.5072,0.5156,0.5671,0.0,0.0,0.0,0.6653,0.6685,0.6683,0.6681,0.6668,0.6681,0.6589,0.6443,0.6331,0.5977,0.5394,0.5113,0.4542,0.3819,0.0,0.0,0.2971,0.1994,0.1446,0.134,0.0773,0.0263,-0.0135,-0.0307,-0.0331,-0.0163,0.0125,0.0437,0.0819,0.0947,0.1173,0.1464,0.1494,0.1767,0.0,0.0,0.0,0.0,0.0,0.0,0.0,0.0,0.0,0.0,0.0,0.2924,0.2908,0.0,0.0,0.0,0.4203,0.5028,0.5653,0.5712,0.0,0.0,0.0,0.0,0.0,0.0,0.0,0.934,0.9566,0.9903,1.0728,1.1029,1.164,1.2842,1.371,1.4519,1.5294,0.0,1.5903,1.5491,1.6081,1.6398,1.6009,1.5853,1.5817,1.5797,1.5814,1.5918,1.6234,1.6039,1.5829,1.5843,1.6065,1.6216,1.5999,1.6014,1.5949,1.5681,1.5842,1.6028,1.6045,1.6272,1.6475,0.1191,0.1378,0.3345,0.3245,0.1912,0.3131,0.3284,0.2707,0.3012,0.3466,0.4015,0.4539,0.505,0.5554,0.6416,0.0,0.0,0.5987,0.6393,0.6507,0.6456,0.6646,0.7049,0.7004,0.6783,0.6439,0.6708,0.6106,0.4825,0.5297,0.4466,0.2343,0.2387,0.2299,0.2013,0.1116,0.0598,0.0532,-0.0016,-0.0475,-0.08,-0.1175,-0.1175,-0.0795,-0.0741,-0.04,0.0302,0.0653,0.097,0.1264,0.1608,0.1797,0.1809,0.0,0.0,0.0,0.0,0.0,0.0,0.0,0.0,0.0,0.0,0.0,0.0,0.0,0.0,0.0,0.4155,0.0,0.5053,0.5734,0.0,0.0,0.0,0.7531,0.792,0.8172,0.856,0.9242,0.0,0.0,0.0,0.0,1.2442,1.2606,1.2857,1.3393,1.4337,1.4828,1.5286,1.5702,1.6638,1.7298,1.6923,1.6562,1.6039,1.5604,1.5694,1.5679,1.5709,1.5814,1.5799,1.5814,1.6065,1.6282,1.6291,1.6502,1.6523,1.5856,1.626,1.6741,1.6796,1.7147,1.7445,0.0401,0.0444,0.1837,0.2023,0.1486,0.2246,0.2486,0.2399,0.3265,0.3718,0.3865,0.4302,0.4572,0.4694,0.504,0.5125,0.5084,0.5564,0.6051,0.6473,0.6016,0.611,0.6602,0.618,0.5922,0.581,0.5479,0.4961,0.4278,0.4005,0.3054,0.1464,0.1082,0.0901,0.0808,0.0279,-0.0204,-0.0651,-0.1065,-0.1394,-0.1676,-0.1788,-0.1738,-0.1526,-0.1198,-0.0757,-0.0224,0.0078,0.0451,0.0977,0.1514,0.1681,0.1452,0.2305,0.0,0.0,0.0,0.0,0.0,0.0,0.0,0.0,0.0,0.3713,0.3658,0.0,0.3869,0.0,0.4743,0.4974,0.5095,0.5443,0.0,0.0,0.7295,0.7756,0.9212,0.8747,0.8836,1.0184,1.0561,1.0881,1.1389,1.2015,1.2279,1.1961,1.3281,1.4279,1.4132,1.4476,1.4618,1.4238,1.4311,1.4427,1.4739,1.4619,1.4471,1.4303,1.4692,1.5033,1.5041,1.5466,1.5814,1.5814,1.5858,1.6015,1.6202,1.6374,1.6459,1.6503,1.6846,1.7247,1.7485,1.7093,1.6714,-0.0516,-0.033,0.037,0.0683,0.0763,0.1586,0.1885,0.1863,0.2426,0.2682,0.2739,0.3616,0.415,0.4423,0.4677,0.4755,0.4752,0.4971,0.535,0.5793,0.5492,0.5388,0.5425,0.51,0.47,0.4243,0.3962,0.3452,0.2767,0.2469,0.1449,-0.0258,-0.0553,-0.114,-0.2038,-0.175,-0.1872,-0.2475,-0.2709,-0.2871,-0.2895,-0.2689,-0.2513,-0.2369,-0.2008,-0.1562,-0.1045,-0.0625,-0.0153,0.0407,0.1292,0.1645,0.1343,0.2374,0.3273,0.0,0.0,0.0,0.0,0.0,0.0,0.0,0.0,0.0,0.0,0.0,0.4086,0.0,0.5085,0.0,0.5808,0.6202,0.6767,0.7583,0.7702,0.8141,0.9169,0.9119,0.9479,1.0682,1.0998,1.1161,1.1339,1.1738,1.1823,1.1286,1.247,1.3246,1.3003,1.3282,1.3419,1.2994,1.3003,1.3207,1.3528,1.3574,1.3627,1.3787,1.4096,1.4348,1.4367,1.4651,1.492,1.4912,1.4913,1.4973,1.5161,1.5443,1.5728,1.6087,1.6543,1.696,1.726,1.6673,1.6179,-0.1475,-0.1097,-0.0914,-0.0606,-0.0137,0.0859,0.1268,0.1248,0.1333,0.1355,0.1453,0.2816,0.3703,0.4181,0.4548,0.4514,0.4186,0.4104,0.4283,0.4691,0.4629,0.4352,0.3917,0.3844,0.3301,0.2409,0.2357,0.1806,0.0737,0.0712,-0.0327,-0.2234,-0.2371,-0.3418,-0.5289,-0.4392,-0.4006,-0.4253,-0.4346,-0.4278,-0.4039,-0.3707,-0.3391,-0.3192,-0.2945,-0.2516,-0.1909,-0.1338,-0.0804,-0.0265,0.098,0.1578,0.1416,0.2646,0.3687,0.0,0.407,0.0,0.0,0.0,0.0,0.0,0.0,0.0,0.0,0.3844,0.4641,0.5471,0.5402,0.573,0.6655,0.7175,0.7436,0.7436,0.8046,0.853,0.8712,0.9486,1.0252,1.0883,1.1339,1.1437,1.1048,1.1274,1.1274,1.0871,1.1113,1.1496,1.153,1.1821,1.2027,1.1995,1.2361,1.2733,1.3074,1.3239,1.3417,1.3719,1.3959,1.3904,1.4015,1.4099,1.4109,1.4044,1.4165,1.4144,1.3958,1.453,1.5057,1.5404,1.5825,1.6253,1.6642,1.6251,1.5983,-0.228,-0.2174,-0.1761,-0.154,-0.1404,-0.0716,0.0115,0.1008,0.1498,0.1707,0.1749,0.2518,0.2921,0.3037,0.3098,0.3077,0.2996,0.2519,0.2603,0.3107,0.2641,0.2619,0.2933,0.2469,0.1884,0.125,0.1106,0.0266,-0.1257,-0.1371,-0.2273,-0.3911,-0.4392,-0.5296,0.0,0.0,0.0,0.0,-0.4464,-0.4372,-0.4336,-0.4505,-0.4305,-0.3694,-0.3461,0.0,-0.2407,-0.1982,-0.1414,-0.0628,0.0463,0.0,0.0,0.0,0.0,0.0,0.0,0.0,0.0,0.0,0.0,0.0,0.4005,0.4115,0.4093,0.4781,0.5375,0.5735,0.6239,0.6528,0.6489,0.656,0.6871,0.7494,0.8045,0.8728,0.9753,1.0326,1.0684,1.0753,1.1249,1.1387,1.0856,1.0833,1.0833,1.0695,1.0419,1.042,1.0845,1.0982,1.0933,1.0847,1.1501,1.2066,1.2427,1.2917,1.3327,1.374,1.4288,1.4552,1.4558,1.5002,1.5146,1.4695,1.5043,1.5165,1.4679,1.5168,1.5555,1.5674,1.5386,1.544,1.6517,1.6041,1.5499,-0.3202,0.0,-0.2402,-0.2027,0.0,-0.1483,-0.1014,-0.037,0.0527,0.1063,0.1381,0.1675,0.1972,0.2251,0.2253,0.2269,0.2223,0.1945,0.1963,0.2216,0.1687,0.1457,0.1443,0.0841,0.0107,-0.0706,-0.09,-0.1689,-0.304,-0.3423,-0.4285,-0.5664,-0.6472,-0.7424,-0.8544,-0.8722,-0.7894,-0.6101,-0.5763,-0.554,-0.5435,-0.5189,-0.4871,-0.451,0.0,0.0,0.0,0.0,0.0,0.0,0.0,0.0,0.0,0.0,0.0,0.388,0.3692,0.3561,0.3603,0.391,0.4063,0.4001,0.4261,0.4441,0.4529,0.4894,0.5297,0.5767,0.673,0.7262,0.7079,0.7418,0.7861,0.8254,0.8674,0.9211,0.9841,1.044,1.0704,1.0606,1.1161,1.1303,1.0556,1.061,1.0555,1.0369,1.0319,1.0407,1.0632,1.0704,1.0724,1.0946,1.1314,1.1774,1.2102,1.2591,1.3102,1.3464,1.3949,1.4263,1.4307,1.4569,1.4691,1.4386,1.4597,1.4664,1.447,1.4841,1.5305,1.532,1.5305,1.5463,1.6154,1.5626,1.5194,-0.4165,-0.3785,-0.3219,-0.2697,-0.2253,-0.2133,-0.1997,-0.1716,0.0,0.0,0.0,0.0755,0.1115,0.1492,0.147,0.1465,0.1458,0.1267,0.1182,0.1138,0.0785,0.0362,-0.0146,-0.0683,-0.1479,-0.2483,-0.2791,-0.3562,-0.4765,-0.5264,-0.6154,-0.7397,-0.8266,-0.9173,-1.0137,-0.9901,-0.9159,-0.797,-0.7296,-0.686,-0.6695,-0.6027,-0.5575,-0.5317,-0.4521,-0.3861,-0.3369,-0.2773,-0.2132,-0.146,-0.0721,0.0273,0.1545,0.205,0.2618,0.3362,0.3654,0.3753,0.3702,0.3943,0.412,0.4199,0.4475,0.4706,0.4882,0.4829,0.5132,0.5908,0.7142,0.7861,0.7801,0.8509,0.9004,0.9004,0.9298,0.9512,0.9628,1.0172,1.0446,1.031,1.0772,1.0905,1.0071,1.0323,1.0474,1.0151,1.0503,1.0911,1.0955,1.0981,1.1055,1.1457,1.168,1.188,1.2169,1.2651,1.3038,1.3612,1.3897,1.405,1.4141,1.4154,1.412,1.4111,1.4056,1.4175,1.4077,1.4616,1.4932,1.4975,1.541,1.5814,1.5769,1.5365,1.5213,-0.5102,-0.5038,-0.4945,-0.4568,-0.4007,-0.3483,-0.2708,-0.1763,-0.1073,-0.1003,-0.1337,0.023,0.0664,0.0245,0.0267,0.0266,0.0176,-0.0839,-0.1303,0.0,-0.1227,-0.1271,-0.136,-0.1662,-0.2173,-0.2846,-0.3499,-0.4638,-0.6081,-0.6559,-0.7521,-0.8899,-0.9264,-0.9678,-1.0186,-0.9798,-0.9468,-0.9288,-0.8111,-0.7482,-0.7454,-0.7561,-0.7022,-0.5886,-0.5874,-0.5144,-0.3616,-0.3456,-0.2937,-0.1949,-0.1208,-0.0243,0.0941,0.157,0.2224,0.298,0.2956,0.312,0.3648,0.3652,0.3981,0.4862,0.5289,0.544,0.5246,0.5208,0.5632,0.6569,0.7586,0.8202,0.8189,0.8674,0.9018,0.9014,0.9065,0.9231,0.9611,0.976,0.9814,0.9716,0.9792,0.9712,0.9272,0.9791,1.0286,1.0302,1.0924,1.1627,1.1917,1.1759,1.1533,1.1637,1.1997,1.2393,1.2753,1.3335,1.387,1.4711,1.4789,1.4921,1.522,1.5335,1.5164,1.4761,1.5048,1.517,1.4786,1.521,1.5529,1.5574,1.5724,1.5814,1.5814,1.5679,1.5649,-0.5809,-0.5739,-0.5432,-0.513,-0.4848,-0.4252,-0.3876,-0.3621,-0.2703,-0.2097,-0.1708,-0.093,-0.0722,-0.0956,-0.0979,-0.0967,-0.1011,-0.1549,-0.1809,-0.1826,-0.2302,-0.2526,-0.2597,-0.3326,-0.3914,-0.4338,-0.4941,-0.5732,-0.6649,-0.7323,-0.8136,-0.9108,-1.0174,-1.0734,-1.0667,-1.0683,-1.0578,-1.0325,-0.8765,-0.7965,-0.8033,-0.793,-0.7419,-0.6456,-0.636,-0.5627,-0.4196,-0.3943,-0.3348,-0.2318,-0.1654,-0.0793,0.0246,0.119,0.1943,0.2534,0.2774,0.3159,0.3711,0.3894,0.4202,0.4674,0.4877,0.5166,0.5498,0.5681,0.6058,0.6738,0.7436,0.8001,0.8476,0.8986,0.929,0.9312,0.931,0.9318,0.9308,0.9284,0.9182,0.9014,0.9061,0.9078,0.8887,0.9655,1.0299,1.0534,1.1403,1.2197,1.2733,1.2623,1.2469,1.2497,1.2679,1.2872,1.3096,1.3556,1.4022,1.442,1.483,1.5137,1.5418,1.5578,1.5637,1.5431,1.5607,1.5664,1.5344,1.5557,1.5769,1.5814,1.5814,1.5814,1.5814,1.5814,1.5814,-0.6954,-0.6765,-0.6315,-0.5958,-0.5654,-0.5071,-0.5071,-0.5383,-0.45,-0.362,-0.2803,-0.2268,-0.2006,-0.2006,-0.2006,-0.1992,-0.2042,-0.2265,-0.2394,-0.2485,-0.3305,-0.3771,-0.3967,-0.4923,-0.5529,-0.5919,-0.6579,-0.7088,-0.7555,-0.838,-0.8973,-0.9409,-1.0847,-1.134,-1.0821,-1.116,-1.1126,-1.0612,-0.9226,-0.8613,-0.8825,-0.8435,-0.7903,-0.7273,-0.6904,-0.6172,-0.5057,-0.4442,-0.3738,-0.2888,-0.2183,-0.1363,-0.0406,0.0626,0.149,0.213,0.2634,0.3125,0.3609,0.4118,0.4385,0.4375,0.4452,0.4896,0.5699,0.6011,0.6346,0.6796,0.7139,0.7652,0.8318,0.8888,0.9239,0.9306,0.9234,0.9066,0.8894,0.8721,0.8603,0.8432,0.8588,0.8763,0.904,0.9794,1.0672,1.1403,1.1997,1.2605,1.3076,1.3116,1.3064,1.3181,1.321,1.319,1.3245,1.3463,1.3752,1.3865,1.439,1.4807,1.5052,1.5373,1.5607,1.5622,1.5652,1.5666,1.5769,1.5799,1.5814,1.5814,1.5814,1.5814,1.5814,1.5814,1.5814,-0.9172,-0.8676,-0.8524,-0.7926,-0.6884,-0.6277,-0.6057,-0.6129,-0.599,-0.5923,-0.5477,-0.3569,-0.2694,-0.2627,-0.2677,-0.2684,-0.2758,-0.3683,-0.4115,-0.4181,-0.4686,-0.518,-0.5599,-0.604,-0.6473,-0.7042,-0.8129,-0.8867,-0.9365,-1.0185,-1.0649,-1.071,-1.0901,-1.0792,-1.03,-1.0282,-1.0119,-0.9747,-0.9498,-0.9654,-1.0148,-0.9711,-0.906,-0.8304,-0.8085,-0.7434,-0.6046,-0.5107,-0.4328,-0.3841,-0.2921,-0.193,-0.0931,-0.0318,0.064,0.206,0.2272,0.254,0.3157,0.3923,0.4311,0.4284,0.4546,0.5132,0.5952,0.5991,0.6232,0.679,0.6996,0.72,0.7509,0.8021,0.8411,0.8503,0.8272,0.8096,0.8377,0.8052,0.796,0.8362,0.8475,0.8588,0.9084,1.0132,1.141,1.2436,1.2454,1.2617,1.2995,1.289,1.2838,1.3112,1.321,1.321,1.3215,1.3215,1.3459,1.3802,1.3937,1.4308,1.474,1.4834,1.4819,1.5403,1.5446,1.5373,1.5637,1.5814,1.5814,1.5814,1.5814,1.5814,1.5814,1.5814,1.5814,-0.974,-0.9466,-0.9059,-0.8398,-0.7535,-0.6972,-0.69,-0.7164,-0.6876,-0.6726,-0.6631,-0.5687,-0.4983,-0.4492,-0.4322,-0.4252,-0.4273,-0.4713,-0.4935,-0.5034,-0.5828,-0.6342,-0.6604,-0.7378,-0.7899,-0.8259,-0.9004,-0.9532,-0.9939,-1.0647,-1.101,-1.1079,-1.1566,-1.1606,-1.1153,-1.1027,-1.0923,-1.082,-1.0114,-0.993,-1.0195,-0.9589,-0.8649,-0.767,-0.7725,-0.7014,-0.5497,-0.4931,-0.4403,-0.3638,-0.2956,-0.2261,-0.1458,-0.058,0.0538,0.1845,0.2312,0.2767,0.335,0.3324,0.3398,0.3633,0.3778,0.4132,0.4838,0.5293,0.5785,0.627,0.6572,0.6829,0.7149,0.7493,0.7787,0.79,0.7911,0.8017,0.8249,0.8133,0.819,0.8655,0.876,0.8906,0.9404,1.0327,1.1354,1.2241,1.2372,1.255,1.2758,1.2846,1.3007,1.3146,1.321,1.321,1.321,1.321,1.3318,1.3463,1.3719,1.4109,1.4262,1.4538,1.4644,1.5007,1.5016,1.5082,1.5329,1.5652,1.5814,1.5814,1.5814,1.5814,1.5814,1.5814,1.5814,-1.0718,-1.0333,-0.9715,-0.9152,-0.8636,-0.8094,-0.807,-0.8303,-0.7813,-0.7561,-0.7555,-0.7486,-0.7194,-0.6661,-0.5921,-0.5588,-0.5673,-0.5799,-0.5907,-0.6107,-0.7141,-0.7755,-0.796,-0.8847,-0.9464,-0.9795,-1.0231,-1.0551,-1.0843,-1.1346,-1.1605,-1.1587,-1.2018,-1.2106,-1.1768,-1.1645,-1.1576,-1.1403,-1.0487,-0.9992,-0.9875,-0.9158,-0.8293,-0.7415,-0.7498,-0.6861,-0.5355,-0.4968,-0.4464,-0.3709,-0.313,-0.2475,-0.1767,-0.0908,0.0216,0.1595,0.2304,0.2887,0.341,0.2953,0.2832,0.3231,0.3199,0.3435,0.4014,0.4482,0.505,0.5826,0.6336,0.6748,0.6865,0.706,0.7236,0.7388,0.7573,0.7784,0.8132,0.821,0.8446,0.9029,0.918,0.9379,0.9938,1.0594,1.1242,1.1763,1.1975,1.2264,1.2418,1.2686,1.2838,1.3146,1.321,1.321,1.321,1.321,1.321,1.3267,1.3514,1.3717,1.3805,1.411,1.4377,1.4578,1.4699,1.484,1.4975,1.53,1.5712,1.5785,1.5814,1.5814,1.5814,1.5814,1.5814,-1.2888,-1.1644,-1.099,-1.0622,-1.0579,-0.9911,-0.9644,-0.9625,-0.9004,-0.8718,-0.871,-0.8489,-0.8679,-0.8994,-0.7212,-0.6345,-0.6626,-0.7128,-0.7478,-0.7829,-0.88,-0.9552,-1.0089,-1.0578,-1.1079,-1.1571,-1.1939,-1.2436,-1.2903,-1.2959,-1.2781,-1.2373,-1.2093,-1.1798,-1.1753,-1.1738,-1.1449,-1.1154,-1.0555,-0.9889,-0.9243,-0.8679,-0.8368,-0.8188,-0.7825,-0.7263,-0.6644,-0.538,-0.4551,-0.4513,-0.3571,-0.2643,-0.1759,-0.1504,-0.0476,0.1346,0.2135,0.2668,0.303,0.2988,0.305,0.3238,0.3235,0.3566,0.4097,0.3709,0.4099,0.5553,0.6459,0.6854,0.6692,0.6711,0.6763,0.6867,0.6877,0.7308,0.8088,0.8229,0.8629,0.9322,0.9555,0.9866,1.0724,1.096,1.1169,1.146,1.1375,1.1435,1.2206,1.2152,1.2378,1.2973,1.321,1.321,1.321,1.321,1.321,1.3232,1.3318,1.3421,1.3514,1.3689,1.3931,1.4102,1.4152,1.4287,1.4543,1.4891,1.5359,1.558,1.577,1.5814,1.5814,1.5814,1.5814,-1.302,-1.1783,-1.155,-1.1191,-1.0788,-1.0542,-1.044,-1.0407,-1.0185,-1.009,-1.0067,-0.9984,-1.0056,-1.0249,-0.9502,-0.9006,-0.8799,-0.8935,-0.928,-0.9822,-1.0555,-1.1182,-1.1704,-1.1908,-1.223,-1.2714,-1.2847,-1.314,-1.3585,-1.3626,-1.3535,-1.3376,-1.3205,-1.3093,-1.3,-1.268,-1.2298,-1.1851,-1.1066,-1.034,-0.987,-0.9387,-0.878,-0.7896,-0.7248,-0.6439,-0.5488,-0.473,-0.4225,-0.398,-0.3403,-0.2769,-0.1995,-0.1014,0.0,0.1021,0.1353,0.1714,0.2177,0.2186,0.2325,0.2749,0.3031,0.3272,0.347,0.3322,0.3727,0.5135,0.6367,0.6906,0.6867,0.6707,0.6625,0.6667,0.6842,0.7218,0.7878,0.8315,0.8791,0.9418,0.9791,1.0213,1.0436,1.0563,1.064,1.0812,1.0924,1.1327,1.1884,1.2131,1.2443,1.3007,1.321,1.321,1.321,1.321,1.321,1.321,1.3262,1.3279,1.3369,1.3391,1.3577,1.3674,1.3676,1.3916,1.4238,1.4639,1.5073,1.5566,1.5756,1.5697,1.5814,1.577,1.5785,-1.345,-1.2521,-1.2438,-1.207,-1.1484,-1.1208,-1.1124,-1.1091,-1.0889,-1.0813,-1.0813,-1.0813,-1.0914,-1.1091,-1.1141,-1.1228,-1.1122,-1.0642,-1.0615,-1.1154,-1.185,-1.2404,-1.281,-1.3171,-1.3595,-1.3989,-1.3941,-1.3916,-1.3885,-1.3885,-1.3885,-1.3871,-1.3885,-1.3885,-1.3822,-1.3478,-1.3084,-1.2551,-1.1499,-1.0764,-1.0486,-0.9618,-0.8651,-0.7668,-0.6949,-0.614,-0.5156,-0.4619,-0.4215,-0.3898,-0.3403,-0.2769,-0.1974,-0.085,0.0232,0.0977,0.0947,0.1181,0.1793,0.1844,0.2001,0.2469,0.2896,0.3169,0.3239,0.3246,0.3886,0.5013,0.5996,0.6698,0.6924,0.684,0.6734,0.6747,0.6886,0.7259,0.7829,0.8362,0.9002,0.9649,1.005,1.0273,1.0322,1.0322,1.0341,1.0322,1.0592,1.1012,1.1675,1.2057,1.2514,1.3047,1.321,1.321,1.321,1.3223,1.3235,1.3248,1.321,1.321,1.3278,1.3265,1.33,1.33,1.3424,1.3672,1.4003,1.4406,1.4902,1.5448,1.5522,1.5448,1.5566,1.5697,1.5743,-1.4329,-1.3779,-1.3768,-1.3338,-1.273,-1.2082,-1.1816,-1.1724,-1.12,-1.1049,-1.1099,-1.0948,-1.135,-1.1715,-1.1888,-1.2512,-1.3114,-1.2071,-1.1641,-1.2019,-1.286,-1.3342,-1.3519,-1.442,-1.5094,-1.5575,-1.552,-1.494,-1.4169,-1.4037,-1.3964,-1.3924,-1.3947,-1.3937,-1.3901,-1.3851,-1.3646,-1.2913,-1.1767,-1.1103,-1.0882,-0.9355,-0.8229,-0.7694,-0.7145,-0.664,-0.6177,-0.5137,-0.4549,-0.4422,-0.3624,-0.2637,-0.1759,-0.1083,-0.0177,0.1038,0.0976,0.1187,0.1958,0.212,0.2181,0.2553,0.2998,0.3381,0.3497,0.3618,0.4119,0.5091,0.5775,0.6283,0.6867,0.6973,0.6953,0.6993,0.6993,0.7231,0.7767,0.8357,0.909,0.9971,1.0303,1.0303,1.0322,1.0322,1.0322,1.0322,1.0361,1.0755,1.1615,1.1945,1.2275,1.2987,1.3466,1.3641,1.3441,1.3235,1.329,1.3303,1.3235,1.324,1.34,1.3456,1.3612,1.3629,1.3539,1.3775,1.4058,1.4408,1.4587,1.5002,1.5052,1.5333,1.5565,1.5728,1.5707,-1.496,-1.4376,-1.398,-1.3708,-1.3433,-1.2827,-1.2535,-1.2525,-1.2314,-1.223,-1.223,-1.2255,-1.2353,-1.2623,-1.2982,-1.3598,-1.4277,-1.3836,-1.3877,-1.4327,-1.4688,-1.5022,-1.5444,-1.5829,-1.6217,-1.6533,-1.624,-1.5889,-1.5451,-1.4772,-1.4462,-1.443,-1.4351,-1.4179,-1.3947,-1.4117,-1.3838,-1.2737,-1.197,-1.1431,-1.0972,-0.9772,-0.8879,-0.8365,-0.7834,-0.7297,-0.6713,-0.5361,-0.4641,-0.4589,-0.3632,-0.2653,-0.175,-0.1153,-0.0459,0.033,0.0351,0.0522,0.1216,0.1726,0.2148,0.2616,0.3172,0.3484,0.3656,0.406,0.4596,0.5303,0.6097,0.6782,0.6937,0.6993,0.6993,0.6993,0.6993,0.7084,0.7468,0.8144,0.9119,1.0059,1.0322,1.0322,1.0303,1.0312,1.0342,1.0342,1.0361,1.0739,1.1593,1.214,1.274,1.3617,1.3932,1.4212,1.4099,1.4023,1.4036,1.3898,1.3692,1.3629,1.3745,1.3841,1.3962,1.3986,1.3904,1.3933,1.4211,1.4381,1.456,1.4864,1.5186,1.5472,1.5716,1.582,1.5821,-1.5599,-1.5005,-1.4641,-1.4179,-1.3826,-1.361,-1.343,-1.3286,-1.3467,-1.3563,-1.3563,-1.3563,-1.3563,-1.3658,-1.3967,-1.4435,-1.4937,-1.5016,-1.5354,-1.5842,-1.5906,-1.6114,-1.6595,-1.7163,-1.7353,-1.7309,-1.6912,-1.6522,-1.6247,-1.5326,-1.4839,-1.4932,-1.4718,-1.4453,-1.4196,-1.4208,-1.3676,-1.2591,-1.2029,-1.1553,-1.0876,-0.9815,-0.9047,-0.8655,-0.7959,-0.7405,-0.691,-0.5615,-0.4863,-0.4684,-0.385,-0.2859,-0.1968,-0.1348,-0.0716,0.0,0.0,0.0286,0.0865,0.1513,0.194,0.2408,0.3126,0.3578,0.3711,0.4228,0.4766,0.5346,0.6103,0.6774,0.6937,0.6993,0.6993,0.6993,0.6993,0.7189,0.7579,0.8247,0.9119,0.9961,1.0322,1.0322,1.0312,1.0479,1.0498,1.0527,1.0674,1.1015,1.1842,1.2463,1.3233,1.3928,1.4361,1.4606,1.4808,1.4821,1.4833,1.4595,1.4287,1.4293,1.4337,1.438,1.4446,1.4516,1.4447,1.4399,1.4619,1.4523,1.4623,1.4981,1.5366,1.5483,1.5676,1.594,1.5989,-1.6173,-1.5676,-1.5576,-1.4926,-1.4097,-1.4422,-1.4294,-1.398,-1.4376,-1.456,-1.4617,-1.4525,-1.4583,-1.4663,-1.4675,-1.5073,-1.5554,-1.5632,-1.5952,-1.642,-1.6566,-1.6689,-1.6998,-1.8074,-1.8397,-1.8072,-1.764,-1.7098,-1.6578,-1.5622,-1.5152,-1.5378,-1.501,-1.4712,-1.4599,-1.4177,-1.3489,-1.2597,-1.1991,-1.1442,-1.0886,-0.95,-0.8716,-0.8663,-0.7662,-0.7042,-0.6833,-0.587,-0.5198,-0.5055,-0.4057,-0.3178,-0.2384,-0.1612,-0.0664,0.0,0.0,0.0,0.0871,0.147,0.1873,0.2097,0.2993,0.36,0.3667,0.4202,0.4783,0.5281,0.598,0.6541,0.6894,0.6993,0.6993,0.6993,0.6993,0.7454,0.8464,0.8675,0.9199,1.001,1.0312,1.0361,1.044,1.0732,1.0898,1.1006,1.1242,1.1648,1.2184,1.2767,1.3415,1.408,1.4774,1.5212,1.5487,1.5487,1.55,1.5417,1.5116,1.5035,1.5009,1.5011,1.5131,1.5155,1.5021,1.4976,1.4906,1.4821,1.4935,1.5309,1.5492,1.5505,1.5725,1.6074,1.6289,-1.6402,-1.6216,-1.5798,-1.5432,-1.5096,-1.4846,-1.464,-1.4491,-1.4629,-1.4801,-1.4732,-1.4709,-1.4789,-1.4766,-1.5208,-1.5664,-1.6123,-1.6235,-1.657,-1.7084,-1.749,-1.7886,-1.8196,-1.8636,-1.9026,-1.9034,-1.8557,-1.8177,-1.7576,-1.6518,-1.5944,-1.5629,-1.54,-1.5114,-1.4826,-1.4248,-1.3496,-1.2567,-1.1658,-1.1042,-1.0419,-0.9366,-0.8716,-0.8594,-0.7614,-0.7027,-0.6894,-0.5905,-0.4853,-0.41,-0.3799,-0.3243,-0.2415,-0.1142,0.0,0.0,0.0,0.0269,0.0873,0.1451,0.1964,0.2475,0.3126,0.36,0.3648,0.4508,0.5048,0.5475,0.6167,0.6836,0.6971,0.7026,0.702,0.6993,0.7053,0.7482,0.8435,0.8736,0.9119,1.0088,1.0556,1.0752,1.0918,1.1183,1.1398,1.1428,1.1589,1.1816,1.2397,1.3259,1.3993,1.4674,1.5334,1.5815,1.6132,1.6132,1.6145,1.6195,1.6011,1.5844,1.5806,1.5789,1.5969,1.6126,1.5657,1.5499,1.533,1.518,1.5444,1.5689,1.5694,1.5772,1.61,1.6424,1.6601,-1.6689,-1.6491,-1.6397,-1.6048,-1.5657,-1.5747,-1.5554,-1.5198,-1.5354,-1.5466,-1.5444,-1.5444,-1.5588,-1.5796,-1.5952,-1.6425,-1.7024,-1.6917,-1.7126,-1.7605,-1.7913,-1.8463,-1.8987,-1.9043,-1.9062,-1.9262,-1.8822,-1.8235,-1.7719,-1.7096,-1.6588,-1.6076,-1.5727,-1.5322,-1.4828,-1.4274,-1.3508,-1.2569,-1.1812,-1.1216,-1.0431,-0.9588,-0.8916,-0.8514,-0.7652,-0.7017,-0.6319,-0.5626,-0.477,-0.3884,-0.3578,-0.3376,-0.2815,-0.1031,0.0,0.0,0.0,0.0269,0.0873,0.1474,0.2075,0.2652,0.3258,0.3663,0.405,0.4873,0.5511,0.5947,0.6802,0.7277,0.7386,0.7386,0.7379,0.7406,0.7379,0.7801,0.8847,0.9076,0.9663,1.0497,1.1046,1.1201,1.1318,1.1643,1.1809,1.1907,1.2083,1.2289,1.2645,1.3638,1.4427,1.4948,1.5626,1.6156,1.6346,1.6346,1.6333,1.6412,1.64,1.63,1.6287,1.6283,1.635,1.6373,1.617,1.5991,1.5803,1.5731,1.5923,1.6057,1.6019,1.6086,1.6375,1.6513,1.6744,-1.7034,-1.6538,-1.7191,-1.6839,-1.6094,-1.6975,-1.6778,-1.6034,-1.632,-1.6539,-1.6504,-1.6495,-1.6667,-1.7342,-1.6667,-1.7021,-1.7993,-1.7422,-1.7706,-1.7987,-1.8243,-1.8588,-1.9314,-1.8912,-1.8765,-1.8746,-1.8308,-1.7867,-1.749,-1.7293,-1.6988,-1.646,-1.599,-1.5483,-1.4953,-1.4328,-1.3435,-1.2605,-1.2003,-1.1367,-1.0551,-0.9787,-0.9046,-0.8438,-0.7674,-0.6706,-0.5815,-0.5205,-0.4675,-0.353,-0.3556,-0.3464,-0.3129,-0.1119,0.0,0.0,0.0,0.0269,0.085,0.1474,0.2085,0.27,0.3293,0.3787,0.431,0.5102,0.5879,0.6258,0.7348,0.7729,0.7819,0.7866,0.7826,0.7806,0.7866,0.8382,0.9179,0.9597,1.0202,1.1404,1.1623,1.1653,1.1809,1.2012,1.2295,1.2318,1.2484,1.2614,1.301,1.3814,1.4382,1.4722,1.5518,1.642,1.6488,1.6488,1.6475,1.6488,1.6475,1.6437,1.6437,1.6425,1.6463,1.6432,1.6296,1.6296,1.632,1.6337,1.6375,1.6362,1.6274,1.6362,1.6513,1.6513,1.6637,-1.736,-1.6593,-1.7583,-1.7632,-1.7175,-1.7718,-1.7656,-1.7075,-1.7165,-1.7298,-1.7156,-1.6748,-1.7166,-1.7977,-1.7179,-1.7084,-1.8068,-1.7733,-1.7807,-1.8626,-1.8263,-1.8458,-1.8855,-1.8477,-1.8269,-1.821,-1.8151,-1.7807,-1.7401,-1.7229,-1.7013,-1.6536,-1.6277,-1.6009,-1.5326,-1.4386,-1.3705,-1.2822,-1.1706,-1.096,-1.0484,-0.9569,-0.8919,-0.8484,-0.7549,-0.6568,-0.5725,-0.5088,-0.4198,-0.335,-0.3236,-0.3106,-0.2188,-0.0851,0.0,0.0,0.0,0.0248,0.0851,0.1488,0.2107,0.2799,0.3396,0.3869,0.4107,0.5227,0.5899,0.6347,0.7194,0.7917,0.7979,0.7925,0.7965,0.8019,0.8188,0.8777,0.9786,0.9903,1.044,1.1505,1.2031,1.2184,1.2533,1.2582,1.2705,1.2744,1.2783,1.2895,1.3368,1.3978,1.4363,1.464,1.5456,1.6293,1.6513,1.6513,1.6513,1.6513,1.6513,1.6513,1.6513,1.6513,1.6513,1.6513,1.65,1.6513,1.6513,1.65,1.645,1.6488,1.6513,1.6513,1.6513,1.6513,1.6513,-1.7973,-1.7363,-1.8205,-1.8438,-1.8324,-1.8786,-1.8884,-1.8697,-1.8663,-1.8472,-1.8241,-1.8118,-1.8489,-1.8919,-1.819,-1.831,-1.8903,-1.8434,-1.8341,-1.8631,-1.8131,-1.7874,-1.7933,-1.7686,-1.7442,-1.7666,-1.7706,-1.7435,-1.7084,-1.7105,-1.7034,-1.6488,-1.6238,-1.5674,-1.5084,-1.408,-1.315,-1.2398,-1.1357,-1.0586,-1.0108,-0.9632,-0.8909,-0.8459,-0.7442,-0.6492,-0.5856,-0.4769,-0.3819,-0.3059,-0.2763,-0.2502,-0.1763,0.0,0.0,0.0,0.0,0.0,0.0878,0.154,0.2176,0.289,0.3511,0.4254,0.4726,0.5563,0.6275,0.6999,0.7822,0.8343,0.8318,0.8325,0.8318,0.8338,0.8496,0.9181,1.0179,1.0351,1.0763,1.1997,1.249,1.2617,1.2827,1.2895,1.2905,1.2837,1.2837,1.2915,1.3065,1.3658,1.4247,1.4732,1.5466,1.6086,1.6392,1.6513,1.6513,1.6513,1.6513,1.6513,1.6513,1.6513,1.6513,1.6513,1.6513,1.6513,1.6513,1.6513,1.6513,1.6513,1.6513,1.6513,1.6513,1.6525,1.6513,-1.8726,-1.8307,-1.8978,-1.929,-1.9458,-1.9997,-2.0146,-2.0004,-2.0081,-1.9503,-1.9246,-1.9726,-1.9541,-1.9705,-1.9213,-1.963,-1.9704,-1.9267,-1.8631,-1.8549,-1.7807,-1.7483,-1.7333,-1.7013,-1.6837,-1.7167,-1.7167,-1.6888,-1.6752,-1.6803,-1.6608,-1.6281,-1.5744,-1.5163,-1.4423,-1.3467,-1.257,-1.192,-1.1014,-1.0362,-0.9877,-0.9611,-0.9059,-0.8228,-0.7317,-0.6443,-0.5646,-0.4531,-0.3396,-0.2779,-0.2147,-0.1763,-0.1295,0.0,0.0,0.0,0.0,0.0,0.1096,0.1698,0.2303,0.2981,0.3648,0.4497,0.5316,0.5685,0.6401,0.7455,0.83,0.8698,0.8798,0.8705,0.8718,0.8791,0.8863,0.9536,1.044,1.0864,1.1587,1.2477,1.2764,1.2827,1.2866,1.2915,1.2915,1.2915,1.2915,1.2929,1.3079,1.3362,1.398,1.4423,1.5039,1.5664,1.603,1.6516,1.6516,1.6575,1.6563,1.6619,1.6619,1.6764,1.6764,1.6547,1.6513,1.6513,1.6513,1.6513,1.6513,1.6513,1.6538,1.6575,1.6563,1.6538,1.6638,-1.9324,-1.9024,-2.0006,-2.0484,-2.0673,-2.1175,-2.0816,-2.0104,-2.0084,-1.9664,-1.911,-1.9258,-1.9649,-1.9641,-1.9328,-1.8997,-1.8817,-1.8388,-1.8243,-1.8145,-1.7524,-1.7229,-1.7105,-1.6752,-1.6595,-1.6595,-1.6625,-1.6518,-1.6367,-1.6117,-1.5983,-1.5654,-1.5141,-1.456,-1.3969,-1.3144,-1.2312,-1.1557,-1.0585,-0.9865,-0.9658,-0.9249,-0.8692,-0.7913,-0.708,-0.6264,-0.5272,-0.403,-0.2906,-0.222,-0.1912,-0.1261,0.0,0.0,0.0,0.0,0.0,0.0455,0.1415,0.1874,0.2715,0.3623,0.4105,0.4296,0.4896,0.5453,0.6197,0.7142,0.8179,0.8778,0.8778,0.8778,0.8778,0.891,0.929,0.9891,1.0636,1.1266,1.1807,1.2593,1.2783,1.2915,1.2915,1.2915,1.2915,1.2915,1.2915,1.2915,1.2978,1.329,1.3737,1.4125,1.446,1.5061,1.562,1.6188,1.6532,1.6676,1.6722,1.6835,1.6912,1.7089,1.7089,1.6982,1.6735,1.6581,1.6581,1.6547,1.66,1.6663,1.6685,1.6697,1.6936,1.7127,1.724,-1.8942,-1.9045,-1.9602,-2.023,-2.0813,-2.1121,-2.0901,-2.0441,-2.0681,-2.0309,-1.9829,-2.008,-2.0378,-2.0202,-1.975,-1.9038,-1.8281,-1.7793,-1.7706,-1.7565,-1.7167,-1.6866,-1.6888,-1.6595,-1.6543,-1.6423,-1.6204,-1.603,-1.6017,-1.5764,-1.541,-1.5028,-1.4526,-1.4073,-1.3498,-1.2419,-1.1747,-1.1015,-1.0038,-0.9283,-0.9309,-0.8929,-0.8427,-0.7723,-0.6934,-0.6035,-0.4789,-0.3423,-0.2325,-0.1629,-0.1118,0.0,0.0,0.0,0.0,0.0,0.0,0.0443,0.1444,0.1861,0.263,0.3609,0.4112,0.4788,0.5171,0.5565,0.6009,0.7423,0.8076,0.8778,0.8778,0.8778,0.8778,0.891,0.9387,1.0064,1.072,1.1366,1.1907,1.2378,1.2642,1.2798,1.2915,1.2915,1.2915,1.2915,1.2915,1.2915,1.2915,1.3166,1.3511,1.3865,1.4238,1.4903,1.5518,1.6148,1.6769,1.6942,1.7071,1.715,1.7323,1.7587,1.767,1.7616,1.7291,1.7011,1.6606,1.6563,1.671,1.6898,1.7024,1.72,1.7513,1.7739,1.7815,-1.8594,-1.9119,-1.9154,-1.9863,-2.0872,-2.0997,-2.0853,-2.0786,-2.1202,-2.079,-2.0004,-2.0813,-2.0979,-2.0408,-1.9724,-1.8963,-1.8078,-1.7587,-1.7382,-1.7271,-1.6837,-1.6543,-1.65,-1.6358,-1.6259,-1.6117,-1.5688,-1.5487,-1.5588,-1.5241,-1.4915,-1.4411,-1.3828,-1.3403,-1.2928,-1.1557,-1.0838,-1.0244,-0.9491,-0.8831,-0.8778,-0.8619,-0.8235,-0.7503,-0.6745,-0.567,-0.4224,-0.2989,-0.1974,-0.1193,0.0,0.0,0.0,0.0,0.0,0.0,0.0,0.0615,0.131,0.2081,0.29,0.3798,0.4205,0.5062,0.5632,0.5578,0.6014,0.7969,0.8752,0.8778,0.8778,0.8778,0.8778,0.8936,0.9387,0.9987,1.0491,1.104,1.1541,1.1981,1.2403,1.2563,1.2567,1.2915,1.2915,1.2915,1.2915,1.2915,1.2915,1.2915,1.3224,1.3617,1.4123,1.4819,1.5499,1.6256,1.6921,1.7493,1.7626,1.7771,1.7965,1.8204,1.8163,1.8129,1.8092,1.777,1.7192,1.6839,1.7202,1.7476,1.7526,1.7739,1.8129,1.8216,1.8204,-1.9194,-1.9769,-1.9737,-2.0483,-2.1391,-2.1424,-2.1194,-2.0705,-2.0805,-2.0497,-1.9734,-2.0458,-2.0299,-1.9415,-1.8745,-1.8361,-1.8058,-1.7734,-1.7425,-1.7302,-1.6863,-1.6541,-1.6392,-1.592,-1.5776,-1.5622,-1.5107,-1.5163,-1.5107,-1.4492,-1.4016,-1.364,-1.2735,-1.2052,-1.2003,-1.0813,-0.9961,-0.9814,-0.9185,-0.8778,-0.8699,-0.8209,-0.7536,-0.6799,-0.6032,-0.4988,-0.3611,-0.2589,-0.184,-0.1034,-0.0364,0.0,0.0,0.0,0.0,0.0,0.0587,0.1281,0.1952,0.2619,0.337,0.4042,0.4436,0.4598,0.5034,0.5987,0.6664,0.7316,0.8289,0.8778,0.8785,0.8824,0.8785,0.9063,0.9494,0.9814,1.0208,1.0988,1.1464,1.1686,1.2115,1.209,1.2052,1.2527,1.2915,1.2915,1.2915,1.2935,1.3023,1.3101,1.3145,1.361,1.3978,1.4639,1.5458,1.6224,1.7051,1.7819,1.8255,1.8404,1.8592,1.8734,1.8615,1.8561,1.861,1.8596,1.8182,1.798,1.803,1.8053,1.8103,1.8417,1.8795,1.8757,1.8681,-1.8199,-1.8477,-1.8477,-1.895,-1.9711,-2.0029,-1.9793,-1.9409,-1.9927,-1.9837,-1.9423,-1.994,-1.9762,-1.8957,-1.8455,-1.8191,-1.8141,-1.7953,-1.7652,-1.7451,-1.7102,-1.6647,-1.6035,-1.5698,-1.5499,-1.5006,-1.456,-1.4272,-1.4238,-1.3771,-1.3096,-1.2589,-1.1796,-1.1258,-1.1166,-1.0295,-0.9917,-0.9614,-0.9185,-0.8804,-0.8613,-0.8076,-0.7348,-0.6615,-0.5846,-0.4494,-0.309,-0.2426,-0.1591,-0.0727,-0.0084,0.0,0.0,0.0,0.0,0.0,0.1117,0.1813,0.2232,0.2926,0.3677,0.4267,0.4491,0.4519,0.4842,0.6068,0.7155,0.7402,0.8262,0.8738,0.8878,0.8938,0.8998,0.9228,0.969,0.9986,1.0327,1.0922,1.1498,1.1644,1.1824,1.1922,1.211,1.2617,1.3036,1.3081,1.3086,1.3125,1.333,1.3584,1.3643,1.3743,1.4071,1.445,1.5324,1.6154,1.7064,1.7918,1.8946,1.9083,1.9196,1.9246,1.912,1.9144,1.9308,1.9233,1.9033,1.8709,1.8376,1.8498,1.8668,1.8945,1.9233,1.9397,1.9346,-1.7251,-1.7197,-1.7348,-1.7689,-1.8242,-1.877,-1.8747,-1.8382,-1.9381,-1.9501,-1.9143,-1.9294,-1.9095,-1.8669,-1.8317,-1.8204,-1.8216,-1.8318,-1.8166,-1.7854,-1.7357,-1.6727,-1.6086,-1.5658,-1.5151,-1.4621,-1.4058,-1.371,-1.3375,-1.2993,-1.2482,-1.1783,-1.1258,-1.0762,-1.0415,-0.9884,-0.9458,-0.9406,-0.9035,-0.8699,-0.8374,-0.775,-0.7042,-0.6281,-0.5347,-0.4106,-0.2536,-0.1953,-0.1202,0.0,0.0,0.0,0.0,0.0,0.0,0.0699,0.1701,0.223,0.2649,0.3262,0.3873,0.4263,0.4519,0.4598,0.4976,0.6416,0.7561,0.759,0.8465,0.8924,0.9058,0.9252,0.9312,0.954,0.9876,1.0251,1.0523,1.0805,1.1101,1.1292,1.1579,1.2228,1.2467,1.291,1.3169,1.3217,1.3262,1.335,1.3613,1.3965,1.3999,1.4011,1.4292,1.4673,1.5421,1.6273,1.7126,1.7871,1.8879,1.9506,1.9483,1.9584,1.9571,1.971,1.9798,1.9685,1.9422,1.903,1.8713,1.8995,1.9246,1.9397,1.961,1.9748,1.9798,-1.7018,-1.66,-1.7149,-1.7674,-1.8179,-1.877,-1.8945,-1.8797,-1.9459,-1.9672,-1.9432,-1.8807,-1.8129,-1.7842,-1.8059,-1.811,-1.8232,-1.8719,-1.8585,-1.8228,-1.7727,-1.68,-1.6075,-1.5443,-1.4917,-1.4411,-1.3907,-1.3336,-1.2798,-1.2779,-1.2268,-1.1753,-1.1039,-1.0462,-0.9932,-0.9363,-0.9035,-0.8975,-0.8745,-0.8374,-0.7803,-0.7095,-0.6362,-0.5515,-0.436,-0.3093,-0.2232,-0.1647,0.0,0.0,0.0,0.0,0.0,0.0,0.0,0.1424,0.1895,0.2452,0.301,0.3735,0.4294,0.446,0.4543,0.4736,0.5242,0.5687,0.6641,0.7939,0.8796,0.9323,0.9528,0.9668,0.9646,0.9758,0.9984,1.0125,1.0248,1.0157,1.0465,1.0802,1.1437,1.2255,1.3014,1.3486,1.3626,1.3695,1.3874,1.3936,1.4018,1.4248,1.4248,1.4326,1.4597,1.5024,1.5656,1.6385,1.6961,1.7515,1.8342,1.9075,1.9506,1.9619,1.9544,1.9798,1.9798,1.9798,1.9786,1.9468,1.9329,1.957,1.9761,1.971,1.971,1.9773,1.9798,-1.6667,-1.6547,-1.6773,-1.6974,-1.719,-1.7777,-1.8216,-1.8518,-1.8731,-1.9032,-1.9208,-1.8242,-1.8154,-1.8434,-1.7775,-1.7921,-1.8366,-1.8142,-1.8007,-1.7618,-1.7048,-1.6398,-1.5749,-1.5269,-1.4811,-1.4314,-1.3929,-1.3455,-1.2833,-1.2672,-1.1935,-1.1347,-1.0841,-1.0162,-0.9517,-0.9092,-0.8884,-0.8646,-0.8387,-0.7916,-0.7584,-0.6524,-0.5787,-0.5429,-0.4143,-0.3065,-0.2259,-0.1507,-0.0755,0.0,0.0,0.0,0.0,0.0,0.0,0.1729,0.2088,0.2617,0.3322,0.4045,0.446,0.4491,0.4515,0.4825,0.5584,0.617,0.705,0.8106,0.9102,0.9679,0.9695,0.9833,0.996,1.0,1.006,1.0164,1.0171,1.0124,1.0328,1.0908,1.1807,1.2692,1.3418,1.4097,1.4155,1.4202,1.4385,1.4529,1.4557,1.4615,1.4657,1.4687,1.4926,1.5041,1.5626,1.6164,1.6708,1.7246,1.7813,1.8359,1.8946,1.9087,1.9101,1.9443,1.9798,1.9798,1.9798,1.9798,1.9798,1.9798,1.9798,1.9786,1.9786,1.9798,1.9798,-1.6513,-1.6513,-1.6513,-1.6389,-1.6324,-1.6866,-1.7294,-1.7605,-1.7776,-1.7922,-1.8128,-1.7496,-1.7569,-1.7967,-1.7664,-1.7338,-1.7804,-1.7752,-1.7456,-1.716,-1.6828,-1.6176,-1.5589,-1.5163,-1.4914,-1.4375,-1.3936,-1.3516,-1.2767,-1.2758,-1.1833,-1.0995,-1.0612,-1.0221,-0.9542,-0.9164,-0.8949,-0.8589,-0.8248,-0.75,-0.7156,-0.6248,-0.5421,-0.5068,-0.3758,-0.2843,-0.2037,-0.1284,-0.0531,0.0,0.0,0.0,0.0,0.0,0.0,0.1534,0.2171,0.2647,0.3574,0.4113,0.4518,0.4566,0.4958,0.5366,0.6033,0.6866,0.7739,0.8788,0.9581,0.9963,0.9956,1.0154,1.0247,1.0281,1.0365,1.0432,1.0445,1.0425,1.0733,1.1112,1.2058,1.303,1.3812,1.4463,1.4735,1.4738,1.4863,1.497,1.4997,1.5057,1.5167,1.5197,1.5264,1.5361,1.5459,1.5835,1.6197,1.6698,1.7219,1.7611,1.8059,1.8319,1.8708,1.9105,1.9427,1.9707,1.9798,1.9798,1.9798,1.9798,1.9798,1.9798,1.9798,1.9798,1.9798,-1.6513,-1.6513,-1.6479,-1.6151,-1.568,-1.6203,-1.6408,-1.6531,-1.6863,-1.6837,-1.6624,-1.6655,-1.646,-1.6257,-1.6654,-1.6863,-1.706,-1.7285,-1.7274,-1.7026,-1.6556,-1.6171,-1.5766,-1.5365,-1.5037,-1.4646,-1.4101,-1.3438,-1.2668,-1.2456,-1.1523,-1.0816,-1.07,-1.0595,-0.9744,-0.9659,-0.9227,-0.8533,-0.8323,-0.7302,-0.644,-0.586,-0.5324,-0.4653,-0.3334,-0.2424,-0.2085,-0.0896,0.0,0.0,0.0,0.0,0.0,0.0,0.1016,0.2529,0.2413,0.3098,0.4426,0.4513,0.4607,0.4811,0.5226,0.6065,0.6983,0.7741,0.8434,0.9475,1.019,1.0452,1.0533,1.0546,1.0526,1.0533,1.0573,1.0586,1.0586,1.0586,1.0832,1.1351,1.2336,1.3274,1.4106,1.4787,1.5138,1.5322,1.5371,1.5381,1.5311,1.5341,1.54,1.542,1.542,1.542,1.542,1.542,1.57,1.6197,1.6595,1.6933,1.7501,1.8015,1.8391,1.8756,1.9264,1.9746,1.9798,1.9798,1.9798,1.9798,1.9798,1.9798,1.9798,1.9798,1.9798,-1.6513,-1.6479,-1.6073,-1.5555,-1.513,-1.5631,-1.6008,-1.6312,-1.6416,-1.6359,-1.6233,-1.6276,-1.6632,-1.6642,-1.6202,-1.626,-1.6548,-1.6061,-1.613,-1.613,-1.5882,-1.5351,-1.5042,-1.5071,-1.4935,-1.45,-1.3985,-1.3449,-1.2887,-1.2275,-1.1485,-1.0805,-1.0568,-1.0386,-0.9705,-0.9259,-0.8592,-0.8205,-0.7462,-0.646,-0.5992,-0.5494,-0.5072,-0.4743,-0.3195,-0.2395,-0.2188,-0.0742,0.0,0.0,0.0,0.0,0.0,0.0,0.1364,0.2597,0.2819,0.3707,0.4546,0.4789,0.4789,0.5124,0.5731,0.6541,0.722,0.8168,0.9107,0.9871,1.0394,1.0559,1.0579,1.0573,1.0566,1.0566,1.0586,1.0586,1.0586,1.0624,1.0807,1.1593,1.2481,1.3696,1.4658,1.4962,1.5294,1.542,1.542,1.542,1.5371,1.5381,1.542,1.542,1.542,1.542,1.542,1.542,1.542,1.5748,1.598,1.6136,1.6747,1.7501,1.8096,1.8487,1.9172,1.9798,1.9798,1.9798,1.9798,1.9798,1.9798,1.9798,1.9798,1.9798,1.9798,-1.5876,-1.5832,-1.5466,-1.5073,-1.4766,-1.4915,-1.5176,-1.5376,-1.5452,-1.5464,-1.5444,-1.5531,-1.5844,-1.6198,-1.6046,-1.569,-1.6054,-1.569,-1.5439,-1.5352,-1.5079,-1.4728,-1.4542,-1.4382,-1.4097,-1.3816,-1.3455,-1.2984,-1.2442,-1.1734,-1.1087,-1.0622,-1.0301,-0.9912,-0.9449,-0.9047,-0.839,-0.7819,-0.6813,-0.6247,-0.5759,-0.5278,-0.4835,-0.4237,-0.3283,-0.2355,-0.1751,0.0,0.0,0.0,0.0,0.0,0.0,0.0822,0.1642,0.2472,0.3635,0.436,0.4841,0.5064,0.5189,0.5634,0.6274,0.6934,0.769,0.8823,0.9599,1.0217,1.0468,1.0546,1.0586,1.0586,1.0586,1.0586,1.0586,1.0586,1.0586,1.0624,1.1115,1.1903,1.2665,1.3906,1.4962,1.5177,1.5391,1.542,1.542,1.542,1.542,1.542,1.542,1.542,1.542,1.542,1.542,1.542,1.542,1.542,1.5537,1.5683,1.6004,1.6743,1.7473,1.8208,1.8833,1.9352,1.9722,1.9798,1.9798,1.9798,1.9798,1.9798,1.9798,1.9798,1.9798,-1.4732,-1.4709,-1.4686,-1.4686,-1.456,-1.4084,-1.3717,-1.3572,-1.3959,-1.4162,-1.4165,-1.4713,-1.5064,-1.5003,-1.5224,-1.5468,-1.5517,-1.5429,-1.541,-1.5177,-1.4746,-1.4353,-1.3906,-1.3545,-1.3304,-1.2848,-1.2481,-1.2297,-1.1772,-1.1195,-1.0744,-1.0333,-0.9792,-0.9293,-0.8998,-0.8589,-0.7973,-0.7154,-0.6512,-0.5999,-0.5535,-0.5093,-0.4568,-0.3882,-0.2943,-0.2037,-0.1321,0.0,0.0,0.0,0.0,0.0,0.0,0.0,0.1701,0.281,0.435,0.4833,0.5127,0.525,0.577,0.6278,0.7147,0.7685,0.8413,0.9421,1.0159,1.0398,1.0566,1.0573,1.0586,1.0586,1.0586,1.0586,1.0586,1.0586,1.0586,1.0895,1.1507,1.2212,1.2848,1.3816,1.4756,1.5147,1.5021,1.5147,1.5177,1.542,1.542,1.542,1.542,1.542,1.542,1.542,1.542,1.542,1.542,1.542,1.542,1.5537,1.581,1.622,1.7159,1.7961,1.8443,1.8957,1.9569,1.9798,1.9798,1.9798,1.9798,1.9798,1.9798,1.9798,1.9798,-1.4709,-1.4652,-1.4236,-1.4084,-1.3967,-1.342,-1.311,-1.314,-1.3506,-1.3691,-1.3704,-1.4463,-1.4697,-1.4824,-1.5215,-1.5361,-1.54,-1.542,-1.541,-1.505,-1.4451,-1.3906,-1.3425,-1.3009,-1.2642,-1.2235,-1.1896,-1.1686,-1.1586,-1.0951,-1.0142,-0.9658,-0.9236,-0.8581,-0.7929,-0.747,-0.7079,-0.6687,-0.6137,-0.5749,-0.5253,-0.4766,-0.4249,-0.3596,-0.2445,-0.1624,-0.1047,-0.0407,0.0,0.0,0.0,0.0,0.0,0.1434,0.2793,0.4399,0.5114,0.5327,0.5304,0.5368,0.5785,0.6625,0.7426,0.8249,0.8988,0.9786,1.0523,1.0586,1.0586,1.0586,1.0586,1.0586,1.0586,1.0586,1.0586,1.0586,1.0586,1.0776,1.1413,1.2328,1.3,1.3545,1.4481,1.451,1.4451,1.4667,1.4903,1.5206,1.542,1.542,1.542,1.542,1.542,1.542,1.542,1.542,1.542,1.542,1.542,1.5459,1.5683,1.621,1.7053,1.7846,1.8599,1.917,1.9683,1.9798,1.9798,1.9798,1.9798,1.9798,1.9798,1.9798,1.9798,-1.419,-1.3954,-1.36,-1.3443,-1.3372,-1.3055,-1.2915,-1.2939,-1.3154,-1.333,-1.3564,-1.4033,-1.4375,-1.457,-1.4922,-1.5146,-1.5156,-1.5313,-1.5235,-1.4658,-1.4094,-1.3274,-1.2734,-1.2243,-1.1725,-1.1445,-1.1344,-1.1226,-1.1132,-1.0465,-0.962,-0.8812,-0.8549,-0.7702,-0.6948,-0.6527,-0.6272,-0.6009,-0.5716,-0.5458,-0.5057,-0.4483,-0.3982,-0.327,-0.1971,-0.131,0.0,0.0,0.0,0.0,0.0,0.0,0.0,0.1687,0.3463,0.4869,0.5342,0.5378,0.5378,0.5385,0.5914,0.6658,0.7535,0.835,0.9192,1.0009,1.0396,1.0586,1.0586,1.0586,1.0586,1.0586,1.0586,1.0586,1.0586,1.0586,1.0586,1.0586,1.1351,1.2297,1.2931,1.3425,1.3726,1.3726,1.3914,1.4273,1.4628,1.4932,1.5235,1.542,1.542,1.542,1.542,1.542,1.542,1.542,1.542,1.542,1.542,1.5488,1.5615,1.6031,1.6717,1.7829,1.8972,1.9448,1.9798,1.9798,1.9798,1.9798,1.9798,1.9798,1.9798,1.9798,1.9798,-1.342,-1.2954,-1.2915,-1.2954,-1.2915,-1.2905,-1.2856,-1.2822,-1.2778,-1.3036,-1.3373,-1.3516,-1.3789,-1.4114,-1.4531,-1.4785,-1.4837,-1.4974,-1.476,-1.4136,-1.3274,-1.2543,-1.1896,-1.1076,-1.0989,-1.0744,-1.0618,-1.0737,-1.0326,-0.9786,-0.9037,-0.7929,-0.7274,-0.6719,-0.64,-0.5881,-0.5653,-0.562,-0.5524,-0.5395,-0.509,-0.445,-0.3513,-0.2744,-0.1738,0.0,0.0,0.0,0.0,0.0,0.0,0.0,0.0,0.1733,0.354,0.4749,0.5326,0.5395,0.5395,0.5395,0.6046,0.6756,0.7535,0.8517,0.946,1.0136,1.0523,1.0586,1.0586,1.0586,1.0586,1.0586,1.0586,1.0586,1.0586,1.0586,1.0586,1.0769,1.1375,1.2135,1.2451,1.287,1.2901,1.294,1.3213,1.3756,1.4332,1.4658,1.5089,1.5381,1.542,1.542,1.542,1.542,1.542,1.542,1.542,1.542,1.542,1.542,1.5498,1.5882,1.6352,1.7718,1.9129,1.9489,1.9798,1.9798,1.9798,1.9798,1.9798,1.9798,1.9798,1.9798,1.9798,-1.3041,-1.2915,-1.2915,-1.2915,-1.2915,-1.2915,-1.2559,-1.208,-1.2055,-1.2435,-1.3002,-1.3299,-1.3458,-1.351,-1.3915,-1.4204,-1.4512,-1.4203,-1.4118,-1.3562,-1.2763,-1.2081,-1.1686,-1.0951,-1.0649,-1.0586,-1.053,-1.0174,-0.9626,-0.9172,-0.8484,-0.7181,-0.6593,-0.6367,-0.5848,-0.5428,-0.5428,-0.5395,-0.5259,-0.5226,-0.509,-0.3915,-0.2811,-0.2178,-0.1376,0.0,0.0,0.0,0.0,0.0,0.0,0.0,0.2009,0.2477,0.3613,0.4987,0.5395,0.5395,0.5395,0.5491,0.6079,0.7083,0.7994,0.8967,0.9779,1.0295,1.0586,1.0586,1.0586,1.0586,1.0586,1.0586,1.0586,1.0586,1.0586,1.0586,1.0586,1.1014,1.1461,1.171,1.1958,1.205,1.2081,1.2266,1.2565,1.3144,1.3876,1.4451,1.505,1.542,1.542,1.542,1.542,1.542,1.542,1.542,1.542,1.542,1.542,1.542,1.5459,1.607,1.6818,1.8051,1.9176,1.9403,1.9632,1.9773,1.9773,1.9798,1.9798,1.9798,1.9798,1.9798,1.9798,-1.3128,-1.2905,-1.2915,-1.2915,-1.2856,-1.2559,-1.2163,-1.1789,-1.1491,-1.1584,-1.1934,-1.2193,-1.2302,-1.2392,-1.2739,-1.312,-1.3406,-1.3274,-1.2939,-1.2541,-1.2326,-1.171,-1.1195,-1.0832,-1.0681,-1.0555,-1.0072,-0.9594,-0.8909,-0.8129,-0.7312,-0.6334,-0.6108,-0.5914,-0.5395,-0.5395,-0.5395,-0.5395,-0.5057,-0.4788,-0.4688,-0.348,-0.241,-0.181,0.0,0.0,0.0,0.0,0.0,0.0,0.0,0.0,0.2347,0.3049,0.3987,0.4924,0.5395,0.5395,0.5395,0.5591,0.6046,0.7083,0.7962,0.871,0.9556,1.011,1.0555,1.0586,1.0586,1.0586,1.0586,1.0586,1.0586,1.0586,1.0586,1.0586,1.0618,1.08,1.1014,1.1108,1.1233,1.1233,1.1264,1.1296,1.1756,1.2879,1.3575,1.4353,1.4932,1.542,1.542,1.542,1.542,1.542,1.542,1.542,1.542,1.542,1.542,1.5722,1.5966,1.6545,1.7345,1.8134,1.8766,1.9083,1.9287,1.9451,1.9721,1.9798,1.9798,1.9798,1.9823,1.9899,2.0012,-1.3348,-1.2929,-1.2915,-1.2915,-1.2798,-1.227,-1.1839,-1.1616,-1.1166,-1.0762,-1.0593,-1.0685,-1.0695,-1.0937,-1.1188,-1.1364,-1.1656,-1.2068,-1.1831,-1.1712,-1.1576,-1.1222,-1.0926,-1.0618,-1.0586,-1.0301,-0.9817,-0.9,-0.8188,-0.7437,-0.6629,-0.562,-0.5395,-0.5395,-0.5395,-0.5392,-0.5359,-0.4957,-0.4519,-0.3949,-0.348,-0.2978,-0.2142,-0.1274,0.0,0.0,0.0,0.0,0.0,0.0,0.0742,0.1647,0.2547,0.3382,0.432,0.5123,0.5395,0.5395,0.5395,0.5428,0.6075,0.6854,0.7572,0.8388,0.9268,0.9913,1.0396,1.046,1.046,1.0586,1.0586,1.0586,1.0586,1.0586,1.0586,1.0586,1.0618,1.0649,1.0649,1.0649,1.0649,1.0649,1.0656,1.0656,1.1389,1.2489,1.3364,1.4174,1.4835,1.5206,1.542,1.542,1.542,1.542,1.542,1.542,1.542,1.542,1.5488,1.5966,1.6386,1.6613,1.7024,1.7644,1.8185,1.8467,1.8811,1.9032,1.9345,1.9618,1.9798,1.9849,2.0138,2.0226,2.039,-1.3017,-1.2915,-1.2915,-1.2915,-1.2881,-1.2715,-1.2073,-1.1166,-1.1416,-1.0762,-0.9684,-0.9832,-1.0236,-1.0788,-1.0863,-1.0975,-1.1118,-1.1259,-1.1324,-1.1294,-1.1046,-1.0798,-1.0649,-1.0586,-1.0586,-1.0174,-0.9562,-0.8812,-0.773,-0.6981,-0.6268,-0.5458,-0.5395,-0.5395,-0.5395,-0.5326,-0.509,-0.4586,-0.3982,-0.3411,-0.2142,-0.1708,-0.1608,-0.0973,0.0,0.0,0.0,0.0,0.0,0.0,0.0877,0.1781,0.2748,0.3647,0.455,0.5123,0.5395,0.5395,0.5395,0.5557,0.617,0.7214,0.7897,0.8355,0.9198,0.9919,1.0142,1.0009,1.011,1.0523,1.0586,1.0586,1.0586,1.0586,1.0586,1.0586,1.0586,1.0618,1.0618,1.0618,1.0618,1.0624,1.0624,1.087,1.1421,1.2397,1.3122,1.3936,1.505,1.5264,1.542,1.542,1.542,1.542,1.542,1.542,1.542,1.542,1.5488,1.581,1.6078,1.6279,1.6721,1.7236,1.7501,1.7773,1.809,1.8501,1.8859,1.915,1.9618,1.9873,2.0199,2.055,2.0736]},{"header":{"parameterUnit":"m.s-1","parameterCategory":1,"la1":31.0,"la2":29.5877,"lo1":-88.7671,"lo2":-86.6584,"dy":0.0162,"dx":0.0185,"nx":115,"ny":88,"refTime":"2026-03-09T00:00:00:Z","depth":0,"parameterNumber":3,"parameterNumberName":"V-component_of_WINDS"},"data":[0.0,0.0,0.0,0.0,0.0,0.0,0.0,0.0,0.0,0.0,0.0,0.0,0.0,0.0,0.0,0.0,0.0,0.0,0.0,0.0,0.0,0.0,0.0,0.0,0.0,0.0,0.0,0.0,0.0,0.0,0.0,0.0,0.0,0.0,0.0,0.0,0.0,0.0,0.0,0.0,0.0,0.0,0.0,0.0,0.0,0.0,0.0,0.0,0.0,0.0,0.0,0.0,0.0,0.0,0.0,0.0,0.0,0.0,0.0,0.0,0.0,0.0,0.0,0.0,0.0,0.0,0.0,0.0,0.0,0.0,0.0,0.0,0.0,0.0,0.0,0.0,0.0,0.0,0.0,0.0,0.0,0.0,0.0,0.0,0.0,0.0,0.0,0.0,0.0,0.0,0.0,0.0,0.0,0.0,0.0,0.0,0.0,0.0,0.0,0.0,0.0,0.0,0.0,0.0,0.0,0.0,0.0,0.0,0.0,0.0,0.0,0.0,0.0,0.0,0.0,0.0,0.0,0.0,0.0,0.0,0.0,0.0,0.0,0.0,0.0,0.0,0.0,0.0,0.0,0.0,0.0,0.0,0.0,0.0,0.0,0.0,0.0,0.0,0.0,0.0,0.0,0.0,0.0,0.0,0.0,0.0,0.0,0.0,0.0,0.0,0.0,0.0,0.0,0.0,0.0,0.0,0.0,0.0,0.0,0.0,0.0,0.0,0.0,0.0,0.0,0.0,0.0,0.0,0.0,0.0,0.0,0.0,0.0,0.0,0.0,0.0,0.0,0.0,0.0,0.0,0.0,0.0,0.0,0.0,0.0,0.0,0.0,0.0,0.0,0.0,0.0,0.0,0.0,0.0,0.0,0.0,0.0,0.0,0.0,0.0,0.0,0.0,0.0,0.0,0.0,0.0,0.0,0.0,0.0,0.0,0.0,0.0,0.0,0.0,0.0,0.0,0.0,0.0,0.0,0.0,0.0,0.0,0.0,0.0,0.0,0.0,0.0,0.0,0.0,0.0,0.0,0.0,0.0,0.0,0.0,0.0,0.0,0.0,0.0,0.0,0.0,0.0,0.0,0.0,0.0,0.0,0.0,0.0,0.0,0.0,0.0,0.0,0.0,0.0,0.0,0.0,0.0,0.0,0.0,0.0,0.0,0.0,0.0,0.0,0.0,0.0,0.0,0.0,0.0,0.0,0.0,0.0,0.0,0.0,0.0,0.0,0.0,0.0,0.0,0.0,0.0,0.0,0.0,0.0,0.0,0.0,0.0,0.0,0.0,0.0,0.0,0.0,0.0,0.0,0.0,0.0,0.0,0.0,0.0,0.0,0.0,0.0,0.0,0.0,0.0,0.0,0.0,0.0,0.0,0.0,0.0,0.0,0.0,0.0,0.0,0.0,0.0,0.0,0.0,0.0,0.0,0.0,0.0,0.0,0.0,0.0,0.0,0.0,0.0,0.0,0.0,0.0,0.0,0.0,0.0,0.0,0.0,0.0,0.0,0.0,0.0,0.0,0.0,0.0,0.0,0.0,0.0,0.0,0.0,0.0,0.0,0.0,0.0,0.0,0.0,0.0,0.0,0.0,0.0,0.0,0.0,0.0,0.0,0.0,0.0,0.0,0.0,0.0,0.0,0.0,0.0,0.0,0.0,0.0,0.0,0.0,0.0,0.0,0.0,0.0,0.0,0.0,0.0,0.0,0.0,0.0,0.0,0.0,0.0,0.0,0.0,0.0,0.0,0.0,0.0,0.0,0.0,0.0,0.0,0.0,0.0,0.0,0.0,0.0,0.0,0.0,0.0,0.0,0.0,0.0,0.0,0.0,0.0,0.0,0.0,0.0,0.0,0.0,0.0,0.0,0.0,0.0,0.0,0.0,0.0,0.0,0.0,0.0,0.0,0.0,0.0,0.0,0.0,0.0,0.0,0.0,0.0,0.0,0.0,0.0,0.0,0.0,0.0,0.0,0.0,0.0,0.0,0.0,0.0,0.0,0.0,0.0,0.0,0.0,0.0,0.0,0.0,0.0,0.0,0.0,0.0,0.0,0.0,0.0,0.0,0.0,0.0,0.0,0.0,0.0,0.0,0.0,0.0,0.0,0.0,0.0,0.0,0.0,0.0,0.0,0.0,0.0,0.0,0.0,0.0,0.0,0.0,0.0,0.0,0.0,0.0,0.0,0.0,0.0,0.0,0.0,0.0,0.0,0.0,0.0,0.0,0.0,0.0,0.0,0.0,0.0,0.0,0.0,0.0,0.0,0.0,0.0,0.0,0.0,0.0,0.0,0.0,0.0,0.0,0.0,0.0,0.0,0.0,0.0,0.0,0.0,0.0,0.0,0.0,0.0,0.0,0.0,0.0,0.0,0.0,0.0,0.0,0.0,0.0,0.0,0.0,0.0,0.0,0.0,0.0,0.0,0.0,0.0,0.0,0.0,0.0,0.0,0.0,0.0,0.0,0.0,0.0,0.0,0.0,0.0,0.0,0.0,0.0,0.0,0.0,0.0,0.0,0.0,0.0,0.0,0.0,0.0,0.0,0.0,0.0,0.0,0.0,0.0,0.0,0.0,0.0,0.0,0.0,0.0,0.0,0.0,0.0,0.0,0.0,0.0,0.0,0.0,0.0,0.0,0.0,0.0,0.0,0.0,0.0,0.0,0.0,0.0,0.0,0.0,0.0,0.0,0.0,0.0,0.0,0.0,0.0,0.0,0.0,0.0,0.0,0.0,0.0,0.0,0.0,0.0,0.0,0.0,0.0,0.0,0.0,0.0,0.0,0.0,0.0,0.0,0.0,0.0,0.0,0.0,0.0,0.0,0.0,0.0,0.0,0.0,0.0,0.0,0.0,0.0,0.0,0.0,0.0,0.0,0.0,0.0,0.0,0.0,0.0,0.0,0.0,0.0,0.0,0.0,0.0,0.0,0.0,0.0,0.0,0.0,0.0,0.0,0.0,0.0,0.0,0.0,0.0,0.0,0.0,0.0,0.0,0.0,0.0,0.0,0.0,0.0,0.0,0.0,0.0,0.0,0.0,0.0,0.0,0.0,0.0,0.0,0.0,0.0,0.0,0.0,0.0,0.0,0.0,0.0,0.0,0.0,0.0,0.0,0.0,0.0,0.0,0.0,0.0,0.0,0.0,0.0,0.0,0.0,0.0,0.0,0.0,0.0,0.0,0.0,0.0,0.0,0.0,0.0,0.0,0.0,0.0,0.0,0.0,0.0,0.0,0.0,0.0,0.0,0.0,0.0,0.0,0.0,0.0,0.0,0.0,0.0,0.0,0.0,0.0,0.0,0.0,0.0,0.0,0.0,0.0,0.0,0.0,0.0,0.0,0.0,0.0,0.0,0.0,0.0,0.0,0.0,0.0,0.0,0.0,0.0,0.0,0.0,0.0,0.0,0.0,0.0,0.0,0.0,0.0,0.0,0.0,0.0,0.0,0.0,0.0,0.0,0.0,0.0,0.0,0.0,0.0,0.0,0.0,0.0,0.0,0.0,0.0,0.0,0.0,0.0,0.0,0.0,0.0,0.0,0.0,0.0,0.0,0.0,0.0,0.0,0.0,0.0,0.0,0.0,0.0,0.0,0.0,0.0,0.0,0.0,0.0,0.0,0.0,0.0,0.0,0.0,0.0,0.0,0.0,0.0,0.0,0.0,0.0,0.0,0.0,0.0,0.0,0.0,0.0,0.0,0.0,0.0,0.0,0.0,0.0,0.0,0.0,0.0,0.0,0.0,0.0,0.0,0.0,0.0,0.0,0.0,0.0,0.0,0.0,0.0,0.0,0.0,0.0,0.0,0.0,0.0,0.0,0.0,0.0,0.0,0.0,0.0,0.0,0.0,0.0,0.0,0.0,0.0,0.0,0.0,0.0,0.0,0.0,0.0,0.0,0.0,0.0,0.0,0.0,0.0,0.0,0.0,0.0,0.0,0.0,0.0,0.0,0.0,0.0,0.0,0.0,0.0,0.0,0.0,0.0,0.0,0.0,0.0,0.0,0.0,0.0,0.0,0.0,0.0,0.0,0.0,0.0,0.0,0.0,0.0,0.0,0.0,0.0,0.0,0.0,0.0,0.0,0.0,0.0,0.0,0.0,0.0,0.0,0.0,0.0,0.0,0.0,0.0,0.0,0.0,0.0,0.0,0.0,0.0,0.0,0.0,0.0,0.0,0.0,0.0,0.0,0.0,0.0,0.0,0.0,0.0,0.0,0.0,0.0,0.0,0.0,0.0,0.0,0.0,0.0,0.0,0.0,0.0,0.0,0.0,0.0,0.0,0.893,0.0,0.0,0.0,0.0,0.0,0.0,0.0,0.0,0.0,0.0,0.0,0.0,0.0,0.0,0.0,0.0,0.0,0.0,0.0,0.0,0.0,0.0,0.0,0.0,0.0,0.0,0.0,0.0,0.0,0.0,0.0,0.0,0.0,0.0,0.0,0.0,0.0,0.0,0.0,0.0,0.0,0.0,0.0,0.0,0.0,0.0,0.0,0.0,0.0,0.0,0.0,0.0,0.0,0.0,0.0,0.0,0.0,0.0,0.0,0.0,0.0,0.0,0.0,0.0,0.0,0.0,0.0,0.0,0.0,0.0,0.0,0.0,0.0,0.0,0.0,0.0,0.0,0.0,0.0,0.0,0.0,0.0,0.0,0.0,0.0,0.0,0.0,0.0,0.0,0.0,0.0,0.0,0.0,0.0,0.0,0.0,0.0,0.0,0.0,0.0,0.0,0.0,0.0,0.0,0.0,0.0,0.0,0.0,0.0,0.0,0.8542,0.8554,0.88,0.8919,0.8902,0.0,0.0,0.0,0.0,0.0,0.0,0.0,0.0,0.0,0.0,0.0,0.0,0.0,0.0,0.0,0.0,0.0,0.0,0.0,0.0,0.0,0.0,0.0,0.0,0.0,0.0,0.0,0.0,0.0,0.0,0.0,0.0,0.0,0.0,0.0,0.0,0.0,0.0,0.0,0.0,0.0,0.0,0.0,0.0,0.0,0.0,0.0,0.0,0.0,0.0,0.0,0.0,0.0,0.0,0.0,0.0,0.0,0.0,0.0,0.0,0.0,0.0,0.0,0.0,0.0,0.0,0.0,0.0,0.0,0.0,0.0,0.0,0.0,0.0,0.0,0.0,0.0,0.0,0.0,0.0,0.0,0.0,0.0,0.0,0.0,0.0,0.0,0.0,0.0,0.0,0.0,0.0,0.0,0.0,0.0,0.0,0.0,0.0,0.0,0.0,0.0,0.0,0.0,0.0,0.0,0.0,0.0,0.0,0.0,0.0,0.0,0.0,0.8708,0.8807,0.8863,0.0,0.0,0.0,0.0,0.0,0.0,0.0,0.0,0.0,0.0,0.0,0.0,0.0,0.0,0.0,0.0,0.0,0.0,0.0,0.0,0.0,0.0,0.0,0.0,0.0,0.0,0.0,0.0,0.0,0.0,0.0,0.0,0.0,0.0,0.0,0.0,0.0,0.0,0.0,0.0,0.0,0.0,0.0,0.0,0.0,0.0,0.0,0.0,0.0,0.0,0.0,0.0,0.0,0.0,0.0,0.0,0.0,0.0,0.0,0.0,0.0,0.0,0.0,0.0,0.0,0.0,0.0,0.0,0.0,0.0,0.0,0.0,0.0,0.0,0.0,0.0,0.0,0.0,0.0,0.0,0.0,0.0,0.0,0.0,0.0,0.0,0.0,0.0,0.0,0.0,0.0,0.0,0.0,0.0,0.0,0.0,0.0,0.0,0.0,0.0,0.0,0.0,0.0,0.0,0.0,0.0,0.0,0.0,0.0,0.0,0.8129,0.8149,0.8338,0.0,0.8705,0.0,0.0,0.0,0.0,0.0,0.0,0.0,0.0,0.0,0.0,0.0,0.0,0.0,0.0,0.0,0.0,0.0,0.0,0.0,0.0,0.0,0.0,0.0,0.0,0.0,0.0,0.0,0.0,0.0,0.0,0.0,0.0,0.0,0.0,0.0,0.0,0.0,0.0,0.0,0.0,0.0,0.0,0.0,0.0,0.0,0.0,0.0,0.0,0.0,0.0,0.0,0.0,0.0,0.0,0.0,0.0,0.0,0.0,0.0,0.0,0.0,0.0,0.0,0.0,0.0,0.0,0.0,0.0,0.0,0.0,0.0,0.0,0.0,0.0,0.0,0.0,0.0,0.0,0.0,0.0,0.0,0.0,0.0,0.0,0.0,0.0,0.0,0.0,0.0,0.0,0.0,0.0,0.0,0.0,0.0,0.0,0.0,0.0,0.0,0.0,0.0,0.0,0.0,0.0,0.0,0.0,0.0,0.0,0.0,0.0,0.0,0.8289,0.8361,0.8482,0.0,0.0,0.0,0.0,0.0,0.0,0.0,0.0,0.0,0.0,0.0,0.0,0.0,0.0,0.0,0.0,0.0,0.0,0.0,0.0,0.0,0.0,0.0,0.0,0.0,0.0,0.0,0.0,0.0,0.0,0.0,0.0,0.0,0.0,0.0,0.0,0.0,0.0,0.0,0.0,0.0,0.0,0.0,0.0,0.0,0.0,0.0,0.0,0.0,0.0,0.0,0.0,0.0,0.0,0.0,0.0,0.0,0.0,0.0,0.0,0.0,0.0,0.0,0.0,0.0,0.0,0.0,0.0,0.0,0.0,0.0,0.0,0.0,0.0,0.0,0.0,0.0,0.0,0.0,0.0,0.0,0.0,0.0,0.0,0.0,0.0,0.0,0.0,0.0,0.0,0.0,0.0,0.0,0.0,0.0,0.0,0.0,0.0,0.0,0.0,0.0,0.0,0.0,0.0,0.0,0.0,0.0,0.0,0.0,0.0,0.8063,0.0,0.8243,0.8256,0.8377,0.8592,0.0,0.0,0.0,0.0,0.0,0.0,0.0,0.0,0.0,0.0,0.0,0.0,0.0,0.0,0.0,0.0,0.0,0.0,0.0,0.0,0.0,0.0,0.0,0.0,0.0,0.0,0.0,0.0,0.0,0.0,0.0,0.0,0.0,0.0,0.0,0.0,0.0,0.0,0.0,0.0,0.0,0.0,0.0,0.0,0.0,0.0,0.0,0.0,0.0,0.0,0.0,0.0,0.0,0.0,0.0,0.0,0.0,0.0,0.0,0.0,0.0,0.0,0.0,0.0,0.0,0.0,0.0,0.0,0.0,0.0,0.0,0.0,0.0,0.0,0.0,0.0,0.0,0.0,0.0,0.0,0.0,0.0,0.0,0.0,0.0,0.0,0.0,0.0,0.0,0.0,0.0,0.0,0.0,0.0,0.0,0.0,0.0,0.0,0.0,0.0,0.0,0.0,0.0,0.0,0.0,0.0,0.0,0.0,0.0,0.7961,0.7921,0.792,0.7928,0.8068,0.0,0.0,0.0,0.0,0.0,0.0,0.0,0.0,0.0,0.0,0.0,0.0,0.0,0.0,0.0,0.0,0.0,0.0,0.0,0.0,0.0,0.0,0.0,0.0,0.0,0.0,0.0,0.0,0.0,0.0,0.0,0.0,0.0,0.0,0.0,0.0,0.0,0.0,0.0,0.0,0.0,0.0,0.0,0.0,0.0,0.0,0.0,0.0,0.0,0.0,0.0,0.0,0.0,0.0,0.0,0.0,0.0,0.0,0.0,0.0,0.0,0.0,0.0,0.0,0.0,0.0,0.0,0.0,0.0,0.0,0.0,0.0,0.0,0.0,0.0,0.0,0.0,0.0,0.0,0.0,0.0,0.0,0.0,0.0,0.0,0.0,0.0,0.0,0.0,0.0,0.0,0.0,0.0,0.0,0.0,0.0,0.0,0.0,0.0,0.0,0.0,0.0,0.0,0.0,0.0,0.0,0.0,0.0,0.0,0.7962,0.7935,0.7906,0.7906,0.7998,0.7931,0.0,0.0,0.0,0.0,0.0,0.0,0.0,0.0,0.0,0.0,0.0,0.0,0.0,0.0,0.0,0.0,0.0,0.0,0.0,0.0,0.0,0.0,0.0,0.0,0.0,0.0,0.0,0.0,0.0,0.0,0.0,0.0,0.0,0.0,0.0,0.0,0.0,0.0,0.0,0.0,0.0,0.0,0.0,0.0,0.0,0.0,0.0,0.0,0.0,0.0,0.0,0.0,0.0,0.0,0.0,0.0,0.0,0.0,0.0,0.0,0.0,0.0,0.0,0.0,0.0,0.0,0.0,0.0,0.0,0.0,0.0,0.0,0.0,0.0,0.0,0.0,0.0,0.0,0.0,0.0,0.0,0.0,0.0,0.0,0.0,0.0,0.0,0.0,0.0,0.0,0.0,0.0,0.0,0.0,0.0,0.0,0.0,0.0,0.0,0.0,0.0,0.0,0.0,0.0,0.0,0.0,0.0,0.0,0.0,0.7977,0.0,0.804,0.0,0.8126,0.8026,0.0,0.0,0.0,0.0,0.0,0.0,0.0,0.0,0.0,0.0,0.0,0.0,0.0,0.0,0.0,0.0,0.0,0.0,0.0,0.0,0.0,0.0,0.0,0.0,0.0,0.0,0.0,0.0,0.0,0.0,0.0,0.0,0.0,0.0,0.0,0.0,0.0,0.0,0.0,0.0,0.0,0.0,0.0,0.0,0.0,0.0,0.0,0.0,0.0,0.0,0.0,0.0,0.0,0.0,0.0,0.0,0.0,0.0,0.0,0.0,0.0,0.0,0.0,0.0,0.0,0.0,0.0,0.0,0.0,0.0,0.0,0.0,0.0,0.0,0.0,0.0,0.0,0.0,0.0,0.0,0.0,0.0,0.0,0.0,0.0,0.0,0.0,0.0,0.0,0.0,0.0,0.0,0.0,0.0,0.0,0.0,0.0,0.0,0.0,0.0,0.0,0.0,0.0,0.0,0.0,0.0,0.0,0.0,0.7969,0.8104,0.8289,0.8286,0.8124,0.8293,0.8383,0.0,0.0,0.0,0.0,0.0,0.0,0.0,0.0,0.0,0.0,0.0,0.0,0.0,0.0,0.0,0.0,0.0,0.0,0.0,0.0,0.0,0.0,0.0,0.0,0.0,0.0,0.0,0.0,0.0,0.0,0.0,0.0,0.0,0.0,0.0,0.0,0.0,0.0,0.0,0.0,0.0,0.0,0.0,0.0,0.0,0.0,0.0,0.0,0.0,0.0,0.0,0.0,0.0,0.0,0.0,0.0,0.0,0.0,0.0,0.0,0.0,0.0,0.0,0.0,0.0,0.0,0.0,0.0,0.0,0.0,0.0,0.0,0.0,0.0,0.0,0.0,0.0,0.0,0.0,0.0,0.0,0.0,0.0,0.0,0.0,0.0,0.0,0.0,0.0,0.0,0.0,0.0,0.0,0.0,0.0,0.0,0.0,0.0,0.0,0.0,0.0,0.0,0.0,0.0,0.0,0.0,0.0,0.0,0.0,0.7962,0.8243,0.8315,0.8131,0.8431,0.8341,0.0,0.0,0.0,0.0,0.0,0.0,0.0,0.0,0.0,0.0,0.0,0.0,0.0,0.0,0.0,0.0,0.0,0.0,0.0,0.0,0.0,0.0,0.0,0.0,0.0,0.0,0.0,0.0,0.0,0.0,0.0,0.0,0.0,0.0,0.0,0.0,0.0,0.0,0.0,0.0,0.0,0.0,0.0,0.0,0.0,0.0,0.0,0.0,0.0,0.0,0.0,0.0,0.0,0.0,0.0,0.0,0.0,0.0,0.0,0.0,0.0,0.0,0.0,0.0,0.0,0.0,0.0,0.0,0.0,0.0,0.0,0.0,0.0,0.0,0.0,0.0,0.0,0.0,0.0,0.0,0.0,0.0,0.0,0.0,0.0,0.0,0.0,0.0,0.0,0.0,0.0,0.0,0.0,0.0,0.0,0.0,0.0,0.0,0.0,0.0,0.0,0.0,0.0,0.0,0.0,0.0,0.0,0.0,0.0,0.8004,0.8106,0.8078,0.7875,0.8184,0.8243,0.7961,0.0,0.0,0.0,0.0,0.0,0.0,0.0,0.0,0.0,0.0,0.0,0.0,0.0,0.0,0.0,0.0,0.0,0.0,0.0,0.0,0.0,0.0,0.0,0.0,0.0,0.0,0.0,0.0,0.0,0.0,0.0,0.0,0.0,0.0,0.0,0.0,0.0,0.0,0.0,0.0,0.0,0.0,0.0,0.0,0.0,0.0,0.0,0.0,0.0,0.0,0.0,0.0,0.0,0.0,0.0,0.0,0.0,0.0,0.0,0.0,0.0,0.0,0.0,0.0,0.0,0.0,0.0,0.0,0.0,0.0,0.0,0.0,0.0,0.0,0.0,0.0,0.0,0.0,0.0,0.0,0.0,0.0,0.0,0.0,0.0,0.0,0.0,0.0,0.0,0.0,0.0,0.0,0.0,0.0,0.0,0.0,0.0,0.0,0.0,0.0,0.0,0.0,0.0,0.0,0.0,0.0,0.0,0.0,0.8089,0.789,0.7713,0.7513,0.7736,0.8107,0.0,0.0,0.0,0.0,0.0,0.0,0.0,0.0,0.0,0.0,0.0,0.0,0.0,0.0,0.0,0.0,0.0,0.0,0.0,0.0,0.0,0.0,0.0,0.0,0.0,0.0,0.0,0.0,0.0,0.0,0.0,0.0,0.0,0.0,0.0,0.0,0.0,0.0,0.0,0.0,0.0,0.0,0.0,0.0,0.0,0.0,0.0,0.0,0.0,0.0,0.0,0.0,0.0,0.0,0.0,0.0,0.0,0.0,0.0,0.0,0.0,0.0,0.0,0.0,0.0,0.0,0.0,0.0,0.0,0.0,0.0,0.0,0.0,0.0,0.0,0.0,0.0,0.0,0.0,0.0,0.0,0.0,0.0,0.0,0.0,0.0,0.0,0.0,0.0,0.0,0.0,0.0,0.0,0.0,0.0,0.0,0.0,0.0,0.0,0.0,0.0,0.0,0.0,0.0,0.0,0.0,0.0,0.0,0.0,0.7885,0.7844,0.7696,0.753,0.8225,0.8435,0.0,0.0,0.0,0.0,0.0,0.0,0.0,0.0,0.0,0.0,0.0,0.0,0.0,0.0,0.0,0.0,0.0,0.0,0.0,0.0,0.0,0.0,0.0,0.0,0.0,0.0,0.0,0.0,0.0,0.0,0.0,0.0,0.0,0.0,0.0,0.0,0.0,0.0,0.0,0.0,0.0,0.0,0.0,0.0,0.0,0.0,0.0,0.0,0.0,0.0,0.0,0.0,0.0,0.0,0.0,0.0,0.0,0.0,0.0,0.0,0.0,0.0,0.0,0.0,0.0,0.0,0.0,0.0,0.0,0.0,0.0,0.0,0.0,0.0,0.0,0.0,0.0,0.0,0.0,0.0,0.0,0.0,0.0,0.0,0.0,0.0,0.0,0.0,0.0,0.0,0.0,0.0,0.0,0.0,0.0,0.0,0.0,0.0,0.0,0.0,0.0,0.0,0.0,0.0,0.0,0.0,0.0,0.0,0.8325,0.8193,0.8233,0.8061,0.764,0.8448,0.859,0.0,0.0,0.0,0.0,0.0,0.0,0.0,0.0,0.0,0.0,0.0,0.0,0.0,0.0,0.0,0.0,0.0,0.0,0.0,0.0,0.0,0.0,0.0,0.0,0.0,0.0,0.0,0.0,0.0,0.0,0.0,0.0,0.0,0.0,0.0,0.0,0.0,0.0,0.0,0.0,0.0,0.0,0.0,0.0,0.0,0.0,0.0,0.0,0.0,0.0,0.0,0.0,0.0,0.0,0.0,0.0,0.0,0.0,0.0,0.0,0.0,0.0,0.0,0.0,0.0,0.0,0.0,0.0,0.0,0.0,0.0,0.0,0.0,0.0,0.0,0.0,0.0,0.0,0.0,0.0,0.0,0.0,0.0,0.0,0.0,0.0,0.0,0.0,0.0,0.0,0.0,0.0,0.0,0.0,0.0,0.0,0.0,0.0,0.0,0.0,0.0,0.0,0.0,0.0,0.0,0.0,0.0,0.0,0.845,0.8606,0.8801,0.8541,0.7853,0.8524,0.8604,0.0,0.0,0.0,0.0,0.0,0.0,0.0,0.0,0.0,0.0,0.0,0.0,0.0,0.0,0.0,0.0,0.0,0.0,0.0,0.0,0.0,0.0,0.0,0.0,0.0,0.0,0.0,0.0,0.0,0.0,0.0,0.0,0.0,0.0,0.0,0.0,0.0,0.0,0.0,0.0,0.0,0.0,0.0,0.0,0.0,0.0,0.0,0.0,0.0,0.0,0.0,0.0,0.0,0.0,0.0,0.0,0.0,0.0,0.0,0.0,0.0,0.0,0.0,0.0,0.0,0.0,0.0,0.0,0.0,0.0,0.0,0.0,0.0,0.0,0.0,0.0,0.0,0.0,0.0,0.0,0.0,0.0,0.0,0.0,0.0,0.0,0.0,0.0,0.0,0.0,0.0,0.0,0.0,0.0,0.0,0.0,0.0,0.0,0.0,0.0,0.0,0.0,0.0,0.0,0.0,0.0,0.0,0.0,0.8242,0.7944,0.856,0.8558,0.7831,0.8519,0.8604,0.0,0.0,0.0,0.0,0.0,0.0,0.0,0.0,0.0,0.0,0.0,0.0,0.0,0.0,0.0,0.0,0.0,0.0,0.0,0.0,0.0,0.0,0.0,0.0,0.0,0.0,0.0,0.0,0.0,0.0,0.0,0.0,0.0,0.0,0.0,0.0,0.0,0.0,0.0,0.0,0.0,0.0,0.0,0.0,0.0,0.0,0.0,0.0,0.4195,0.0,0.0,0.0,0.0,0.0,0.0,0.0,0.0,0.0,0.0,0.0,0.0,0.0,0.0,0.0,0.0,0.0,0.0,0.0,0.0,0.0,0.0,0.0,0.0,0.0,0.0,0.0,0.0,0.0,0.0,0.0,0.0,0.0,0.0,0.0,0.0,0.0,0.0,0.0,0.0,0.0,0.0,0.0,0.0,0.0,0.0,0.0,0.0,0.0,0.0,0.0,0.0,0.0,0.0,0.0,0.0,0.0,0.0,0.0,0.8317,0.8193,0.865,0.8743,0.8442,0.8795,0.8707,0.0,0.0,0.0,0.0,0.0,0.0,0.0,0.0,0.0,0.0,0.0,0.0,0.0,0.0,0.0,0.0,0.0,0.0,0.0,0.0,0.0,0.0,0.0,0.0,0.0,0.0,0.0,0.0,0.0,0.0,0.0,0.0,0.0,0.0,0.0,0.0,0.0,0.0,0.0,0.0,0.0,0.0,0.0,0.0,0.0,0.0,0.0,0.0,0.0,0.0,0.0,0.0,0.0,0.0,0.0,0.0,0.0,0.0,0.0,0.0,0.0,0.0,0.0,0.0,0.0,0.0,0.0,0.0,0.0,0.0,0.0,0.0,0.0,0.0,0.0,0.0,0.0,0.0,0.0,0.0,0.0,0.0,0.0,0.0,0.0,0.0,0.0,0.0,0.0,0.0,0.0,0.0,0.0,0.0,0.0,0.0,0.0,0.0,0.0,0.0,0.0,0.0,0.0,0.0,0.0,0.0,0.0,0.8278,0.8481,0.8562,0.8796,0.8973,0.9088,0.9129,0.8914,0.8435,0.0,0.0,0.0,0.0,0.0,0.0,0.0,0.0,0.0,0.0,0.0,0.0,0.0,0.0,0.0,0.0,0.0,0.0,0.0,0.0,0.0,0.0,0.0,0.0,0.0,0.0,0.0,0.0,0.0,0.0,0.0,0.0,0.0,0.0,0.0,0.0,0.0,0.0,0.5139,0.5399,0.0,0.0,0.0,0.0,0.0,0.0,0.0,0.0,0.4787,0.0,0.0,0.0,0.0,0.0,0.0,0.0,0.0,0.0,0.0,0.0,0.0,0.0,0.0,0.0,0.0,0.0,0.0,0.0,0.0,0.0,0.0,0.0,0.0,0.0,0.0,0.0,0.0,0.0,0.0,0.0,0.0,0.0,0.0,0.0,0.0,0.0,0.0,0.0,0.0,0.0,0.0,0.0,0.0,0.0,0.0,0.0,0.0,0.0,0.0,0.0,0.0,0.0,0.0,0.0,0.0,0.7362,0.8203,0.8402,0.7905,0.8644,0.9073,0.9099,0.9326,0.9389,0.9307,0.0,0.0,0.0,0.0,0.0,0.0,0.0,0.0,0.0,0.0,0.0,0.0,0.0,0.0,0.0,0.0,0.0,0.0,0.0,0.0,0.0,0.0,0.0,0.0,0.0,0.0,0.0,0.0,0.0,0.0,0.0,0.0,0.0,0.0,0.0,0.0,0.0,0.0,0.0,0.5109,0.5492,0.0,0.0,0.0,0.0,0.0,0.0,0.0,0.0,0.4589,0.0,0.0,0.0,0.0,0.0,0.0,0.0,0.0,0.0,0.0,0.0,0.0,0.0,0.0,0.0,0.0,0.0,0.0,0.0,0.0,0.0,0.0,0.0,0.0,0.0,0.0,0.0,0.0,0.0,0.0,0.0,0.0,0.0,0.0,0.0,0.0,0.0,0.0,0.0,0.0,0.0,0.0,0.0,0.0,0.0,0.0,0.0,0.0,0.0,0.0,0.0,0.0,0.0,0.0,0.0,0.7677,0.7943,0.8121,0.8227,0.8813,0.9129,0.9199,0.9394,0.9525,0.0,0.0,0.0,0.0,0.0,0.0,0.0,0.0,0.0,0.0,0.0,0.0,0.0,0.0,0.0,0.0,0.0,0.0,0.0,0.0,0.0,0.0,0.0,0.0,0.0,0.0,0.0,0.0,0.0,0.0,0.0,0.0,0.0,0.0,0.0,0.0,0.0,0.0,0.0,0.0,0.5192,0.5502,0.5076,0.0,0.0,0.0,0.0,0.0,0.0,0.4806,0.4825,0.0,0.0,0.0,0.0,0.0,0.0,0.0,0.0,0.0,0.0,0.0,0.0,0.0,0.0,0.0,0.0,0.0,0.0,0.0,0.0,0.0,0.0,0.0,0.0,0.0,0.0,0.0,0.0,0.0,0.0,0.0,0.0,0.0,0.0,0.0,0.0,0.0,0.0,0.0,0.0,0.0,0.0,0.0,0.0,0.0,0.0,0.0,0.0,0.0,0.0,0.0,0.0,0.0,0.0,0.0,0.8177,0.7794,0.7962,0.8755,0.901,0.9194,0.9345,0.9794,0.9925,0.0,0.0,0.0,0.0,0.0,0.0,0.0,0.0,0.0,0.0,0.0,0.0,0.0,0.0,0.0,0.0,0.0,0.0,0.0,0.0,0.0,0.0,0.0,0.0,0.0,0.0,0.0,0.0,0.0,0.0,0.0,0.0,0.0,0.0,0.0,0.0,0.0,0.0,0.0,0.0,0.0,0.5565,0.5406,0.5596,0.0,0.0,0.0,0.0,0.5234,0.5244,0.0,0.0,0.0,0.0,0.0,0.0,0.0,0.0,0.0,0.0,0.0,0.0,0.0,0.0,0.0,0.0,0.0,0.0,0.0,0.0,0.0,0.0,0.0,0.0,0.0,0.0,0.0,0.0,0.0,0.0,0.0,0.0,0.0,0.0,0.0,0.0,0.0,0.0,0.0,0.0,0.0,0.0,0.0,0.0,0.0,0.0,0.0,0.0,0.0,0.0,0.0,0.0,0.0,0.0,0.0,0.0,0.8579,0.8065,0.8172,0.9012,0.9189,0.9327,0.9505,1.0977,1.1136,0.0,0.0,0.0,0.0,0.0,0.0,0.0,0.0,0.0,0.0,0.0,0.0,0.0,0.0,0.0,0.0,0.0,0.0,0.0,0.0,0.0,0.0,0.0,0.0,0.0,0.0,0.0,0.0,0.0,0.0,0.0,0.0,0.0,0.0,0.0,0.0,0.0,0.0,0.0,0.0,0.0,0.5835,0.5066,0.592,0.6532,0.0,0.0,0.5714,0.5725,0.5714,0.0,0.0,0.0,0.0,0.0,0.0,0.0,0.0,0.0,0.0,0.0,0.0,0.0,0.0,0.0,0.0,0.0,0.0,0.0,0.0,0.0,0.0,0.0,0.0,0.0,0.0,0.0,0.0,0.0,0.0,0.0,0.0,0.0,0.0,0.0,0.0,0.0,0.0,0.0,0.0,0.0,0.0,0.0,0.0,0.0,0.0,0.0,0.0,0.0,0.0,0.0,0.0,0.0,0.0,0.0,0.7421,0.8606,0.7752,0.7886,0.9046,0.9294,0.9452,0.95,1.031,1.0421,0.0,0.0,0.0,0.0,0.0,0.0,0.0,0.0,0.0,0.0,0.0,0.0,0.0,0.0,0.0,0.0,0.0,0.0,0.0,0.0,0.0,0.0,0.0,0.0,0.0,0.0,0.0,0.0,0.0,0.0,0.0,0.0,0.0,0.0,0.0,0.0,0.0,0.0,0.0,0.0,0.0,0.0,0.6184,0.6447,0.0,0.0,0.0,0.632,0.6794,0.0,0.0,0.0,0.0,0.0,0.0,0.0,0.0,0.0,0.0,0.0,0.0,0.0,0.0,0.0,0.0,0.0,0.0,0.0,0.0,0.0,0.0,0.0,0.0,0.0,0.0,0.0,0.0,0.0,0.0,0.0,0.0,0.0,0.0,0.0,0.0,0.0,0.0,0.0,0.0,0.0,0.0,0.0,0.0,0.0,0.0,0.0,0.0,0.0,0.0,0.0,0.0,0.0,0.0,0.0,0.0,0.0,0.8733,0.7548,0.7648,0.9146,0.939,0.9517,0.9542,0.9641,0.0,0.0,0.0,0.0,0.0,0.0,0.0,0.0,0.0,0.0,0.0,0.0,0.0,0.0,0.0,0.0,0.0,0.0,0.0,0.0,0.0,0.0,0.0,0.0,0.0,0.0,0.0,0.3404,0.0,0.0,0.0,0.0,0.0,0.0,0.0,0.0,0.0,0.0,0.0,0.0,0.0,0.0,0.6404,0.7248,0.7282,0.7304,0.0,0.0,0.7213,0.7607,0.6888,0.6272,0.0,0.0,0.0,0.0,0.0,0.0,0.0,0.0,0.0,0.0,0.0,0.0,0.0,0.0,0.0,0.0,0.0,0.0,0.0,0.0,0.0,0.0,0.0,0.0,0.0,0.0,0.0,0.0,0.0,0.0,0.0,0.0,0.0,0.0,0.0,0.0,0.0,0.0,0.0,0.0,0.0,0.0,0.0,0.0,0.0,0.0,0.0,0.0,0.0,0.0,0.0,0.0,0.0,0.0,0.0,0.8954,0.7644,0.7745,0.9388,0.9496,0.9577,0.9687,0.9698,0.9725,0.0,0.0,0.0,0.0,0.0,0.0,0.0,0.0,0.0,0.0,0.0,0.0,0.0,0.0,0.0,0.0,0.0,0.0,0.0,0.0,0.0,0.0,0.0,0.0,0.0,0.0,0.0,0.0,0.0,0.0,0.0,0.0,0.0,0.0,0.0,0.0,0.0,0.0,0.0,0.0,0.0,0.6933,0.7739,0.8632,0.901,0.0,0.0,0.8611,0.7739,0.7577,0.717,0.6038,0.0,0.0,0.0,0.0,0.0,0.0,0.0,0.0,0.0,0.0,0.0,0.0,0.0,0.0,0.0,0.0,0.0,0.0,0.0,0.0,0.0,0.0,0.0,0.0,0.0,0.0,0.0,0.0,0.0,0.0,0.0,0.0,0.0,0.0,0.0,0.0,0.0,0.0,0.0,0.0,0.0,0.0,0.0,0.0,0.0,0.0,0.0,0.0,0.0,0.0,0.0,0.0,0.0,0.7938,0.9076,0.8261,0.8373,0.9496,0.9599,0.968,0.9821,0.9283,0.9241,0.0,0.0,0.0,0.0,0.0,0.0,0.0,0.0,0.0,0.0,0.0,0.0,0.0,0.0,0.0,0.0,0.0,0.0,0.0,0.0,0.0,0.0,0.0,0.0,0.0,0.0,0.0,0.0,0.3751,0.3992,0.3982,0.0,0.0,0.0,0.0,0.0,0.0,0.0,0.0,0.0,0.0,0.752,0.7742,0.8394,0.0,0.0,0.8737,0.867,0.8821,0.7971,0.7242,0.7008,0.666,0.0,0.0,0.0,0.0,0.0,0.0,0.0,0.0,0.0,0.0,0.0,0.0,0.0,0.0,0.0,0.0,0.0,0.0,0.0,0.0,0.0,0.0,0.0,0.0,0.0,0.0,0.0,0.0,0.0,0.0,0.0,0.0,0.0,0.0,0.0,0.0,0.0,0.0,0.0,0.0,0.0,0.0,0.0,0.0,0.0,0.0,0.0,0.0,0.0,0.0,0.0,0.0,0.8398,0.9208,0.8697,0.8828,0.9614,0.9706,0.9801,0.9846,0.9021,0.8871,0.0,0.0,0.0,0.0,0.0,0.0,0.0,0.0,0.0,0.0,0.0,0.0,0.0,0.0,0.0,0.0,0.0,0.0,0.0,0.0,0.0,0.0,0.0,0.0,0.0,0.0,0.0,0.0,0.4297,0.4397,0.4397,0.0,0.0,0.0,0.0,0.0,0.0,0.0,0.0,0.0,0.0,0.8068,0.8537,0.908,0.955,0.9882,0.9475,0.9256,0.9568,0.8617,0.7842,0.7695,0.0,0.0,0.0,0.0,0.0,0.0,0.0,0.0,0.0,0.0,0.0,0.0,0.0,0.0,0.0,0.0,0.0,0.0,0.0,0.0,0.0,0.0,0.0,0.0,0.0,0.0,0.0,0.0,0.0,0.0,0.0,0.0,0.0,0.0,0.0,0.0,0.0,0.0,0.0,0.0,0.0,0.0,0.0,0.0,0.0,0.0,0.0,0.0,0.0,0.0,0.0,0.0,0.0,0.0,0.9482,0.8872,0.891,0.9673,0.9829,0.9849,0.9802,0.9071,0.8705,0.8729,0.0,0.0,0.0,0.0,0.0,0.0,0.0,0.0,0.0,0.0,0.0,0.0,0.0,0.0,0.0,0.0,0.0,0.0,0.0,0.0,0.0,0.0,0.0,0.0,0.0,0.0,0.5446,0.4867,0.4427,0.0,0.0,0.0,0.0,0.0,0.0,0.0,0.0,0.0,0.0,0.8066,0.8571,1.034,1.1134,1.146,1.15,1.1215,1.0697,0.9765,0.9609,0.9172,0.0,0.0,0.0,0.0,0.0,0.0,0.0,0.0,0.0,0.0,0.0,0.0,0.0,0.0,0.0,0.0,0.0,0.0,0.0,0.0,0.0,0.0,0.0,0.0,0.0,0.0,0.0,0.9006,0.8835,0.0,0.0,0.0,0.0,0.0,0.0,0.0,0.0,0.0,0.0,0.0,0.7794,0.793,0.0,0.0,0.0,0.0,0.0,0.0,0.0,0.0,0.0,0.0,0.0,0.0,0.9234,0.9556,0.9487,0.9583,0.9882,0.9891,0.9922,0.9975,0.9163,0.8475,0.7981,0.0,0.0,0.0,0.0,0.0,0.0,0.0,0.0,0.0,0.0,0.0,0.0,0.0,0.0,0.0,0.0,0.0,0.0,0.0,0.0,0.0,0.0,0.0,0.0,0.0,0.5331,0.0,0.0,0.0,0.0,0.0,0.0,0.0,0.0,0.0,0.0,0.0,0.742,0.8211,0.9131,0.9988,1.0631,1.1197,1.1465,0.0,0.0,0.0,0.0,0.0,0.0,0.0,0.0,0.0,0.0,0.0,0.0,0.0,0.0,0.9915,0.8088,0.7251,0.6713,0.63,0.0,0.0,0.0,0.0,0.0,0.0,0.0,0.0,0.0,0.0,0.0,0.0,0.0,0.0,0.0,0.0,0.9417,0.0,0.0,0.0,0.0,0.0,0.0,0.0,0.0,0.8522,0.8733,0.8961,0.9098,0.917,0.0,0.9311,0.9081,0.0,0.0,0.0,0.0,0.0,0.0,0.0,0.0,0.9906,1.0536,1.0455,1.0443,1.0584,1.0483,1.0523,1.0715,0.9444,0.8509,0.8027,0.7968,0.8042,0.0,0.0,0.0,0.0,0.0,0.0,0.0,0.0,0.0,0.0,0.0,0.0,0.0,0.0,0.0,0.0,0.0,0.0,0.0,0.0,0.0,0.0,0.0,0.5888,0.0,0.0,0.0,0.0,0.0,0.0,0.0,0.0,0.0,0.7024,0.7598,0.8241,0.8786,0.9894,1.0799,1.1224,0.0,0.0,0.0,0.0,0.0,0.0,0.0,1.0737,1.1262,1.1044,1.0596,1.0094,0.8854,0.8552,1.0414,0.0,0.0,0.9255,0.8161,0.7528,0.6948,0.6831,0.69,0.7016,0.7305,0.7564,0.0,0.0,0.0,0.0,0.0,0.0,0.0,0.0,0.9649,1.0401,0.0,1.0656,0.0,0.0,0.0,0.0,0.0,0.0,0.0,0.0,0.955,0.9913,1.0573,1.059,1.0606,1.0623,1.0975,1.0678,0.9709,0.8261,0.0,0.0,0.0,0.0,0.0,0.0,1.0584,1.2227,1.1654,1.147,1.1716,1.152,1.1602,1.1878,0.9991,0.8888,0.8812,0.8789,0.838,0.7526,0.8994,0.0,0.0,0.0,0.0,0.0,0.0,0.0,0.0,0.0,0.0,0.0,0.0,0.0,0.0,0.0,0.0,0.0,0.0,0.0,0.0,0.6517,0.0,0.0,0.0,0.0,0.0,0.0,0.0,0.0,0.0,0.0,0.7996,0.8518,0.9228,0.9894,0.0,0.0,0.0,0.0,1.1838,1.376,1.3605,1.3268,1.3397,1.3305,1.2871,1.1986,0.0,0.0,1.0756,1.1974,1.2646,1.1513,1.2349,1.2613,1.0749,0.8938,0.7938,0.8283,0.8022,0.8051,0.8779,0.9057,0.9485,1.4601,0.0,0.0,0.0,0.0,1.2371,1.2222,1.2334,1.1648,1.1548,1.1833,1.1444,0.0,0.0,0.0,0.0,0.0,0.0,1.0421,1.0495,1.0495,1.0652,1.0961,1.0968,1.0944,1.0985,1.1232,1.1202,1.0884,1.0148,0.9482,0.8997,0.0,0.0,0.0,0.0,1.1702,1.164,1.2118,1.239,1.2421,1.2366,1.2098,1.1594,1.1025,1.0135,0.8911,0.8869,0.8747,0.8456,0.7177,0.0,0.0,0.0,0.0,0.0,0.0,0.0,0.0,0.0,0.0,0.0,0.0,0.0,0.0,0.0,0.0,0.0,0.0,0.0,0.6328,0.6827,0.7253,0.0,0.0,0.0,0.0,0.0,0.0,0.0,0.0,0.0,1.0002,1.0373,1.0833,0.0,0.0,1.324,1.3988,1.3671,1.3511,1.398,0.0,0.0,0.0,1.2438,1.236,1.2731,1.2892,1.2985,1.3043,1.3118,1.3068,1.2676,1.2936,1.2702,1.1205,0.9685,0.8742,0.8792,0.8704,0.8685,0.8955,0.9094,0.9221,1.6508,1.4684,1.4598,1.4302,1.3862,1.3623,1.3347,1.307,1.248,1.2523,1.3007,1.2516,1.2169,1.1964,1.1923,0.0,0.0,0.0,1.1495,1.1521,1.1545,1.1749,1.2092,1.2085,1.2135,1.2213,1.2228,1.2187,1.2115,1.2046,1.1457,1.0457,0.0,0.0,1.1336,1.2162,1.2691,1.288,1.3102,1.3396,1.373,1.3395,1.2632,1.1464,1.1445,1.0811,0.9476,0.9406,0.9223,0.8864,0.7688,0.7289,0.0,0.0,0.0,0.0,0.0,0.0,0.0,0.0,0.0,0.0,0.0,0.4645,0.4281,0.0,0.0,0.0,0.549,0.6307,0.6857,0.7311,0.0,0.0,0.0,0.0,0.0,0.0,0.0,1.0038,1.044,1.0926,1.1733,1.233,1.262,1.2428,1.3356,1.4206,1.4641,0.0,1.4445,1.4288,1.404,1.376,1.3433,1.301,1.2837,1.3138,1.321,1.3298,1.3652,1.3428,1.3223,1.3206,1.3213,1.287,1.1838,1.0802,0.9821,0.9168,0.9123,0.9231,0.924,0.9395,0.9512,1.787,1.7759,1.7515,1.6222,1.4405,1.4889,1.4296,1.2943,1.2855,1.3649,1.4918,1.3969,1.3875,1.4375,1.3082,0.0,0.0,1.2552,1.2788,1.284,1.2844,1.3185,1.3835,1.3858,1.3946,1.4129,1.383,1.3594,1.3437,1.3845,1.3643,1.2795,1.1932,1.2327,1.3779,1.3254,1.3698,1.5245,1.4512,1.4504,1.5272,1.4523,1.3268,1.1555,1.15,1.1106,1.0249,1.0135,0.9737,0.8994,0.9672,0.8544,0.5367,0.0,0.0,0.0,0.0,0.0,0.0,0.0,0.0,0.0,0.0,0.0,0.0,0.0,0.0,0.0,0.6103,0.0,0.7334,0.7856,0.0,0.0,0.0,0.8876,0.8874,0.9484,1.0001,1.0286,0.0,0.0,0.0,0.0,1.4313,1.2969,1.3728,1.4457,1.4526,1.4699,1.4761,1.4578,1.3715,1.3454,1.4075,1.3928,1.3458,1.3035,1.311,1.3098,1.3123,1.321,1.3198,1.321,1.3213,1.3039,1.2585,1.2044,1.1303,0.9598,0.953,0.9714,0.9697,0.995,1.0174,1.7515,1.6947,1.7482,1.7422,1.6986,1.706,1.6888,1.6546,1.6417,1.66,1.6908,1.656,1.6487,1.6575,1.551,1.5318,1.5824,1.5766,1.5711,1.5627,1.5724,1.5814,1.589,1.5996,1.6052,1.6072,1.5526,1.5269,1.5231,1.4881,1.4925,1.538,1.5235,1.4738,1.3961,1.5056,1.5546,1.5299,1.5726,1.5739,1.5299,1.5109,1.4152,1.2426,1.2442,1.1753,1.0271,1.0195,1.0068,0.9815,0.9983,0.9124,0.7059,0.6332,0.0,0.0,0.0,0.0,0.0,0.0,0.0,0.0,0.0,0.6336,0.6119,0.0,0.6471,0.0,0.7836,0.8038,0.7448,0.8108,0.0,0.0,0.9296,0.9578,1.0882,1.0355,1.0484,1.2004,1.253,1.3026,1.3543,1.4318,1.4504,1.3669,1.4718,1.5447,1.5023,1.4828,1.4522,1.3962,1.2886,1.2159,1.2395,1.2294,1.2197,1.2002,1.2328,1.253,1.2399,1.2834,1.321,1.321,1.3218,1.3027,1.2573,1.2283,1.1903,1.1263,1.0888,1.0543,1.0222,1.0195,1.0142,1.8196,1.777,1.7828,1.7878,1.7913,1.7467,1.7044,1.6674,1.6601,1.6581,1.6592,1.6743,1.7041,1.7335,1.6722,1.672,1.7207,1.7125,1.6969,1.6824,1.6904,1.6896,1.6884,1.6944,1.7019,1.7098,1.6745,1.6598,1.6647,1.6279,1.6362,1.6873,1.6905,1.6562,1.5885,1.6647,1.6751,1.6199,1.63,1.5975,1.5156,1.5154,1.453,1.3267,1.3642,1.3071,1.1378,1.1682,1.1718,1.1301,1.0526,0.9329,0.7716,0.7279,0.8178,0.0,0.0,0.0,0.0,0.0,0.0,0.0,0.0,0.0,0.0,0.0,0.7203,0.0,0.8611,0.0,0.8944,0.9666,1.0347,1.088,1.0409,1.042,1.1424,1.1062,1.1296,1.2759,1.3107,1.3301,1.3483,1.3989,1.4122,1.3451,1.4314,1.4906,1.46,1.44,1.411,1.3544,1.2259,1.1481,1.1708,1.1774,1.1742,1.1645,1.1854,1.204,1.2109,1.2708,1.3113,1.2764,1.2184,1.183,1.2033,1.2147,1.2068,1.185,1.1719,1.1494,1.1075,1.0724,1.0482,1.9005,1.8953,1.82,1.7919,1.791,1.7107,1.6338,1.5634,1.5627,1.5684,1.5812,1.6282,1.6964,1.7757,1.7585,1.7614,1.7776,1.7775,1.7672,1.7507,1.7504,1.7534,1.7577,1.7613,1.7703,1.7846,1.7754,1.774,1.7758,1.7642,1.7653,1.7711,1.7713,1.7899,1.8294,1.7947,1.7617,1.7297,1.6508,1.5758,1.5074,1.5219,1.4912,1.4176,1.4808,1.4451,1.2966,1.3587,1.3629,1.279,1.1344,0.9756,0.808,0.9583,1.1021,0.0,1.1654,0.0,0.0,0.0,0.0,0.0,0.0,0.0,0.0,0.7947,0.8526,0.9017,0.9194,0.9727,1.0834,1.1454,1.1843,1.1958,1.1652,1.1449,1.1483,1.1846,1.2355,1.2999,1.3483,1.363,1.3166,1.3436,1.3436,1.2984,1.3214,1.358,1.368,1.3688,1.3534,1.3062,1.1885,1.134,1.172,1.1946,1.1923,1.1665,1.1713,1.1719,1.1708,1.2419,1.2731,1.1916,1.0992,1.0634,1.1532,1.2004,1.2193,1.2008,1.2198,1.2248,1.1816,1.1353,1.1191,1.8079,1.8033,1.7882,1.7824,1.7835,1.772,1.7558,1.7412,1.7338,1.773,1.8374,1.8501,1.8976,1.9729,1.9699,1.9703,1.9754,1.9801,1.9771,1.9619,1.9726,1.9729,1.9626,1.9749,1.9793,1.9726,1.9109,1.8729,1.8551,1.7916,1.7864,1.8398,1.8208,1.8393,0.0,0.0,0.0,0.0,1.6517,1.6036,1.5904,1.6526,1.6498,1.5764,1.5297,0.0,1.3736,1.3883,1.3598,1.2778,1.2843,0.0,0.0,0.0,0.0,0.0,0.0,0.0,0.0,0.0,0.0,0.0,1.0784,1.0513,0.906,0.9641,1.0325,1.0842,1.1169,1.1251,1.1071,1.1165,1.1434,1.1877,1.2358,1.27,1.2826,1.3396,1.3613,1.2929,1.3406,1.357,1.2996,1.2939,1.2939,1.2774,1.2445,1.2418,1.2954,1.3145,1.2829,1.1889,1.1755,1.1601,1.1387,1.1836,1.2053,1.1761,1.1989,1.1731,1.0797,1.1279,1.1543,1.0677,1.0829,1.1453,1.21,1.2643,1.288,1.292,1.2655,1.2309,1.189,1.1681,1.1495,1.8276,0.0,1.7945,1.7795,0.0,1.7849,1.7862,1.7848,1.7883,1.8368,1.9149,1.9146,1.9588,2.0345,2.0364,2.0107,1.9699,1.9748,1.9707,1.9641,1.9282,1.932,1.9713,1.9748,1.9707,1.9616,1.9628,1.9556,1.9333,1.8812,1.8655,1.8896,1.8469,1.8318,1.8428,1.7933,1.7372,1.6818,1.6503,1.5919,1.5086,1.5564,1.5687,1.5347,0.0,0.0,0.0,0.0,0.0,0.0,0.0,0.0,0.0,0.0,0.0,1.3476,1.2717,1.188,1.1089,1.1729,1.18,1.0994,1.1627,1.1684,1.0638,1.1289,1.1623,1.1441,1.2658,1.3169,1.2354,1.288,1.3413,1.3702,1.3949,1.4116,1.4186,1.4239,1.414,1.3822,1.3782,1.359,1.3065,1.287,1.2662,1.2385,1.2325,1.243,1.2699,1.2588,1.2364,1.2482,1.2704,1.2682,1.2342,1.2266,1.2325,1.2017,1.1967,1.1653,1.0904,1.1204,1.1556,1.1469,1.1611,1.1716,1.1955,1.2425,1.2814,1.2826,1.2814,1.2746,1.2507,1.2263,1.2086,1.8982,1.8922,1.8372,1.818,1.8181,1.8196,1.8231,1.824,0.0,0.0,0.0,1.9204,1.9636,2.0375,2.0377,2.0005,1.934,1.9333,1.9319,1.9302,1.844,1.8453,1.9179,1.8953,1.879,1.8703,1.9548,1.9819,1.9565,1.9477,1.9296,1.896,1.8512,1.8101,1.7692,1.7107,1.6651,1.6387,1.6485,1.5823,1.4398,1.4733,1.491,1.4859,1.5832,1.6006,1.5277,1.6031,1.5794,1.434,1.4357,1.4704,1.5175,1.2588,1.2123,1.4418,1.3579,1.272,1.2348,1.305,1.3016,1.1857,1.238,1.2628,1.2393,1.2874,1.2946,1.2351,1.4247,1.502,1.3965,1.4888,1.5595,1.5595,1.5399,1.5222,1.5149,1.4765,1.4476,1.4454,1.4039,1.3587,1.3124,1.2977,1.2678,1.2287,1.2629,1.2975,1.2912,1.2633,1.2801,1.3868,1.4013,1.3818,1.3485,1.3332,1.2953,1.2638,1.2295,1.2,1.1892,1.1876,1.2247,1.2874,1.2409,1.1973,1.1786,1.2237,1.2529,1.2538,1.2902,1.321,1.3173,1.2864,1.268,1.9641,1.9658,1.956,1.9592,1.9694,1.9754,1.9895,1.9902,1.8543,1.8371,1.9113,1.9178,1.9637,2.0389,2.0389,2.033,2.0214,2.0217,2.0212,0.0,1.9375,1.9079,1.9151,1.8304,1.7857,1.7841,1.854,1.8691,1.8375,1.8915,1.8911,1.8346,1.823,1.8058,1.7822,1.7905,1.7528,1.6669,1.6448,1.6229,1.5984,1.6687,1.69,1.6563,1.6588,1.6502,1.6143,1.6258,1.5943,1.5188,1.5794,1.5916,1.5381,1.478,1.4241,1.3723,1.4367,1.4072,1.2465,1.3114,1.4057,1.5075,1.52,1.4897,1.4219,1.4213,1.4721,1.5713,1.6267,1.6316,1.5731,1.5647,1.5699,1.5612,1.5583,1.5439,1.5159,1.4994,1.4654,1.394,1.3696,1.3368,1.2939,1.2993,1.3106,1.3068,1.337,1.3674,1.3709,1.3587,1.4084,1.5098,1.5015,1.451,1.4195,1.4457,1.43,1.3779,1.3551,1.3259,1.2885,1.2839,1.2951,1.3175,1.2995,1.2701,1.2216,1.2622,1.2973,1.304,1.3165,1.321,1.321,1.3098,1.3073,1.9688,1.9688,1.9755,1.9836,1.9906,2.0002,2.0059,2.0027,1.9383,1.934,1.977,1.9822,2.0046,2.0368,2.0387,2.0133,1.9701,1.9685,1.9683,1.9642,1.8746,1.8559,1.8924,1.8393,1.7837,1.7397,1.8047,1.7975,1.7322,1.7409,1.7498,1.7542,1.749,1.7474,1.7492,1.6931,1.6766,1.7015,1.6442,1.5889,1.5349,1.5775,1.6,1.5929,1.6408,1.6756,1.6829,1.691,1.6639,1.5985,1.6794,1.6895,1.6092,1.556,1.5405,1.5774,1.6249,1.6159,1.5238,1.5475,1.596,1.6641,1.6664,1.6638,1.6614,1.6097,1.6043,1.6573,1.7,1.7108,1.6681,1.6856,1.6802,1.6252,1.6208,1.5978,1.5415,1.4857,1.4413,1.4081,1.3466,1.3147,1.3394,1.3289,1.3392,1.3729,1.4113,1.4471,1.481,1.4878,1.5059,1.564,1.5518,1.5307,1.5065,1.5022,1.4938,1.461,1.4165,1.3749,1.3314,1.3217,1.3208,1.3209,1.3213,1.3085,1.2705,1.2939,1.3173,1.321,1.321,1.321,1.321,1.321,1.321,1.9914,2.0,2.0106,2.0194,2.0302,2.0435,2.0435,2.0355,2.0508,2.0662,2.0769,2.05,2.037,2.037,2.037,1.9999,1.9424,1.9321,1.9325,1.9195,1.8278,1.8128,1.8565,1.8294,1.7671,1.7069,1.7537,1.738,1.6626,1.6357,1.6441,1.6758,1.6663,1.6616,1.6703,1.5718,1.5743,1.6698,1.594,1.5301,1.4908,1.4908,1.5021,1.5335,1.6314,1.6958,1.7141,1.733,1.7216,1.6804,1.7462,1.7564,1.6909,1.6394,1.6613,1.7665,1.7893,1.7834,1.7642,1.749,1.7506,1.771,1.7691,1.7958,1.8497,1.7966,1.7436,1.7307,1.7781,1.7864,1.739,1.7633,1.7606,1.6659,1.6363,1.5942,1.5366,1.4515,1.4107,1.4278,1.3611,1.3429,1.4087,1.4053,1.4066,1.4563,1.4914,1.5326,1.5722,1.5841,1.5884,1.5813,1.5814,1.5754,1.5785,1.5522,1.524,1.5164,1.4611,1.399,1.3494,1.3217,1.3213,1.3225,1.3221,1.3204,1.3203,1.3198,1.321,1.321,1.321,1.321,1.321,1.321,1.321,2.0845,2.1141,2.1097,2.1412,2.1749,2.1891,2.1933,2.1913,2.1971,2.201,2.1864,2.077,2.0291,2.0299,2.0332,2.0213,2.0105,1.9996,1.9891,1.9778,1.888,1.8366,1.8242,1.7358,1.6699,1.6489,1.6853,1.6853,1.6469,1.6825,1.6675,1.6028,1.5899,1.5666,1.5127,1.4926,1.5037,1.5374,1.4418,1.462,1.5929,1.5466,1.5381,1.5825,1.6809,1.7149,1.6838,1.7105,1.7359,1.7414,1.769,1.7806,1.7769,1.8239,1.8329,1.7909,1.8336,1.836,1.7788,1.7515,1.7786,1.8555,1.8492,1.8663,1.9319,1.9368,1.9251,1.8978,1.9028,1.8575,1.7797,1.7551,1.715,1.6205,1.5599,1.4873,1.4694,1.3912,1.3717,1.441,1.4389,1.4617,1.5231,1.5381,1.549,1.5564,1.5798,1.5969,1.5941,1.6025,1.6067,1.587,1.5814,1.5814,1.5784,1.5784,1.5551,1.5195,1.5044,1.4528,1.3805,1.3356,1.3256,1.3687,1.3221,1.3217,1.3208,1.321,1.321,1.321,1.321,1.321,1.321,1.321,1.321,2.0888,2.1013,2.1213,2.1525,2.1884,2.2028,2.2051,2.1967,2.2059,2.2084,2.2032,2.1507,2.1059,2.069,2.0227,2.0002,1.9998,1.9919,1.9885,1.982,1.9214,1.8885,1.8713,1.8147,1.7434,1.6702,1.6713,1.6305,1.5714,1.6047,1.6132,1.5823,1.5956,1.6048,1.5891,1.4801,1.4561,1.5169,1.3483,1.345,1.5009,1.4802,1.483,1.5425,1.6288,1.6882,1.7107,1.7705,1.8165,1.8394,1.8931,1.9282,1.934,1.9698,1.9739,1.9385,1.9532,1.9532,1.9242,1.8731,1.8559,1.8912,1.8365,1.8169,1.8378,1.9165,1.9451,1.8807,1.8496,1.7965,1.7207,1.7337,1.7185,1.6378,1.6264,1.6125,1.5434,1.5097,1.5044,1.5143,1.5172,1.5426,1.6085,1.6486,1.6559,1.643,1.638,1.6318,1.633,1.6186,1.5956,1.5842,1.5814,1.5814,1.5814,1.5814,1.5697,1.5522,1.527,1.4803,1.4737,1.3706,1.3478,1.446,1.3881,1.3372,1.3208,1.3221,1.321,1.321,1.321,1.321,1.321,1.321,1.321,2.115,2.1363,2.1693,2.1958,2.2208,2.239,2.2399,2.2356,2.2531,2.2597,2.2578,2.2374,2.1977,2.1369,2.0734,2.032,2.0032,1.9976,1.9782,1.9516,1.9099,1.8837,1.8752,1.8393,1.7752,1.6965,1.6614,1.6017,1.5201,1.5439,1.5612,1.5553,1.584,1.5993,1.5832,1.4445,1.42,1.4761,1.3096,1.2963,1.4234,1.4034,1.4292,1.5245,1.5942,1.6565,1.705,1.7837,1.8331,1.8539,1.9219,1.963,1.9706,1.9803,1.9823,1.9721,1.965,1.9613,1.9588,1.905,1.8811,1.8925,1.8376,1.8095,1.8295,1.8849,1.8928,1.8478,1.8206,1.787,1.7154,1.7475,1.7361,1.6594,1.696,1.6886,1.6089,1.5983,1.5926,1.5918,1.59,1.6123,1.6746,1.7079,1.7105,1.6799,1.6672,1.6461,1.6517,1.6237,1.6067,1.5842,1.5814,1.5814,1.5814,1.5814,1.5814,1.5741,1.5477,1.5402,1.5638,1.4421,1.3763,1.4673,1.4132,1.3869,1.3752,1.3626,1.3301,1.3245,1.321,1.321,1.321,1.321,1.321,2.199,2.2607,2.2976,2.3041,2.3146,2.3419,2.3572,2.3453,2.3845,2.4034,2.385,2.3244,2.2757,2.2402,2.2115,2.1505,2.0622,2.0412,1.987,1.9018,1.8502,1.8059,1.7742,1.7432,1.7142,1.6837,1.6433,1.6061,1.5688,1.5616,1.5333,1.491,1.5237,1.4898,1.4257,1.3989,1.395,1.4212,1.354,1.3456,1.3931,1.346,1.4066,1.5687,1.6088,1.6265,1.6548,1.7063,1.7363,1.7373,1.775,1.7951,1.8059,1.8102,1.8177,1.8114,1.8038,1.7987,1.7989,1.7976,1.8223,1.8845,1.8826,1.9123,1.9276,1.8539,1.8116,1.8379,1.8825,1.8768,1.8141,1.8009,1.7676,1.6837,1.6706,1.6608,1.6177,1.6281,1.6271,1.656,1.6675,1.6833,1.7205,1.7287,1.7199,1.703,1.7064,1.6953,1.6309,1.6423,1.6351,1.5984,1.5814,1.5814,1.5814,1.5814,1.5814,1.577,1.5697,1.561,1.5477,1.527,1.5103,1.5024,1.511,1.4957,1.4543,1.41,1.3648,1.3425,1.3262,1.321,1.321,1.321,1.321,2.2048,2.2755,2.2853,2.3009,2.32,2.3335,2.338,2.3374,2.3493,2.3555,2.3501,2.3239,2.3059,2.2952,2.287,2.2082,2.0793,2.0671,2.0304,1.9699,1.9338,1.8983,1.855,1.7906,1.7426,1.7027,1.626,1.5694,1.5389,1.53,1.5198,1.5052,1.5124,1.4963,1.4629,1.4207,1.4179,1.4505,1.4132,1.407,1.4428,1.4421,1.498,1.6011,1.5239,1.4941,1.5337,1.6097,1.6559,1.666,1.7305,1.7734,1.7858,1.8214,1.8242,1.7979,1.8211,1.8436,1.8564,1.8642,1.8763,1.8962,1.8484,1.8323,1.8386,1.8036,1.7917,1.8439,1.8959,1.9103,1.8867,1.8427,1.7958,1.7713,1.8001,1.8149,1.7957,1.7781,1.7681,1.7666,1.7529,1.7468,1.7541,1.7624,1.7577,1.7472,1.7356,1.7073,1.6738,1.6583,1.6326,1.5956,1.5814,1.5814,1.5814,1.5814,1.5814,1.5814,1.577,1.5756,1.5654,1.561,1.5448,1.5388,1.5698,1.5591,1.5003,1.4417,1.3964,1.3442,1.3279,1.3318,1.321,1.3232,1.3245,2.1788,2.2358,2.2381,2.2582,2.2908,2.3044,2.3063,2.3057,2.3153,2.3189,2.3189,2.3189,2.3141,2.3057,2.3033,2.2337,2.1139,2.1057,2.0721,2.0123,1.9721,1.9331,1.8947,1.817,1.7559,1.7045,1.6038,1.5354,1.5119,1.5119,1.5119,1.5105,1.5119,1.5119,1.5018,1.4644,1.4659,1.499,1.4884,1.4849,1.5046,1.5317,1.5727,1.6077,1.5292,1.4961,1.541,1.6109,1.6522,1.6719,1.7305,1.7734,1.784,1.7694,1.7752,1.7903,1.8061,1.8321,1.8625,1.8718,1.8839,1.9079,1.8545,1.8203,1.8488,1.8526,1.8682,1.8958,1.9162,1.9383,1.922,1.8794,1.85,1.8537,1.8985,1.9222,1.9018,1.8726,1.8405,1.8052,1.7854,1.7794,1.7789,1.7789,1.7777,1.7789,1.7584,1.737,1.7026,1.671,1.6272,1.5898,1.5814,1.5814,1.5814,1.5829,1.5844,1.5858,1.5814,1.5814,1.5859,1.5844,1.5815,1.5815,1.5787,1.5728,1.5382,1.4788,1.4203,1.3607,1.3493,1.3577,1.3442,1.3288,1.3446,2.1244,2.1628,2.1612,2.1926,2.2329,2.2664,2.276,2.2764,2.3026,2.3099,2.3075,2.3147,2.2952,2.2746,2.2656,2.2228,2.1559,2.1445,2.0947,2.0053,1.9384,1.9055,1.8954,1.8128,1.7364,1.6775,1.5828,1.5303,1.5228,1.5218,1.5205,1.5162,1.5088,1.5044,1.5104,1.5017,1.5256,1.5629,1.5686,1.5711,1.5723,1.6001,1.6281,1.6454,1.653,1.6697,1.6915,1.7137,1.7202,1.7255,1.752,1.7774,1.7666,1.6527,1.6229,1.7606,1.7531,1.7518,1.7881,1.8079,1.8603,1.9068,1.9063,1.9296,1.9831,2.0007,1.991,1.9684,1.9576,1.9481,1.9324,1.9224,1.9168,1.9279,1.9279,1.9212,1.9043,1.877,1.8383,1.7943,1.78,1.78,1.7789,1.7789,1.7789,1.7789,1.7766,1.7507,1.702,1.6862,1.655,1.6073,1.6084,1.6293,1.6054,1.5844,1.5874,1.5889,1.5844,1.5814,1.5935,1.5965,1.5832,1.5817,1.5817,1.5742,1.5647,1.5084,1.4747,1.4267,1.4129,1.4143,1.4294,1.4318,1.405,2.0781,2.1213,2.1476,2.1673,2.1868,2.2274,2.244,2.2422,2.2561,2.2584,2.2584,2.2571,2.2517,2.2368,2.2093,2.1604,2.1067,2.1103,2.0818,2.0225,1.994,1.9665,1.9285,1.833,1.7164,1.6141,1.5993,1.5958,1.5896,1.5841,1.5782,1.5679,1.5057,1.4844,1.5088,1.4876,1.5135,1.6048,1.6362,1.6554,1.6815,1.7271,1.7615,1.7887,1.8125,1.8348,1.8507,1.7743,1.7319,1.7353,1.7558,1.7752,1.7569,1.6229,1.6165,1.779,1.8903,1.9133,1.8867,1.9239,1.9609,1.9868,1.9885,2.0012,2.0219,2.0182,2.0006,1.979,1.956,1.9354,1.932,1.9279,1.9279,1.9279,1.9279,1.9266,1.9142,1.8843,1.8391,1.7916,1.7789,1.7789,1.78,1.7817,1.7867,1.7867,1.7856,1.7654,1.7106,1.7298,1.7178,1.6593,1.6789,1.6937,1.6802,1.6712,1.6727,1.6563,1.6353,1.6278,1.6308,1.6278,1.6097,1.6231,1.6173,1.5993,1.5852,1.5591,1.5343,1.5159,1.5087,1.527,1.5579,1.5445,1.5079,2.033,2.0748,2.1007,2.1321,2.1598,2.1781,2.1915,2.2003,2.1869,2.1811,2.1811,2.1811,2.1811,2.1751,2.1507,2.1101,2.0653,2.0716,2.0515,2.0141,2.0041,1.9899,1.9474,1.8285,1.709,1.6176,1.6367,1.6486,1.6318,1.658,1.6626,1.6331,1.5544,1.523,1.539,1.5005,1.5256,1.6188,1.6633,1.6968,1.7363,1.7984,1.8448,1.8614,1.8922,1.9166,1.9246,1.8584,1.823,1.8276,1.851,1.8709,1.8725,1.7879,1.7739,1.8828,1.9785,2.0193,1.9805,2.006,2.0377,2.0346,2.0308,2.0292,2.0269,2.0107,1.9946,1.9778,1.9579,1.9398,1.932,1.9279,1.9279,1.9279,1.9279,1.9227,1.9056,1.8798,1.8391,1.7971,1.7789,1.7789,1.7817,1.8104,1.8183,1.8234,1.8442,1.8469,1.8019,1.8049,1.7761,1.7471,1.7422,1.7523,1.7609,1.7624,1.7639,1.7355,1.7026,1.6996,1.701,1.6948,1.684,1.7649,1.7881,1.739,1.7155,1.667,1.6348,1.6207,1.6087,1.6245,1.6411,1.6292,1.6024,1.9927,2.0246,2.0299,2.0781,2.1399,2.1181,2.1291,2.1476,2.1213,2.1086,2.1071,2.1134,2.1071,2.1039,2.1007,2.0699,2.0316,2.028,2.0054,1.9699,1.9525,1.9368,1.9045,1.7917,1.7043,1.656,1.685,1.6876,1.665,1.7236,1.7547,1.7192,1.6525,1.6162,1.6107,1.554,1.5654,1.6454,1.6733,1.7043,1.738,1.8153,1.8585,1.8631,1.9023,1.9282,1.9295,1.9426,1.9656,1.9814,1.9943,2.0062,2.0329,2.0483,2.0282,2.0352,2.0566,2.0547,2.047,2.0377,2.0383,2.0381,2.0328,2.0288,2.0277,2.0093,1.9922,1.9796,1.9637,1.9478,1.9335,1.9279,1.9279,1.9279,1.9279,1.9105,1.868,1.8604,1.8351,1.7966,1.7817,1.7901,1.8036,1.8589,1.8877,1.9063,1.9423,1.9433,1.9263,1.8929,1.8764,1.8516,1.8245,1.829,1.8416,1.8416,1.8431,1.8373,1.8014,1.7878,1.7848,1.777,1.7873,1.8715,1.9097,1.8659,1.8163,1.7547,1.7295,1.7228,1.7168,1.7183,1.7274,1.7351,1.7203,1.9764,1.9892,2.0176,2.0433,2.0682,2.0862,2.1055,2.1134,2.1039,2.0942,2.0991,2.1007,2.0926,2.0943,2.06,2.023,1.9866,1.9826,1.9573,1.9099,1.8674,1.8241,1.7959,1.7531,1.7019,1.6656,1.7042,1.7363,1.7614,1.7791,1.8022,1.8219,1.733,1.7009,1.7131,1.6572,1.6666,1.7257,1.7203,1.7374,1.7777,1.8332,1.8585,1.8642,1.9084,1.9308,1.9335,1.9619,1.9925,2.0153,2.0252,2.0329,2.0404,2.0515,2.0605,2.0605,2.0605,2.0584,2.0509,2.0437,2.0394,2.0338,2.0308,2.0288,2.03,2.0026,1.9877,1.9743,1.9559,1.9438,1.9349,1.937,1.9352,1.9279,1.9444,1.9241,1.8779,1.8576,1.8391,1.7967,1.833,1.8623,1.891,1.9321,1.9693,1.9744,1.9921,2.006,1.9936,1.9704,1.9527,1.9341,1.9148,1.9185,1.9226,1.9226,1.9241,1.9301,1.9124,1.8882,1.8837,1.8775,1.9031,1.9562,1.9465,1.914,1.8597,1.8011,1.8043,1.8167,1.8214,1.8224,1.8767,1.8977,1.864,1.9497,1.9741,2.0248,2.0402,2.0359,2.0708,2.0829,2.068,2.0515,2.0431,2.0448,2.0448,2.0314,2.0128,2.0054,1.9618,1.9074,1.9247,1.9062,1.8593,1.8269,1.7713,1.7209,1.7146,1.7126,1.693,1.736,1.792,1.8349,1.8374,1.8626,1.8864,1.8212,1.8019,1.8352,1.7745,1.7724,1.8331,1.8319,1.8438,1.8916,1.9335,1.9396,1.9406,1.9615,1.9747,1.9592,1.9701,1.9965,2.0216,2.0292,2.0307,2.0353,2.0521,2.0605,2.0605,2.0605,2.0565,2.0509,2.0435,2.0383,2.0316,2.0287,2.0257,2.0243,2.0202,2.03,2.0238,2.0256,2.0339,2.0362,2.0362,2.0344,2.0417,2.0344,1.9997,1.9192,1.9408,1.9276,1.9036,1.9084,1.9401,1.9604,2.0116,2.0403,2.0572,2.0876,2.0915,2.0838,2.0555,2.0273,2.0063,1.9689,1.9512,1.948,1.948,1.9465,1.9603,1.9588,1.9468,1.9453,1.9405,1.9528,1.9687,1.9703,1.9572,1.9043,1.8747,1.8892,1.9009,1.9091,1.9214,1.9558,1.9723,1.9475,1.9169,1.9753,2.0352,2.0518,2.0415,2.0684,2.0719,2.0338,2.0109,1.993,1.9933,1.9789,1.9644,1.905,1.9644,1.9155,1.819,1.8765,1.8496,1.8224,1.7967,1.7639,1.69,1.7291,1.7422,1.7442,1.7874,1.8341,1.8674,1.8831,1.9159,1.9358,1.9014,1.9078,1.9225,1.8843,1.8966,1.9411,1.9491,1.9688,2.016,2.052,2.0559,2.0372,2.0526,2.0411,2.0114,2.0038,2.0148,2.0281,2.0296,2.0292,2.0327,2.0497,2.0586,2.0605,2.0586,2.0565,2.049,2.0435,2.048,2.0507,2.0499,2.0433,2.0609,2.095,2.1111,2.1042,2.1493,2.1526,2.1555,2.1684,2.1574,2.1519,2.1684,2.128,2.0436,2.0523,2.0688,2.0207,2.0082,2.0132,2.0403,2.0805,2.1295,2.1282,2.1569,2.163,2.144,2.107,2.0877,2.0735,2.0269,1.9699,1.9693,1.9693,1.9678,1.9693,1.9678,1.9633,1.9633,1.9618,1.9663,1.9714,1.9725,1.9725,1.9579,1.9513,1.9558,1.9543,1.9438,1.9543,1.9723,1.9723,1.9566,1.8822,1.9731,1.9962,2.0283,2.0696,2.121,2.1135,2.0576,2.0501,2.0389,2.0356,1.9959,1.9704,1.9661,1.9589,1.9099,1.8226,1.8525,1.84,1.7598,1.7947,1.7747,1.7353,1.7727,1.7913,1.7973,1.8033,1.84,1.8784,1.8968,1.9188,1.9576,1.9614,1.9682,1.9973,1.9846,1.9802,2.0223,2.0327,2.0451,2.0743,2.1181,2.1336,2.1197,2.1465,2.1316,2.091,2.0893,2.0751,2.043,2.029,2.033,2.0391,2.051,2.0664,2.0801,2.0723,2.0643,2.0529,2.063,2.0694,2.1262,2.1293,2.153,2.2162,2.1985,2.2016,2.1952,2.1895,2.1977,2.1996,2.1849,2.1959,2.2106,2.2419,2.2425,2.1661,2.1178,2.094,2.0755,2.0839,2.1156,2.1654,2.1738,2.2006,2.2073,2.2141,2.2279,2.1976,2.1524,2.1245,2.1055,2.0464,1.9854,1.9723,1.9723,1.9723,1.9723,1.9723,1.9723,1.9723,1.9723,1.9723,1.9723,1.9708,1.9723,1.9723,1.9708,1.9648,1.9693,1.9723,1.9723,1.9723,1.9723,1.9723,1.821,1.9031,1.9955,2.0166,2.0085,2.114,2.1158,2.0405,2.0278,2.0425,2.0527,2.0034,1.9826,1.985,1.9464,1.8755,1.8016,1.7996,1.7867,1.7565,1.8052,1.8308,1.8249,1.8516,1.8746,1.8535,1.8496,1.8779,1.9099,1.908,1.9169,1.9693,1.9874,2.0198,2.0667,2.0776,2.1147,2.1529,2.17,2.1826,2.2052,2.2285,2.2331,2.2109,2.208,2.1829,2.1664,2.1849,2.1797,2.1423,2.0813,2.0374,2.0412,2.0547,2.0937,2.168,2.1816,2.1797,2.174,2.1684,2.1845,2.2136,2.2165,2.2273,2.2597,2.2627,2.2724,2.2716,2.2797,2.2923,2.2932,2.2951,2.2932,2.2987,2.3263,2.3232,2.2663,2.2197,2.1826,2.1643,2.1634,2.1854,2.2161,2.2279,2.2296,2.2178,2.2178,2.2313,2.218,2.1751,2.1323,2.0991,2.0431,1.9997,1.9797,1.9723,1.9723,1.9723,1.9723,1.9723,1.9723,1.9723,1.9723,1.9723,1.9723,1.9723,1.9723,1.9723,1.9723,1.9723,1.9723,1.9723,1.9723,1.9738,1.9723,1.7578,1.8347,1.9955,2.0063,1.9543,2.0981,2.1136,2.0267,2.0081,2.0642,2.0775,2.0293,2.0147,2.0096,1.9594,1.8669,1.8016,1.7539,1.7565,1.768,1.84,1.8708,1.8874,1.9188,1.9369,1.9024,1.9024,1.9299,1.9442,1.9372,1.9489,1.9839,2.0243,2.0633,2.1133,2.1709,2.2105,2.2419,2.2834,2.3137,2.3412,2.3565,2.3447,2.3235,2.2944,2.2656,2.2646,2.2776,2.2894,2.2839,2.1553,2.0941,2.08,2.0664,2.1387,2.2988,2.3301,2.3262,2.2825,2.2847,2.2873,2.303,2.3033,2.3002,2.3027,2.3341,2.3479,2.3555,2.3685,2.3979,2.4171,2.3997,2.4034,2.407,2.4106,2.3827,2.338,2.3165,2.268,2.2337,2.2107,2.2161,2.2229,2.2313,2.2313,2.2313,2.2313,2.2282,2.2149,2.1911,2.1476,2.1133,2.0651,2.023,2.0017,1.9771,1.9771,1.9798,1.9783,1.9761,1.9761,1.9715,1.9715,1.972,1.9723,1.9723,1.9723,1.9723,1.9723,1.9723,1.9753,1.9798,1.9783,1.9753,1.9872,1.7476,1.8817,1.9236,1.9781,2.0538,2.1361,2.1603,2.1418,2.1303,2.1743,2.2129,2.1109,2.0934,2.1155,2.0726,2.0019,1.9024,1.8348,1.7967,1.8066,1.8669,1.8968,1.908,1.9442,1.9603,1.9603,1.9551,1.9642,1.9767,1.9947,2.0004,2.0263,2.0649,2.1086,2.1459,2.1929,2.2384,2.2805,2.3294,2.3671,2.3756,2.3939,2.4126,2.4085,2.3997,2.39,2.3658,2.3762,2.367,2.3057,2.2713,2.2641,2.2422,2.1543,2.1894,2.3184,2.4434,2.4507,2.3551,2.3166,2.3378,2.3709,2.3888,2.4212,2.4476,2.4598,2.4401,2.4304,2.4181,2.4199,2.4199,2.4199,2.4199,2.4151,2.3966,2.366,2.3271,2.2972,2.2742,2.2429,2.2366,2.2313,2.2313,2.2313,2.2313,2.2313,2.2313,2.2313,2.2254,2.1955,2.1562,2.124,2.0942,2.0587,2.0265,1.999,1.9834,1.9917,1.9929,1.9886,1.9845,1.9745,1.9745,2.0374,2.0122,1.9717,1.9717,1.972,1.9828,1.9902,1.9884,1.9899,2.0183,2.0456,2.0591,1.7975,1.9045,1.9731,2.0318,2.095,2.1824,2.217,2.2065,2.184,2.2212,2.2512,2.1866,2.1615,2.1807,2.0812,1.9844,1.9055,1.8791,1.8496,1.8631,1.9024,1.9317,1.9299,1.9603,1.9672,1.9747,1.9877,2.0017,2.0002,2.0177,2.0449,2.0732,2.1086,2.1414,2.1759,2.2347,2.2686,2.3093,2.3577,2.3947,2.3937,2.4123,2.4303,2.4495,2.4689,2.4663,2.4636,2.4745,2.4715,2.4438,2.4388,2.4414,2.4141,2.3848,2.3535,2.4414,2.5215,2.5387,2.4489,2.4323,2.4508,2.4699,2.4739,2.4776,2.4998,2.4973,2.491,2.4567,2.4401,2.4199,2.4199,2.4199,2.4199,2.4151,2.3907,2.3566,2.3253,2.2923,2.2691,2.2504,2.2402,2.2335,2.2313,2.2313,2.2313,2.2313,2.2313,2.2313,2.2313,2.2075,2.1728,2.1504,2.1258,2.0942,2.0734,2.0621,2.0297,2.028,2.0299,2.0258,2.006,2.001,2.0919,2.19,2.1258,2.0273,1.9746,1.9783,1.9914,2.0139,2.0288,2.0498,2.0872,2.1141,2.1231,1.8473,1.9329,2.0273,2.084,2.1194,2.2078,2.2509,2.2437,2.2099,2.254,2.3267,2.2466,2.2204,2.2175,2.1105,1.9809,1.8844,1.9277,1.9304,1.9351,1.9498,1.9672,1.9708,1.98,1.9856,1.9947,2.0261,2.0366,2.0314,2.0551,2.0813,2.1165,2.155,2.1818,2.2057,2.2805,2.3177,2.3488,2.3865,2.418,2.4199,2.4256,2.4348,2.4543,2.4741,2.493,2.5076,2.5253,2.5431,2.5421,2.5508,2.5605,2.5664,2.5684,2.5684,2.5684,2.5664,2.5618,2.5533,2.5384,2.5205,2.5223,2.5297,2.516,2.5018,2.5031,2.4929,2.4436,2.4209,2.4199,2.4199,2.4199,2.4199,2.4141,2.3907,2.3599,2.3357,2.3081,2.2835,2.2652,2.249,2.2491,2.2556,2.2313,2.2313,2.2313,2.2313,2.2313,2.2313,2.2313,2.2063,2.1845,2.1592,2.1311,2.1234,2.1426,2.113,2.094,2.1006,2.1038,2.0666,2.0351,2.155,2.269,2.2243,2.1319,2.058,2.0112,2.0546,2.0827,2.0887,2.1141,2.1605,2.171,2.1695,1.8334,1.9812,1.9954,2.0617,2.1532,2.1801,2.2188,2.2645,2.2606,2.2965,2.3623,2.2921,2.2643,2.2433,2.185,2.1356,2.105,2.0581,2.0357,2.0258,1.9964,1.9801,1.9797,2.0104,2.0193,2.0313,2.0698,2.0633,2.065,2.1086,2.1429,2.167,2.2169,2.2548,2.2574,2.3189,2.361,2.3692,2.4006,2.4199,2.4228,2.4357,2.4553,2.4727,2.4885,2.5075,2.529,2.5435,2.552,2.5604,2.5661,2.5703,2.5703,2.5703,2.5703,2.5664,2.5599,2.5515,2.5511,2.5451,2.5383,2.5344,2.5317,2.5269,2.5165,2.4936,2.4763,2.4599,2.433,2.4199,2.4218,2.4245,2.4218,2.424,2.4179,2.3988,2.3759,2.3904,2.3571,2.3374,2.3397,2.3102,2.2967,2.26,2.2313,2.2313,2.2313,2.2347,2.2499,2.2634,2.2767,2.2651,2.2587,2.2328,2.2128,2.2228,2.2071,2.176,2.1804,2.1884,2.1673,2.155,2.2038,2.2819,2.2526,2.2359,2.1764,2.1475,2.1535,2.1515,2.1575,2.1949,2.2448,2.2403,2.2263,1.9052,2.0341,2.0341,2.0862,2.17,2.2098,2.257,2.3029,2.3178,2.3537,2.3879,2.345,2.3036,2.2542,2.1994,2.168,2.162,2.1395,2.1036,2.0797,2.0427,2.0195,2.0113,2.0229,2.0382,2.0844,2.1086,2.1259,2.1258,2.1564,2.1958,2.2252,2.266,2.2954,2.3021,2.3466,2.3649,2.3795,2.4006,2.419,2.4238,2.4401,2.461,2.4797,2.4949,2.5168,2.5399,2.549,2.5556,2.5634,2.5703,2.5703,2.5703,2.5703,2.5703,2.5703,2.5581,2.5522,2.5508,2.5438,2.536,2.5327,2.5308,2.5303,2.5203,2.4916,2.4647,2.4594,2.4339,2.4255,2.4392,2.464,2.4805,2.4846,2.4837,2.4951,2.4854,2.4748,2.4658,2.4481,2.4243,2.3977,2.3576,2.2997,2.2694,2.26,2.2665,2.2733,2.3088,2.3528,2.363,2.3684,2.365,2.3581,2.3373,2.3285,2.3114,2.2882,2.2831,2.2894,2.2877,2.2987,2.3143,2.3224,2.3164,2.2972,2.2733,2.2646,2.2541,2.239,2.2248,2.2628,2.2972,2.3116,2.3056,1.9499,2.0449,2.0628,2.1081,2.1739,2.2418,2.2894,2.3213,2.3459,2.3815,2.3905,2.3405,2.2706,2.2298,2.1829,2.1695,2.171,2.1879,2.165,2.1325,2.1103,2.0935,2.0916,2.0874,2.1388,2.1424,2.196,2.2156,2.2314,2.2448,2.2692,2.2755,2.2954,2.3212,2.3392,2.3642,2.3858,2.3878,2.4084,2.4228,2.4321,2.4486,2.4659,2.4843,2.5021,2.5215,2.546,2.5531,2.5597,2.5664,2.5703,2.5703,2.5703,2.5703,2.5664,2.5635,2.5529,2.5489,2.5468,2.5417,2.535,2.5307,2.5303,2.5269,2.5157,2.4809,2.4729,2.4924,2.4848,2.477,2.4887,2.5419,2.5585,2.5771,2.5896,2.6106,2.6209,2.5924,2.5607,2.5289,2.5116,2.5002,2.4468,2.3593,2.3158,2.2951,2.297,2.3122,2.3579,2.4188,2.4618,2.4701,2.463,2.4542,2.4264,2.4126,2.401,2.3877,2.384,2.361,2.3426,2.3392,2.3428,2.3541,2.3595,2.346,2.3146,2.3343,2.3473,2.3145,2.2936,2.3116,2.337,2.3535,2.3595,1.9236,1.9828,2.0438,2.1017,2.1665,2.2418,2.2679,2.2751,2.3293,2.3548,2.3468,2.2463,2.1605,2.131,2.1714,2.1824,2.1824,2.2358,2.2546,2.251,2.2336,2.1944,2.1974,2.247,2.308,2.2731,2.2974,2.3333,2.3632,2.3598,2.3317,2.2881,2.3406,2.3499,2.3685,2.4,2.4084,2.4085,2.419,2.4321,2.4469,2.4643,2.4823,2.5004,2.5212,2.5418,2.5508,2.5552,2.5605,2.5684,2.5703,2.5703,2.5703,2.5703,2.5664,2.5566,2.5496,2.5468,2.5428,2.5371,2.5322,2.5293,2.5279,2.5243,2.5063,2.5006,2.5113,2.5471,2.5457,2.5788,2.6088,2.6473,2.6502,2.6628,2.6794,2.6991,2.7049,2.6896,2.6568,2.6158,2.5993,2.5985,2.568,2.4903,2.4022,2.378,2.397,2.4137,2.4157,2.4678,2.5442,2.5712,2.5604,2.5379,2.4994,2.4873,2.4911,2.4668,2.4451,2.4034,2.361,2.3642,2.3603,2.3595,2.3595,2.3595,2.358,2.3565,2.3553,2.3582,2.355,2.349,2.349,2.3565,2.3595,1.9515,1.972,1.9989,2.0228,2.0531,2.1186,2.171,2.2069,2.2323,2.2682,2.2993,2.1739,2.1635,2.2164,2.2147,2.2631,2.3349,2.3966,2.3897,2.37,2.3465,2.3257,2.3349,2.3456,2.3817,2.3823,2.4005,2.4274,2.4587,2.467,2.4883,2.4685,2.4421,2.4457,2.4632,2.4479,2.4327,2.433,2.4358,2.4454,2.4518,2.478,2.4943,2.5003,2.5268,2.5421,2.5506,2.5561,2.5633,2.5664,2.5703,2.5703,2.5703,2.5703,2.5644,2.5527,2.5461,2.5432,2.5448,2.5363,2.5293,2.5308,2.5284,2.5266,2.5189,2.5334,2.5529,2.5808,2.6157,2.6594,2.6547,2.7016,2.7365,2.7475,2.764,2.7831,2.7849,2.7721,2.7624,2.7254,2.7154,2.714,2.6766,2.6304,2.5405,2.466,2.4915,2.5102,2.5086,2.5188,2.5907,2.6293,2.6181,2.6183,2.5815,2.5805,2.5852,2.5449,2.5031,2.4585,2.4086,2.3624,2.3588,2.3586,2.3595,2.3595,2.3595,2.3595,2.3595,2.3595,2.3595,2.358,2.358,2.3595,2.3595,1.9723,1.9723,1.9723,1.9749,1.998,2.0597,2.1356,2.2083,2.2397,2.248,2.279,2.2045,2.2137,2.2893,2.3177,2.3324,2.417,2.4715,2.4757,2.4679,2.46,2.4497,2.4412,2.4564,2.4944,2.4898,2.5012,2.522,2.5607,2.5589,2.5966,2.6141,2.594,2.5782,2.5521,2.5264,2.4926,2.5032,2.5105,2.5319,2.5479,2.5415,2.5504,2.5477,2.5526,2.5447,2.5524,2.5573,2.5639,2.5684,2.5703,2.5703,2.5703,2.5684,2.5644,2.554,2.5454,2.5449,2.5631,2.5431,2.5462,2.5731,2.5658,2.5656,2.5748,2.5963,2.6022,2.6552,2.6962,2.7281,2.7262,2.7897,2.8154,2.8246,2.8381,2.8565,2.8601,2.8546,2.8516,2.8391,2.8151,2.7628,2.718,2.6706,2.6244,2.5591,2.5744,2.5863,2.578,2.5948,2.6336,2.6589,2.6572,2.6607,2.6641,2.6419,2.6175,2.5835,2.5468,2.515,2.4686,2.42,2.3999,2.4234,2.4152,2.3747,2.3595,2.3595,2.3595,2.3595,2.3595,2.3595,2.3595,2.3595,2.3595,1.9723,1.9723,1.9726,1.9945,2.0342,2.0974,2.1873,2.2754,2.3478,2.3496,2.3145,2.3458,2.3237,2.295,2.3674,2.4195,2.4534,2.5091,2.5312,2.5362,2.5555,2.5384,2.5477,2.5698,2.5914,2.5756,2.5903,2.6231,2.6633,2.6711,2.7148,2.7458,2.7252,2.6811,2.6591,2.6539,2.661,2.6758,2.6702,2.6898,2.6956,2.6568,2.6462,2.639,2.5978,2.5765,2.5775,2.5668,2.5703,2.5684,2.5703,2.5703,2.5703,2.5879,2.5859,2.5676,2.5648,2.5929,2.6449,2.576,2.5962,2.6441,2.6422,2.6402,2.676,2.6775,2.6646,2.7227,2.8092,2.862,2.884,2.8877,2.8822,2.884,2.895,2.8987,2.8987,2.8987,2.8875,2.8633,2.8201,2.7751,2.7315,2.6952,2.6757,2.6539,2.6623,2.6573,2.6387,2.6438,2.6674,2.6708,2.6708,2.6708,2.6708,2.6708,2.6521,2.6175,2.5924,2.5705,2.5346,2.491,2.4854,2.4947,2.4382,2.3689,2.3595,2.3595,2.3595,2.3595,2.3595,2.3595,2.3595,2.3595,2.3595,1.9723,1.9726,1.9982,2.0364,2.073,2.0649,2.1148,2.1994,2.2909,2.3309,2.3183,2.3462,2.3975,2.4158,2.4479,2.4979,2.542,2.5892,2.6193,2.6193,2.6367,2.6522,2.6519,2.6503,2.6736,2.6775,2.6937,2.7122,2.748,2.7652,2.8073,2.8426,2.8265,2.7686,2.6938,2.6702,2.6842,2.6942,2.7137,2.7433,2.7599,2.7464,2.7366,2.7425,2.6743,2.6376,2.6335,2.6142,2.5937,2.5918,2.5937,2.5898,2.6016,2.623,2.6586,2.6671,2.6825,2.7466,2.7537,2.7159,2.7159,2.7316,2.7255,2.7113,2.7182,2.7463,2.7619,2.7874,2.8558,2.8913,2.8968,2.895,2.8932,2.8932,2.8987,2.8987,2.8987,2.8994,2.8905,2.8515,2.8116,2.7545,2.7067,2.6923,2.6758,2.6708,2.6708,2.6708,2.6556,2.6573,2.6708,2.6708,2.6708,2.6708,2.6708,2.6708,2.6708,2.647,2.6399,2.6396,2.6036,2.5583,2.5021,2.4757,2.4156,2.3595,2.3595,2.3595,2.3595,2.3595,2.3595,2.3595,2.3595,2.3595,2.3595,2.0139,2.0174,2.0431,2.0699,2.0943,2.0813,2.1227,2.2113,2.3125,2.3586,2.3669,2.3915,2.4457,2.5182,2.5556,2.573,2.6263,2.6505,2.6674,2.6725,2.6857,2.6985,2.7063,2.7192,2.7298,2.7485,2.7663,2.7844,2.8027,2.8415,2.8694,2.889,2.9089,2.8584,2.7937,2.7844,2.7988,2.8194,2.8514,2.8623,2.8626,2.848,2.8321,2.814,2.7736,2.7262,2.717,2.6894,2.6582,2.6543,2.6543,2.6562,2.6797,2.6901,2.7333,2.7565,2.8086,2.8536,2.8359,2.8717,2.8695,2.865,2.8157,2.7941,2.7966,2.8305,2.8278,2.8456,2.876,2.8877,2.8987,2.8987,2.8987,2.8987,2.8987,2.8987,2.8987,2.8994,2.8767,2.8386,2.8034,2.7439,2.6923,2.6825,2.6725,2.6708,2.6708,2.6708,2.6708,2.6708,2.6708,2.6708,2.6708,2.6708,2.6708,2.6708,2.6708,2.6708,2.6708,2.6691,2.6636,2.6155,2.5365,2.4551,2.4051,2.3685,2.3608,2.3595,2.3595,2.3595,2.3595,2.3595,2.3595,2.3595,2.3595,2.0991,2.1007,2.1023,2.1023,2.1086,2.1431,2.222,2.3332,2.4056,2.4345,2.4411,2.504,2.5446,2.5662,2.6302,2.659,2.6607,2.6657,2.6691,2.6825,2.7019,2.7208,2.7439,2.7619,2.7736,2.795,2.8116,2.8197,2.842,2.8694,2.8929,2.9078,2.9265,2.914,2.9089,2.9111,2.9245,2.9376,2.9525,2.9653,2.9684,2.9446,2.9255,2.8999,2.8599,2.8247,2.8133,2.8008,2.7988,2.8008,2.8086,2.8144,2.8047,2.7676,2.7819,2.822,2.8893,2.9074,2.9261,2.9775,2.9858,2.9535,2.8935,2.906,2.9101,2.8996,2.8787,2.8764,2.8932,2.895,2.8987,2.8987,2.8987,2.8987,2.8987,2.8987,2.8987,2.8851,2.857,2.8255,2.795,2.7485,2.7036,2.6841,2.689,2.6841,2.6825,2.6708,2.6708,2.6708,2.6708,2.6708,2.6708,2.6708,2.6708,2.6708,2.6708,2.6708,2.6708,2.6708,2.6706,2.6665,2.6048,2.5238,2.4253,2.3779,2.3634,2.3595,2.3595,2.3595,2.3595,2.3595,2.3595,2.3595,2.3595,2.1007,2.1023,2.1306,2.1431,2.1507,2.1899,2.2312,2.2702,2.3393,2.3714,2.3797,2.505,2.5456,2.5676,2.6353,2.6607,2.6674,2.6708,2.6691,2.6873,2.7178,2.7439,2.7678,2.7897,2.8065,2.8224,2.8368,2.8476,2.8496,2.8809,2.9145,2.9289,2.9404,2.9561,2.9722,2.9821,2.9916,3.0006,3.0163,3.0279,3.0369,3.0094,2.9993,2.9823,2.943,2.9154,2.9083,2.8688,2.8535,2.8418,2.8359,2.832,2.8262,2.8558,2.9006,2.9656,2.9957,3.0019,3.0083,3.025,3.0292,3.004,2.951,2.9371,2.9399,2.9246,2.901,2.8987,2.8987,2.8987,2.8987,2.8987,2.8987,2.8987,2.8987,2.8987,2.8987,2.8917,2.8608,2.8183,2.788,2.7619,2.7162,2.7147,2.7178,2.7084,2.6955,2.6808,2.6708,2.6708,2.6708,2.6708,2.6708,2.6708,2.6708,2.6708,2.6708,2.6708,2.6708,2.6708,2.6691,2.6648,2.6512,2.5725,2.4404,2.3833,2.3614,2.3595,2.3595,2.3595,2.3595,2.3595,2.3595,2.3595,2.3595,2.1337,2.1539,2.1764,2.1884,2.1928,2.2163,2.2313,2.2412,2.2784,2.3088,2.3494,2.4306,2.4898,2.5236,2.5845,2.6234,2.6251,2.6589,2.6791,2.7067,2.7365,2.7751,2.8024,2.8242,2.8482,2.8596,2.8615,2.8682,2.8719,2.8948,2.928,2.9513,2.957,2.9782,2.9947,3.0061,3.0155,3.0209,3.0286,3.0373,3.0422,3.0453,3.0503,3.047,3.0072,3.001,2.998,2.9394,2.9336,2.9316,2.9336,2.9336,2.9355,2.9718,2.9819,3.0314,3.0294,3.0308,3.0308,3.0346,3.0248,3.0032,2.9804,2.9607,2.9377,2.9171,2.9055,2.8987,2.8987,2.8987,2.8987,2.8987,2.8987,2.8987,2.8987,2.8987,2.8987,2.8987,2.8633,2.8197,2.789,2.7678,2.753,2.753,2.7457,2.7272,2.7083,2.6939,2.6791,2.6708,2.6708,2.6708,2.6708,2.6708,2.6708,2.6708,2.6708,2.6708,2.6708,2.6691,2.6708,2.6483,2.6241,2.5403,2.4338,2.3909,2.3595,2.3595,2.3595,2.3595,2.3595,2.3595,2.3595,2.3595,2.3595,2.1899,2.2268,2.2313,2.2268,2.2313,2.2296,2.2324,2.2321,2.2414,2.2694,2.3221,2.341,2.3883,2.4508,2.5169,2.5609,2.5894,2.6333,2.6834,2.7299,2.7751,2.8088,2.8368,2.8761,2.8815,2.8929,2.8975,2.891,2.906,2.9246,2.9445,2.9722,2.9869,2.9999,3.0109,3.0254,3.0317,3.0323,3.0361,3.0404,3.0417,3.0458,3.0541,3.06,3.0615,3.0703,3.0801,3.084,3.0918,3.0879,3.082,3.0723,3.0605,3.0517,3.0479,3.0413,3.0396,3.0404,3.0404,3.0404,3.0221,3.0011,2.9804,2.9579,2.9332,2.9127,2.901,2.8987,2.8987,2.8987,2.8987,2.8987,2.8987,2.8987,2.8987,2.8987,2.8987,2.8899,2.8602,2.8246,2.8129,2.7918,2.7904,2.7908,2.7779,2.7515,2.7241,2.7067,2.6874,2.6708,2.6708,2.6708,2.6708,2.6708,2.6708,2.6708,2.6708,2.6708,2.6708,2.6708,2.6708,2.6367,2.5917,2.4955,2.3941,2.38,2.3595,2.3595,2.3595,2.3595,2.3595,2.3595,2.3595,2.3595,2.3595,2.2194,2.2313,2.2313,2.2313,2.2313,2.2313,2.2426,2.2599,2.2612,2.2607,2.2691,2.3151,2.3488,2.3818,2.4532,2.5041,2.5585,2.6158,2.6692,2.735,2.7925,2.829,2.8476,2.8809,2.8964,2.8987,2.9028,2.9134,2.9299,2.9424,2.9589,2.9912,3.0047,3.0115,3.026,3.0398,3.0398,3.0404,3.0408,3.0414,3.0417,3.0511,3.0594,3.0665,3.075,3.084,3.0918,3.0918,3.0918,3.0898,3.0898,3.0801,3.0657,3.0623,3.0529,3.0414,3.0404,3.0404,3.0404,3.0367,3.0215,2.9935,2.9705,2.9446,2.9228,2.9071,2.8987,2.8987,2.8987,2.8987,2.8987,2.8987,2.8987,2.8987,2.8987,2.8987,2.8987,2.8785,2.8547,2.8446,2.8342,2.8303,2.829,2.821,2.8057,2.7791,2.7454,2.7178,2.6873,2.6708,2.6708,2.6708,2.6708,2.6708,2.6708,2.6708,2.6708,2.6708,2.6708,2.6708,2.6708,2.6482,2.6083,2.4619,2.3627,2.3643,2.3657,2.3616,2.3616,2.3595,2.3595,2.3595,2.3595,2.3595,2.3595,2.212,2.2296,2.2313,2.2313,2.2324,2.2426,2.2577,2.2708,2.286,2.2857,2.2743,2.3114,2.3321,2.3429,2.4085,2.4546,2.5212,2.6051,2.6676,2.736,2.8013,2.8446,2.8694,2.8875,2.8952,2.8998,2.9149,2.931,2.9484,2.9688,2.988,3.0122,3.0189,3.0248,3.0404,3.0404,3.0404,3.0404,3.0422,3.0446,3.0462,3.0545,3.0628,3.0689,3.0781,3.0898,3.0918,3.0918,3.0918,3.0918,3.0918,3.0801,3.0672,3.061,3.0542,3.0444,3.0404,3.0404,3.0404,3.0349,3.0221,2.9935,2.9713,2.9523,2.9301,2.9156,2.8998,2.8987,2.8987,2.8987,2.8987,2.8987,2.8987,2.8987,2.8987,2.8987,2.8975,2.8887,2.8785,2.8749,2.87,2.87,2.8688,2.8676,2.8469,2.7936,2.7604,2.7208,2.6939,2.6708,2.6708,2.6708,2.6708,2.6708,2.6708,2.6708,2.6708,2.6708,2.6708,2.669,2.6704,2.6672,2.6205,2.5017,2.4128,2.3777,2.3764,2.3806,2.3659,2.3595,2.3595,2.3595,2.3625,2.3714,2.3849,2.1943,2.2282,2.2313,2.2313,2.2335,2.2541,2.2682,2.2797,2.3021,2.3212,2.3311,2.3312,2.3265,2.3454,2.3789,2.4095,2.4713,2.5879,2.6652,2.7343,2.8121,2.8579,2.8839,2.8975,2.8987,2.9089,2.9235,2.9436,2.9652,2.9829,3.0059,3.0323,3.0404,3.0404,3.0404,3.0385,3.039,3.0439,3.0467,3.0507,3.0545,3.0578,3.0628,3.0716,3.082,3.0898,3.0918,3.0918,3.0918,3.0918,3.0909,3.0776,3.0656,3.0575,3.0496,3.0411,3.0404,3.0404,3.0404,3.0398,3.0196,2.9988,2.9815,2.9616,2.9394,2.9203,2.9055,2.9033,2.9033,2.8987,2.8987,2.8987,2.8987,2.8987,2.8987,2.8987,2.8975,2.8964,2.8964,2.8964,2.8964,2.8964,2.8982,2.8982,2.8639,2.8134,2.7707,2.7301,2.6971,2.6808,2.6708,2.6708,2.6708,2.6708,2.6708,2.6708,2.6708,2.6708,2.6691,2.6704,2.6609,2.633,2.6089,2.5792,2.5029,2.4675,2.4241,2.4142,2.3943,2.3745,2.3595,2.3655,2.3947,2.4051,2.4246,2.2209,2.2313,2.2313,2.2313,2.231,2.236,2.2647,2.3021,2.2898,2.3212,2.3746,2.3664,2.3471,2.32,2.3295,2.3738,2.4682,2.5816,2.6596,2.7265,2.8312,2.8784,2.8964,2.8987,2.8987,2.9134,2.932,2.9513,2.9754,2.9939,3.0136,3.0373,3.0404,3.0404,3.0404,3.0396,3.0417,3.0457,3.0503,3.0533,3.0628,3.0675,3.068,3.0746,3.082,3.0879,3.0918,3.0918,3.0918,3.0918,3.0905,3.0769,3.0639,3.0525,3.0443,3.0411,3.0404,3.0404,3.0404,3.0355,3.0157,2.9904,2.9731,2.9626,2.9395,2.9222,2.9145,2.9171,2.9156,2.901,2.8987,2.8987,2.8987,2.8987,2.8987,2.8987,2.8987,2.8975,2.8975,2.8975,2.8975,2.8994,2.8994,2.8881,2.8626,2.8174,2.7823,2.7424,2.6873,2.6775,2.6708,2.6708,2.6708,2.6708,2.6708,2.6708,2.6708,2.6708,2.6691,2.6706,2.6431,2.5801,2.5564,2.5856,2.6007,2.5799,2.5362,2.4552,2.4302,2.4074,2.3745,2.3736,2.4125,2.4545,2.4822]}]]